| time (UTC) | temp C | wind direction | speed KPH | gust KPH | rain 1hr cm | rain 24hr cm | rain mn cm | humidity % | barometer mb |
| 20260507230303 | 8 | 218 | 4.8 | 12.9 | 0.00 | 0.00 | 0.00 | 92 | 1002.1 |
| 20260507230203 | 8 | 219 | 4.8 | 12.9 | 0.00 | 0.00 | 0.00 | 92 | 1002.1 |
| 20260507230003 | 8 | 217 | 4.8 | 12.9 | 0.00 | 0.00 | 0.00 | 92 | 1002.1 |
| 20260507225903 | 8 | 219 | 4.8 | 12.9 | 0.00 | 0.00 | 0.00 | 92 | 1002.1 |
| 20260507225803 | 8 | 220 | 4.8 | 12.9 | 0.00 | 0.00 | 0.00 | 92 | 1002.2 |
| 20260507225703 | 8 | 221 | 4.8 | 12.9 | 0.00 | 0.00 | 0.00 | 92 | 1002.2 |
| 20260507225624 | 8 | 220 | 6.4 | 12.9 | 0.00 | 0.00 | 0.00 | 92 | 1002.3 |
| 20260507225503 | 8 | 222 | 4.8 | 12.9 | 0.00 | 0.00 | 0.00 | 92 | 1002.3 |
| 20260507225403 | 8 | 223 | 4.8 | 11.3 | 0.00 | 0.00 | 0.00 | 92 | 1002.3 |
| 20260507225324 | 8 | 224 | 4.8 | 11.3 | 0.00 | 0.00 | 0.00 | 92 | 1002.3 |
| 20260507225203 | 8 | 226 | 4.8 | 11.3 | 0.00 | 0.00 | 0.00 | 91 | 1002.1 |
| 20260507225103 | 8 | 228 | 4.8 | 11.3 | 0.00 | 0.00 | 0.00 | 91 | 1002.2 |
| 20260507225024 | 8 | 229 | 4.8 | 11.3 | 0.00 | 0.00 | 0.00 | 91 | 1002.2 |
| 20260507224924 | 8 | 230 | 4.8 | 11.3 | 0.00 | 0.00 | 0.00 | 91 | 1002.2 |
| 20260507224803 | 8 | 231 | 4.8 | 11.3 | 0.00 | 0.00 | 0.00 | 91 | 1002.1 |
| 20260507224703 | 8 | 229 | 4.8 | 11.3 | 0.00 | 0.00 | 0.00 | 91 | 1002.4 |
| 20260507224604 | 8 | 232 | 4.8 | 9.7 | 0.00 | 0.00 | 0.00 | 91 | 1002.2 |
| 20260507224504 | 8 | 233 | 4.8 | 9.7 | 0.00 | 0.00 | 0.00 | 91 | 1002.3 |
| 20260507224403 | 8 | 233 | 4.8 | 9.7 | 0.00 | 0.00 | 0.00 | 91 | 1002.2 |
| 20260507224303 | 8 | 233 | 4.8 | 9.7 | 0.00 | 0.00 | 0.00 | 91 | 1002.1 |
| 20260507224224 | 8 | 231 | 4.8 | 9.7 | 0.00 | 0.00 | 0.00 | 91 | 1002.3 |
| 20260507224103 | 8 | 229 | 6.4 | 9.7 | 0.00 | 0.00 | 0.00 | 91 | 1002.4 |
| 20260507224003 | 8 | 229 | 4.8 | 9.7 | 0.00 | 0.00 | 0.00 | 91 | 1002.1 |
| 20260507223903 | 8 | 229 | 4.8 | 9.7 | 0.00 | 0.00 | 0.00 | 90 | 1002.1 |
| 20260507223803 | 8 | 230 | 4.8 | 9.7 | 0.00 | 0.00 | 0.00 | 91 | 1002.1 |
| 20260507223724 | 8 | 231 | 4.8 | 9.7 | 0.00 | 0.00 | 0.00 | 91 | 1002.1 |
| 20260507223603 | 8 | 231 | 4.8 | 11.3 | 0.00 | 0.00 | 0.00 | 90 | 1002.1 |
| 20260507223503 | 8 | 232 | 4.8 | 11.3 | 0.00 | 0.00 | 0.00 | 90 | 1002.1 |
| 20260507223403 | 8 | 233 | 4.8 | 11.3 | 0.00 | 0.00 | 0.00 | 90 | 1002.3 |
| 20260507223324 | 8 | 233 | 4.8 | 11.3 | 0.00 | 0.00 | 0.00 | 90 | 1002.3 |
| 20260507223203 | 8 | 236 | 4.8 | 11.3 | 0.00 | 0.00 | 0.00 | 90 | 1002.3 |
| 20260507223124 | 8 | 237 | 4.8 | 11.3 | 0.00 | 0.00 | 0.00 | 90 | 1002.3 |
| 20260507223003 | 8 | 238 | 4.8 | 11.3 | 0.00 | 0.00 | 0.00 | 90 | 1002.4 |
| 20260507222903 | 8 | 239 | 6.4 | 11.3 | 0.00 | 0.00 | 0.00 | 90 | 1002.3 |
| 20260507222803 | 8 | 238 | 6.4 | 11.3 | 0.00 | 0.00 | 0.00 | 90 | 1002.3 |
| 20260507222704 | 8 | 238 | 6.4 | 11.3 | 0.00 | 0.00 | 0.00 | 89 | 1002.2 |
| 20260507222603 | 8 | 241 | 6.4 | 11.3 | 0.00 | 0.00 | 0.00 | 89 | 1002.2 |
| 20260507222524 | 8 | 242 | 6.4 | 11.3 | 0.00 | 0.00 | 0.00 | 89 | 1002.3 |
| 20260507222403 | 8 | 241 | 6.4 | 11.3 | 0.00 | 0.00 | 0.00 | 89 | 1002.2 |
| 20260507222306 | 8 | 242 | 6.4 | 11.3 | 0.00 | 0.00 | 0.00 | 89 | 1002.2 |
| 20260507222203 | 8 | 243 | 6.4 | 11.3 | 0.00 | 0.00 | 0.00 | 89 | 1002.2 |
| 20260507222103 | 8 | 241 | 6.4 | 11.3 | 0.00 | 0.00 | 0.00 | 89 | 1002.2 |
| 20260507222003 | 8 | 242 | 6.4 | 11.3 | 0.00 | 0.00 | 0.00 | 89 | 1002.2 |
| 20260507221903 | 8 | 243 | 6.4 | 11.3 | 0.00 | 0.00 | 0.00 | 89 | 1002.0 |
| 20260507221824 | 8 | 244 | 6.4 | 11.3 | 0.00 | 0.00 | 0.00 | 89 | 1002.0 |
| 20260507221703 | 8 | 245 | 6.4 | 9.7 | 0.00 | 0.00 | 0.00 | 89 | 1002.1 |
| 20260507221603 | 8 | 246 | 6.4 | 9.7 | 0.00 | 0.00 | 0.00 | 89 | 1002.1 |
| 20260507221503 | 8 | 247 | 6.4 | 9.7 | 0.00 | 0.00 | 0.00 | 89 | 1002.4 |
| 20260507221403 | 8 | 250 | 6.4 | 11.3 | 0.00 | 0.00 | 0.00 | 88 | 1002.2 |
| 20260507221303 | 8 | 249 | 6.4 | 14.5 | 0.00 | 0.00 | 0.00 | 88 | 1002.1 |
| 20260507221203 | 8 | 249 | 6.4 | 14.5 | 0.00 | 0.00 | 0.00 | 88 | 1002.3 |
| 20260507221103 | 8 | 249 | 6.4 | 14.5 | 0.00 | 0.00 | 0.00 | 88 | 1002.3 |
| 20260507221003 | 8 | 249 | 6.4 | 14.5 | 0.00 | 0.00 | 0.00 | 88 | 1002.3 |
| 20260507220903 | 8 | 248 | 6.4 | 14.5 | 0.00 | 0.00 | 0.00 | 88 | 1002.2 |
| 20260507220824 | 8 | 248 | 6.4 | 14.5 | 0.00 | 0.00 | 0.00 | 88 | 1002.1 |
| 20260507220703 | 8 | 247 | 6.4 | 14.5 | 0.00 | 0.00 | 0.00 | 88 | 1002.3 |
| 20260507220603 | 8 | 247 | 6.4 | 14.5 | 0.00 | 0.00 | 0.00 | 88 | 1002.2 |
| 20260507220503 | 8 | 245 | 6.4 | 14.5 | 0.00 | 0.00 | 0.00 | 88 | 1002.0 |
| 20260507220403 | 8 | 243 | 6.4 | 14.5 | 0.00 | 0.00 | 0.00 | 87 | 1002.3 |
| 20260507220303 | 8 | 243 | 6.4 | 14.5 | 0.00 | 0.00 | 0.00 | 87 | 1002.2 |
| 20260507220203 | 8 | 243 | 6.4 | 11.3 | 0.00 | 0.00 | 0.00 | 87 | 1002.3 |
| 20260507220003 | 9 | 239 | 6.4 | 11.3 | 0.00 | 0.00 | 0.00 | 87 | 1002.3 |
| 20260507215924 | 9 | 239 | 6.4 | 11.3 | 0.00 | 0.00 | 0.00 | 87 | 1002.2 |
| 20260507215803 | 9 | 238 | 6.4 | 11.3 | 0.00 | 0.00 | 0.00 | 87 | 1002.0 |
| 20260507215703 | 9 | 239 | 6.4 | 11.3 | 0.00 | 0.00 | 0.00 | 87 | 1002.2 |
| 20260507215603 | 9 | 236 | 6.4 | 11.3 | 0.00 | 0.00 | 0.00 | 87 | 1002.2 |
| 20260507215503 | 9 | 237 | 6.4 | 11.3 | 0.00 | 0.00 | 0.00 | 87 | 1002.3 |
| 20260507215403 | 9 | 238 | 6.4 | 11.3 | 0.00 | 0.00 | 0.00 | 87 | 1002.3 |
| 20260507215306 | 9 | 239 | 6.4 | 11.3 | 0.00 | 0.00 | 0.00 | 87 | 1002.2 |
| 20260507215203 | 9 | 240 | 6.4 | 11.3 | 0.00 | 0.00 | 0.00 | 86 | 1002.2 |
| 20260507215124 | 9 | 242 | 6.4 | 11.3 | 0.00 | 0.00 | 0.00 | 87 | 1002.2 |
| 20260507215003 | 9 | 245 | 6.4 | 11.3 | 0.00 | 0.00 | 0.00 | 86 | 1002.1 |
| 20260507214903 | 9 | 246 | 6.4 | 11.3 | 0.00 | 0.00 | 0.00 | 86 | 1002.4 |
| 20260507214824 | 9 | 247 | 6.4 | 11.3 | 0.00 | 0.00 | 0.00 | 86 | 1002.4 |
| 20260507214703 | 9 | 250 | 6.4 | 11.3 | 0.00 | 0.00 | 0.00 | 86 | 1002.2 |
| 20260507214603 | 9 | 252 | 4.8 | 11.3 | 0.00 | 0.00 | 0.00 | 86 | 1002.2 |
| 20260507214503 | 9 | 252 | 6.4 | 11.3 | 0.00 | 0.00 | 0.00 | 86 | 1002.3 |
| 20260507214424 | 9 | 252 | 4.8 | 11.3 | 0.00 | 0.00 | 0.00 | 86 | 1002.3 |
| 20260507214303 | 9 | 251 | 6.4 | 11.3 | 0.00 | 0.00 | 0.00 | 85 | 1002.2 |
| 20260507214203 | 9 | 250 | 6.4 | 11.3 | 0.00 | 0.00 | 0.00 | 85 | 1002.2 |
| 20260507214124 | 9 | 248 | 6.4 | 11.3 | 0.00 | 0.00 | 0.00 | 85 | 1002.2 |
| 20260507214003 | 9 | 245 | 4.8 | 11.3 | 0.00 | 0.00 | 0.00 | 85 | 1002.2 |
| 20260507213924 | 9 | 245 | 4.8 | 11.3 | 0.00 | 0.00 | 0.00 | 85 | 1002.2 |
| 20260507213824 | 9 | 244 | 4.8 | 11.3 | 0.00 | 0.00 | 0.00 | 85 | 1002.3 |
| 20260507213703 | 9 | 243 | 6.4 | 11.3 | 0.00 | 0.00 | 0.00 | 85 | 1002.0 |
| 20260507213624 | 9 | 242 | 6.4 | 11.3 | 0.00 | 0.00 | 0.00 | 85 | 1002.1 |
| 20260507213525 | 9 | 240 | 4.8 | 11.3 | 0.00 | 0.00 | 0.00 | 85 | 1002.2 |
| 20260507213424 | 9 | 239 | 6.4 | 11.3 | 0.00 | 0.00 | 0.00 | 85 | 1002.2 |
| 20260507213303 | 9 | 237 | 6.4 | 11.3 | 0.00 | 0.00 | 0.00 | 85 | 1002.1 |
| 20260507213203 | 9 | 239 | 4.8 | 11.3 | 0.00 | 0.00 | 0.00 | 85 | 1002.1 |
| 20260507213103 | 9 | 241 | 4.8 | 11.3 | 0.00 | 0.00 | 0.00 | 84 | 1002.1 |
| 20260507213003 | 9 | 238 | 4.8 | 11.3 | 0.00 | 0.00 | 0.00 | 84 | 1002.1 |
| 20260507212905 | 9 | 237 | 6.4 | 11.3 | 0.00 | 0.00 | 0.00 | 84 | 1002.2 |
| 20260507212824 | 9 | 238 | 6.4 | 11.3 | 0.00 | 0.00 | 0.00 | 84 | 1002.2 |
| 20260507212703 | 9 | 237 | 6.4 | 11.3 | 0.00 | 0.00 | 0.00 | 84 | 1002.0 |
| 20260507212603 | 9 | 239 | 6.4 | 12.9 | 0.00 | 0.00 | 0.00 | 84 | 1002.0 |
| 20260507212503 | 9 | 241 | 6.4 | 12.9 | 0.00 | 0.00 | 0.00 | 84 | 1002.0 |
| 20260507212403 | 9 | 241 | 6.4 | 12.9 | 0.00 | 0.00 | 0.00 | 84 | 1002.0 |
| 20260507212306 | 9 | 241 | 6.4 | 12.9 | 0.00 | 0.00 | 0.00 | 84 | 1002.2 |
| 20260507212203 | 9 | 241 | 6.4 | 12.9 | 0.00 | 0.00 | 0.00 | 84 | 1002.2 |
| 20260507212103 | 9 | 243 | 6.4 | 12.9 | 0.00 | 0.00 | 0.00 | 84 | 1002.1 |
| 20260507212003 | 9 | 246 | 4.8 | 12.9 | 0.00 | 0.00 | 0.00 | 84 | 1002.2 |
| 20260507211903 | 9 | 246 | 4.8 | 12.9 | 0.00 | 0.00 | 0.00 | 84 | 1002.2 |
| 20260507211803 | 9 | 246 | 4.8 | 12.9 | 0.00 | 0.00 | 0.00 | 84 | 1002.1 |
| 20260507211704 | 9 | 246 | 4.8 | 12.9 | 0.00 | 0.00 | 0.00 | 84 | 1002.1 |
| 20260507211604 | 9 | 243 | 4.8 | 12.9 | 0.00 | 0.00 | 0.00 | 84 | 1002.0 |
| 20260507211504 | 9 | 242 | 4.8 | 12.9 | 0.00 | 0.00 | 0.00 | 84 | 1002.1 |
| 20260507211405 | 9 | 240 | 4.8 | 9.7 | 0.00 | 0.00 | 0.00 | 84 | 1002.1 |
| 20260507211305 | 9 | 233 | 4.8 | 9.7 | 0.00 | 0.00 | 0.00 | 84 | 1002.0 |
| 20260507211225 | 9 | 230 | 4.8 | 9.7 | 0.00 | 0.00 | 0.00 | 84 | 1002.0 |
| 20260507211104 | 9 | 222 | 4.8 | 9.7 | 0.00 | 0.00 | 0.00 | 84 | 1002.0 |
| 20260507211004 | 9 | 220 | 4.8 | 9.7 | 0.00 | 0.00 | 0.00 | 84 | 1002.1 |
| 20260507210905 | 9 | 219 | 4.8 | 9.7 | 0.00 | 0.00 | 0.00 | 84 | 1001.9 |
| 20260507210804 | 9 | 219 | 4.8 | 9.7 | 0.00 | 0.00 | 0.00 | 84 | 1002.1 |
| 20260507210704 | 9 | 220 | 4.8 | 11.3 | 0.00 | 0.00 | 0.00 | 83 | 1002.0 |
| 20260507210625 | 9 | 218 | 4.8 | 11.3 | 0.00 | 0.00 | 0.00 | 83 | 1002.1 |
| 20260507210526 | 9 | 219 | 4.8 | 11.3 | 0.00 | 0.00 | 0.00 | 83 | 1002.0 |
| 20260507210404 | 10 | 222 | 4.8 | 11.3 | 0.00 | 0.00 | 0.00 | 83 | 1002.0 |
| 20260507210304 | 10 | 226 | 4.8 | 11.3 | 0.00 | 0.00 | 0.00 | 83 | 1002.1 |
| 20260507210205 | 10 | 228 | 4.8 | 11.3 | 0.00 | 0.00 | 0.00 | 83 | 1002.2 |
| 20260507210104 | 10 | 232 | 4.8 | 11.3 | 0.00 | 0.00 | 0.00 | 83 | 1002.0 |
| 20260507210005 | 10 | 232 | 4.8 | 11.3 | 0.00 | 0.00 | 0.00 | 83 | 1002.2 |
| 20260507205904 | 10 | 234 | 4.8 | 11.3 | 0.00 | 0.00 | 0.00 | 83 | 1002.1 |
| 20260507205805 | 10 | 234 | 4.8 | 11.3 | 0.00 | 0.00 | 0.00 | 83 | 1002.2 |
| 20260507205725 | 10 | 235 | 4.8 | 11.3 | 0.00 | 0.00 | 0.00 | 82 | 1002.2 |
| 20260507205604 | 10 | 237 | 4.8 | 11.3 | 0.00 | 0.00 | 0.00 | 82 | 1002.1 |
| 20260507205525 | 10 | 235 | 4.8 | 11.3 | 0.00 | 0.00 | 0.00 | 82 | 1002.1 |
| 20260507205425 | 10 | 235 | 4.8 | 11.3 | 0.00 | 0.00 | 0.00 | 82 | 1001.9 |
| 20260507205325 | 10 | 236 | 4.8 | 9.7 | 0.00 | 0.00 | 0.00 | 82 | 1002.0 |
| 20260507205205 | 10 | 235 | 4.8 | 9.7 | 0.00 | 0.00 | 0.00 | 82 | 1002.1 |
| 20260507205125 | 10 | 233 | 4.8 | 9.7 | 0.00 | 0.00 | 0.00 | 82 | 1002.2 |
| 20260507205004 | 10 | 234 | 4.8 | 9.7 | 0.00 | 0.00 | 0.00 | 82 | 1001.9 |
| 20260507204904 | 10 | 237 | 4.8 | 9.7 | 0.00 | 0.00 | 0.00 | 82 | 1002.1 |
| 20260507204825 | 10 | 238 | 4.8 | 9.7 | 0.00 | 0.00 | 0.00 | 82 | 1002.1 |
| 20260507204705 | 10 | 236 | 4.8 | 9.7 | 0.00 | 0.00 | 0.00 | 82 | 1002.2 |
| 20260507204604 | 10 | 235 | 4.8 | 9.7 | 0.00 | 0.00 | 0.00 | 81 | 1002.1 |
| 20260507204505 | 10 | 235 | 6.4 | 9.7 | 0.00 | 0.00 | 0.00 | 82 | 1002.1 |
| 20260507204404 | 10 | 237 | 6.4 | 9.7 | 0.00 | 0.00 | 0.00 | 81 | 1002.3 |
| 20260507204304 | 10 | 239 | 6.4 | 9.7 | 0.00 | 0.00 | 0.00 | 81 | 1002.0 |
| 20260507204205 | 10 | 242 | 4.8 | 9.7 | 0.00 | 0.00 | 0.00 | 81 | 1001.9 |
| 20260507204104 | 10 | 244 | 4.8 | 11.3 | 0.00 | 0.00 | 0.00 | 81 | 1001.9 |
| 20260507204005 | 10 | 244 | 6.4 | 11.3 | 0.00 | 0.00 | 0.00 | 81 | 1002.1 |
| 20260507203904 | 10 | 242 | 6.4 | 11.3 | 0.00 | 0.00 | 0.00 | 81 | 1002.0 |
| 20260507203804 | 10 | 242 | 6.4 | 11.3 | 0.00 | 0.00 | 0.00 | 81 | 1001.9 |
| 20260507203704 | 10 | 245 | 6.4 | 11.3 | 0.00 | 0.00 | 0.00 | 81 | 1002.0 |
| 20260507203605 | 10 | 244 | 6.4 | 11.3 | 0.00 | 0.00 | 0.00 | 81 | 1001.8 |
| 20260507203504 | 10 | 244 | 6.4 | 12.9 | 0.00 | 0.00 | 0.00 | 81 | 1002.0 |
| 20260507203405 | 10 | 245 | 6.4 | 12.9 | 0.00 | 0.00 | 0.00 | 81 | 1002.2 |
| 20260507203304 | 10 | 244 | 6.4 | 12.9 | 0.00 | 0.00 | 0.00 | 81 | 1002.1 |
| 20260507203205 | 10 | 243 | 6.4 | 12.9 | 0.00 | 0.00 | 0.00 | 80 | 1002.0 |
| 20260507203104 | 10 | 246 | 6.4 | 12.9 | 0.00 | 0.00 | 0.00 | 80 | 1002.0 |
| 20260507203004 | 10 | 244 | 8.0 | 12.9 | 0.00 | 0.00 | 0.00 | 80 | 1002.2 |
| 20260507202904 | 10 | 244 | 8.0 | 12.9 | 0.00 | 0.00 | 0.00 | 80 | 1002.1 |
| 20260507202825 | 10 | 242 | 8.0 | 12.9 | 0.00 | 0.00 | 0.00 | 80 | 1002.0 |
| 20260507202704 | 10 | 242 | 6.4 | 12.9 | 0.00 | 0.00 | 0.00 | 80 | 1002.1 |
| 20260507202604 | 10 | 244 | 6.4 | 12.9 | 0.00 | 0.00 | 0.00 | 80 | 1002.1 |
| 20260507202504 | 10 | 243 | 8.0 | 12.9 | 0.00 | 0.00 | 0.00 | 80 | 1002.1 |
| 20260507202425 | 10 | 243 | 6.4 | 12.9 | 0.00 | 0.00 | 0.00 | 80 | 1002.0 |
| 20260507202307 | 10 | 244 | 8.0 | 12.9 | 0.00 | 0.00 | 0.00 | 80 | 1001.8 |
| 20260507202204 | 10 | 242 | 8.0 | 12.9 | 0.00 | 0.00 | 0.00 | 80 | 1002.2 |
| 20260507202104 | 10 | 239 | 6.4 | 12.9 | 0.00 | 0.00 | 0.00 | 80 | 1001.8 |
| 20260507202005 | 10 | 238 | 6.4 | 12.9 | 0.00 | 0.00 | 0.00 | 80 | 1001.9 |
| 20260507201904 | 10 | 239 | 6.4 | 11.3 | 0.00 | 0.00 | 0.00 | 80 | 1001.8 |
| 20260507201805 | 10 | 239 | 6.4 | 11.3 | 0.00 | 0.00 | 0.00 | 80 | 1001.6 |
| 20260507201704 | 10 | 238 | 6.4 | 11.3 | 0.00 | 0.00 | 0.00 | 80 | 1002.0 |
| 20260507201604 | 10 | 239 | 6.4 | 11.3 | 0.00 | 0.00 | 0.00 | 79 | 1001.8 |
| 20260507201504 | 10 | 240 | 6.4 | 11.3 | 0.00 | 0.00 | 0.00 | 80 | 1001.9 |
| 20260507201404 | 10 | 240 | 6.4 | 11.3 | 0.00 | 0.00 | 0.00 | 80 | 1001.8 |
| 20260507201326 | 10 | 238 | 6.4 | 11.3 | 0.00 | 0.00 | 0.00 | 80 | 1001.8 |
| 20260507201225 | 10 | 239 | 6.4 | 11.3 | 0.00 | 0.00 | 0.00 | 80 | 1001.9 |
| 20260507201126 | 10 | 241 | 6.4 | 11.3 | 0.00 | 0.00 | 0.00 | 80 | 1001.9 |
| 20260507201004 | 10 | 244 | 6.4 | 11.3 | 0.00 | 0.00 | 0.00 | 80 | 1001.8 |
| 20260507200904 | 10 | 247 | 6.4 | 11.3 | 0.00 | 0.00 | 0.00 | 80 | 1001.7 |
| 20260507200805 | 10 | 247 | 6.4 | 11.3 | 0.00 | 0.00 | 0.00 | 80 | 1001.9 |
| 20260507200704 | 10 | 247 | 6.4 | 11.3 | 0.00 | 0.00 | 0.00 | 80 | 1001.8 |
| 20260507200604 | 10 | 245 | 6.4 | 11.3 | 0.00 | 0.00 | 0.00 | 80 | 1001.5 |
| 20260507200504 | 10 | 244 | 6.4 | 11.3 | 0.00 | 0.00 | 0.00 | 80 | 1001.8 |
| 20260507200405 | 10 | 245 | 6.4 | 11.3 | 0.00 | 0.00 | 0.00 | 80 | 1001.7 |
| 20260507200304 | 10 | 246 | 6.4 | 11.3 | 0.00 | 0.00 | 0.00 | 80 | 1001.8 |
| 20260507200226 | 10 | 246 | 6.4 | 11.3 | 0.00 | 0.00 | 0.00 | 80 | 1001.8 |
| 20260507200125 | 10 | 246 | 6.4 | 11.3 | 0.00 | 0.00 | 0.00 | 80 | 1001.7 |
| 20260507200004 | 10 | 245 | 6.4 | 11.3 | 0.00 | 0.00 | 0.00 | 79 | 1001.6 |
| 20260507195904 | 10 | 242 | 6.4 | 11.3 | 0.00 | 0.00 | 0.00 | 79 | 1001.7 |
| 20260507195804 | 10 | 241 | 6.4 | 11.3 | 0.00 | 0.00 | 0.00 | 79 | 1001.7 |
| 20260507195704 | 10 | 241 | 6.4 | 11.3 | 0.00 | 0.00 | 0.00 | 79 | 1001.8 |
| 20260507195604 | 10 | 241 | 6.4 | 11.3 | 0.00 | 0.00 | 0.00 | 79 | 1001.7 |
| 20260507195526 | 10 | 240 | 6.4 | 11.3 | 0.00 | 0.00 | 0.00 | 79 | 1001.7 |
| 20260507195404 | 10 | 242 | 6.4 | 11.3 | 0.00 | 0.00 | 0.00 | 79 | 1001.8 |
| 20260507195305 | 10 | 242 | 6.4 | 11.3 | 0.00 | 0.00 | 0.00 | 78 | 1001.7 |
| 20260507195205 | 10 | 240 | 6.4 | 11.3 | 0.00 | 0.00 | 0.00 | 79 | 1001.6 |
| 20260507195104 | 10 | 240 | 6.4 | 14.5 | 0.00 | 0.00 | 0.00 | 79 | 1001.6 |
| 20260507195025 | 10 | 238 | 6.4 | 14.5 | 0.00 | 0.00 | 0.00 | 78 | 1001.8 |
| 20260507194904 | 10 | 238 | 8.0 | 14.5 | 0.00 | 0.00 | 0.00 | 78 | 1001.6 |
| 20260507194825 | 10 | 237 | 6.4 | 14.5 | 0.00 | 0.00 | 0.00 | 78 | 1001.7 |
| 20260507194704 | 10 | 237 | 6.4 | 14.5 | 0.00 | 0.00 | 0.00 | 78 | 1001.8 |
| 20260507194604 | 10 | 238 | 6.4 | 14.5 | 0.00 | 0.00 | 0.00 | 78 | 1001.4 |
| 20260507194504 | 10 | 237 | 6.4 | 14.5 | 0.00 | 0.00 | 0.00 | 78 | 1001.5 |
| 20260507194405 | 10 | 234 | 6.4 | 14.5 | 0.00 | 0.00 | 0.00 | 78 | 1001.6 |
| 20260507194304 | 10 | 233 | 6.4 | 14.5 | 0.00 | 0.00 | 0.00 | 78 | 1001.5 |
| 20260507194204 | 10 | 234 | 6.4 | 14.5 | 0.00 | 0.00 | 0.00 | 78 | 1001.6 |
| 20260507194104 | 10 | 234 | 6.4 | 14.5 | 0.00 | 0.00 | 0.00 | 78 | 1001.5 |
| 20260507194004 | 10 | 235 | 6.4 | 14.5 | 0.00 | 0.00 | 0.00 | 78 | 1001.7 |
| 20260507193904 | 10 | 237 | 6.4 | 14.5 | 0.00 | 0.00 | 0.00 | 78 | 1001.6 |
| 20260507193804 | 10 | 240 | 6.4 | 12.9 | 0.00 | 0.00 | 0.00 | 78 | 1001.7 |
| 20260507193704 | 10 | 240 | 6.4 | 14.5 | 0.00 | 0.00 | 0.00 | 78 | 1001.6 |
| 20260507193604 | 10 | 241 | 6.4 | 14.5 | 0.00 | 0.00 | 0.00 | 78 | 1001.4 |
| 20260507193504 | 10 | 243 | 6.4 | 14.5 | 0.00 | 0.00 | 0.00 | 78 | 1001.4 |
| 20260507193404 | 10 | 244 | 8.0 | 14.5 | 0.00 | 0.00 | 0.00 | 78 | 1001.4 |
| 20260507193325 | 10 | 243 | 8.0 | 14.5 | 0.00 | 0.00 | 0.00 | 77 | 1001.5 |
| 20260507193204 | 10 | 243 | 8.0 | 14.5 | 0.00 | 0.00 | 0.00 | 78 | 1001.4 |
| 20260507193104 | 10 | 243 | 6.4 | 14.5 | 0.00 | 0.00 | 0.00 | 78 | 1001.6 |
| 20260507193004 | 10 | 243 | 6.4 | 14.5 | 0.00 | 0.00 | 0.00 | 77 | 1001.3 |
| 20260507192904 | 10 | 243 | 6.4 | 14.5 | 0.00 | 0.00 | 0.00 | 78 | 1001.6 |
| 20260507192804 | 10 | 243 | 6.4 | 14.5 | 0.00 | 0.00 | 0.00 | 78 | 1001.5 |
| 20260507192704 | 10 | 240 | 6.4 | 14.5 | 0.00 | 0.00 | 0.00 | 77 | 1001.5 |
| 20260507192604 | 10 | 240 | 6.4 | 14.5 | 0.00 | 0.00 | 0.00 | 77 | 1001.4 |
| 20260507192504 | 10 | 236 | 6.4 | 11.3 | 0.00 | 0.00 | 0.00 | 77 | 1001.5 |
| 20260507192404 | 10 | 237 | 6.4 | 11.3 | 0.00 | 0.00 | 0.00 | 77 | 1001.5 |
| 20260507192306 | 10 | 236 | 6.4 | 11.3 | 0.00 | 0.00 | 0.00 | 77 | 1001.6 |
| 20260507192205 | 10 | 237 | 6.4 | 11.3 | 0.00 | 0.00 | 0.00 | 77 | 1001.6 |
| 20260507192104 | 10 | 235 | 6.4 | 11.3 | 0.00 | 0.00 | 0.00 | 77 | 1001.4 |
| 20260507192004 | 10 | 231 | 4.8 | 11.3 | 0.00 | 0.00 | 0.00 | 77 | 1001.6 |
| 20260507191905 | 10 | 227 | 4.8 | 11.3 | 0.00 | 0.00 | 0.00 | 77 | 1001.5 |
| 20260507191804 | 10 | 224 | 4.8 | 11.3 | 0.00 | 0.00 | 0.00 | 77 | 1001.3 |
| 20260507191704 | 10 | 226 | 6.4 | 11.3 | 0.00 | 0.00 | 0.00 | 77 | 1001.4 |
| 20260507191604 | 10 | 226 | 4.8 | 11.3 | 0.00 | 0.00 | 0.00 | 76 | 1001.5 |
| 20260507191504 | 10 | 229 | 4.8 | 11.3 | 0.00 | 0.00 | 0.00 | 76 | 1001.6 |
| 20260507191404 | 10 | 229 | 4.8 | 11.3 | 0.00 | 0.00 | 0.00 | 76 | 1001.5 |
| 20260507191325 | 10 | 230 | 6.4 | 11.3 | 0.00 | 0.00 | 0.00 | 76 | 1001.4 |
| 20260507191204 | 10 | 230 | 6.4 | 11.3 | 0.00 | 0.00 | 0.00 | 76 | 1001.5 |
| 20260507191104 | 10 | 228 | 6.4 | 11.3 | 0.00 | 0.00 | 0.00 | 76 | 1001.5 |
| 20260507191004 | 10 | 230 | 6.4 | 11.3 | 0.00 | 0.00 | 0.00 | 76 | 1001.4 |
| 20260507190904 | 10 | 232 | 6.4 | 11.3 | 0.00 | 0.00 | 0.00 | 76 | 1001.5 |
| 20260507190825 | 10 | 233 | 6.4 | 11.3 | 0.00 | 0.00 | 0.00 | 76 | 1001.4 |
| 20260507190705 | 10 | 229 | 6.4 | 11.3 | 0.00 | 0.00 | 0.00 | 76 | 1001.2 |
| 20260507190604 | 11 | 228 | 6.4 | 11.3 | 0.00 | 0.00 | 0.00 | 76 | 1001.5 |
| 20260507190505 | 11 | 224 | 6.4 | 11.3 | 0.00 | 0.00 | 0.00 | 76 | 1001.4 |
| 20260507190404 | 11 | 221 | 6.4 | 11.3 | 0.00 | 0.00 | 0.00 | 76 | 1001.5 |
| 20260507190305 | 11 | 219 | 6.4 | 11.3 | 0.00 | 0.00 | 0.00 | 75 | 1001.2 |
| 20260507190204 | 11 | 219 | 6.4 | 12.9 | 0.00 | 0.00 | 0.00 | 75 | 1001.4 |
| 20260507190126 | 11 | 220 | 6.4 | 12.9 | 0.00 | 0.00 | 0.00 | 75 | 1001.6 |
| 20260507190005 | 11 | 220 | 6.4 | 12.9 | 0.00 | 0.00 | 0.00 | 75 | 1001.6 |
| 20260507185925 | 11 | 221 | 6.4 | 12.9 | 0.00 | 0.00 | 0.00 | 75 | 1001.6 |
| 20260507185804 | 11 | 223 | 6.4 | 12.9 | 0.00 | 0.00 | 0.00 | 75 | 1001.5 |
| 20260507185704 | 11 | 226 | 6.4 | 12.9 | 0.00 | 0.00 | 0.00 | 75 | 1001.5 |
| 20260507185625 | 11 | 227 | 6.4 | 12.9 | 0.00 | 0.00 | 0.00 | 75 | 1001.5 |
| 20260507185504 | 11 | 228 | 6.4 | 14.5 | 0.00 | 0.00 | 0.00 | 75 | 1001.3 |
| 20260507185404 | 11 | 227 | 8.0 | 14.5 | 0.00 | 0.00 | 0.00 | 74 | 1001.4 |
| 20260507185306 | 11 | 228 | 6.4 | 14.5 | 0.00 | 0.00 | 0.00 | 75 | 1001.4 |
| 20260507185205 | 11 | 230 | 6.4 | 16.1 | 0.00 | 0.00 | 0.00 | 75 | 1001.3 |
| 20260507185104 | 11 | 230 | 8.0 | 16.1 | 0.00 | 0.00 | 0.00 | 74 | 1001.3 |
| 20260507185004 | 11 | 229 | 8.0 | 16.1 | 0.00 | 0.00 | 0.00 | 75 | 1001.4 |
| 20260507184904 | 11 | 227 | 8.0 | 16.1 | 0.00 | 0.00 | 0.00 | 74 | 1001.2 |
| 20260507184804 | 11 | 227 | 8.0 | 16.1 | 0.00 | 0.00 | 0.00 | 75 | 1001.4 |
| 20260507184725 | 11 | 229 | 8.0 | 16.1 | 0.00 | 0.00 | 0.00 | 74 | 1001.3 |
| 20260507184604 | 11 | 226 | 9.7 | 16.1 | 0.00 | 0.00 | 0.00 | 74 | 1001.4 |
| 20260507184505 | 11 | 226 | 9.7 | 16.1 | 0.00 | 0.00 | 0.00 | 74 | 1001.5 |
| 20260507184404 | 11 | 227 | 9.7 | 16.1 | 0.00 | 0.00 | 0.00 | 74 | 1001.5 |
| 20260507184304 | 11 | 228 | 9.7 | 16.1 | 0.00 | 0.00 | 0.00 | 74 | 1001.6 |
| 20260507184204 | 11 | 227 | 9.7 | 16.1 | 0.00 | 0.00 | 0.00 | 73 | 1001.3 |
| 20260507184104 | 11 | 226 | 9.7 | 16.1 | 0.00 | 0.00 | 0.00 | 73 | 1001.3 |
| 20260507184025 | 11 | 228 | 9.7 | 16.1 | 0.00 | 0.00 | 0.00 | 73 | 1001.3 |
| 20260507183904 | 11 | 224 | 9.7 | 16.1 | 0.00 | 0.00 | 0.00 | 72 | 1001.4 |
| 20260507183825 | 11 | 223 | 9.7 | 16.1 | 0.00 | 0.00 | 0.00 | 73 | 1001.4 |
| 20260507183704 | 11 | 220 | 9.7 | 16.1 | 0.00 | 0.00 | 0.00 | 73 | 1001.4 |
| 20260507183604 | 11 | 220 | 9.7 | 16.1 | 0.00 | 0.00 | 0.00 | 73 | 1001.5 |
| 20260507183504 | 11 | 220 | 9.7 | 16.1 | 0.00 | 0.00 | 0.00 | 73 | 1001.4 |
| 20260507183404 | 11 | 223 | 9.7 | 17.7 | 0.00 | 0.00 | 0.00 | 73 | 1001.3 |
| 20260507183304 | 11 | 226 | 9.7 | 17.7 | 0.00 | 0.00 | 0.00 | 73 | 1001.4 |
| 20260507183204 | 11 | 224 | 9.7 | 17.7 | 0.00 | 0.00 | 0.00 | 73 | 1001.3 |
| 20260507183104 | 11 | 224 | 9.7 | 17.7 | 0.00 | 0.00 | 0.00 | 73 | 1001.4 |
| 20260507183005 | 11 | 222 | 9.7 | 17.7 | 0.00 | 0.00 | 0.00 | 73 | 1001.4 |
| 20260507182904 | 11 | 224 | 9.7 | 17.7 | 0.00 | 0.00 | 0.00 | 73 | 1001.4 |
| 20260507182804 | 11 | 227 | 9.7 | 17.7 | 0.00 | 0.00 | 0.00 | 73 | 1001.4 |
| 20260507182704 | 11 | 227 | 11.3 | 17.7 | 0.00 | 0.00 | 0.00 | 74 | 1001.2 |
| 20260507182604 | 11 | 227 | 11.3 | 17.7 | 0.00 | 0.00 | 0.00 | 73 | 1001.4 |
| 20260507182504 | 11 | 226 | 11.3 | 17.7 | 0.00 | 0.00 | 0.00 | 73 | 1001.4 |
| 20260507182404 | 11 | 223 | 11.3 | 17.7 | 0.00 | 0.00 | 0.00 | 73 | 1001.5 |
| 20260507182306 | 11 | 220 | 11.3 | 17.7 | 0.00 | 0.00 | 0.00 | 73 | 1001.3 |
| 20260507182204 | 11 | 218 | 11.3 | 20.9 | 0.00 | 0.00 | 0.00 | 72 | 1001.4 |
| 20260507182104 | 11 | 219 | 11.3 | 20.9 | 0.00 | 0.00 | 0.00 | 72 | 1001.4 |
| 20260507182004 | 11 | 218 | 11.3 | 22.5 | 0.00 | 0.00 | 0.00 | 72 | 1001.2 |
| 20260507181904 | 11 | 220 | 11.3 | 22.5 | 0.00 | 0.00 | 0.00 | 73 | 1001.2 |
| 20260507181825 | 12 | 219 | 11.3 | 22.5 | 0.00 | 0.00 | 0.00 | 72 | 1001.4 |
| 20260507181704 | 12 | 213 | 11.3 | 22.5 | 0.00 | 0.00 | 0.00 | 72 | 1001.2 |
| 20260507181604 | 12 | 218 | 11.3 | 22.5 | 0.00 | 0.00 | 0.00 | 73 | 1001.2 |
| 20260507181504 | 12 | 220 | 11.3 | 22.5 | 0.00 | 0.00 | 0.00 | 73 | 1001.2 |
| 20260507181404 | 12 | 223 | 11.3 | 22.5 | 0.00 | 0.00 | 0.00 | 72 | 1001.3 |
| 20260507181305 | 12 | 224 | 11.3 | 22.5 | 0.00 | 0.00 | 0.00 | 72 | 1001.3 |
| 20260507181204 | 12 | 226 | 11.3 | 22.5 | 0.00 | 0.00 | 0.00 | 71 | 1001.4 |
| 20260507181125 | 12 | 225 | 11.3 | 22.5 | 0.00 | 0.00 | 0.00 | 71 | 1001.3 |
| 20260507181004 | 12 | 226 | 11.3 | 22.5 | 0.00 | 0.00 | 0.00 | 71 | 1001.4 |
| 20260507180904 | 12 | 224 | 11.3 | 22.5 | 0.00 | 0.00 | 0.00 | 71 | 1001.3 |
| 20260507180804 | 12 | 226 | 11.3 | 22.5 | 0.00 | 0.00 | 0.00 | 72 | 1001.3 |
| 20260507180704 | 12 | 226 | 11.3 | 22.5 | 0.00 | 0.00 | 0.00 | 71 | 1001.1 |
| 20260507180604 | 12 | 225 | 11.3 | 22.5 | 0.00 | 0.00 | 0.00 | 72 | 1001.1 |
| 20260507180504 | 12 | 222 | 11.3 | 22.5 | 0.00 | 0.00 | 0.00 | 73 | 1001.3 |
| 20260507180425 | 12 | 221 | 11.3 | 22.5 | 0.00 | 0.00 | 0.00 | 71 | 1001.3 |
| 20260507180304 | 12 | 219 | 11.3 | 22.5 | 0.00 | 0.00 | 0.00 | 71 | 1001.3 |
| 20260507180204 | 12 | 217 | 11.3 | 22.5 | 0.00 | 0.00 | 0.00 | 71 | 1001.2 |
| 20260507180104 | 12 | 219 | 11.3 | 22.5 | 0.00 | 0.00 | 0.00 | 72 | 1001.4 |
| 20260507180004 | 12 | 220 | 11.3 | 22.5 | 0.00 | 0.00 | 0.00 | 72 | 1001.2 |
| 20260507175904 | 12 | 221 | 11.3 | 22.5 | 0.00 | 0.00 | 0.00 | 72 | 1001.2 |
| 20260507175825 | 12 | 224 | 11.3 | 22.5 | 0.00 | 0.00 | 0.00 | 73 | 1001.2 |
| 20260507175704 | 12 | 227 | 11.3 | 22.5 | 0.00 | 0.00 | 0.00 | 73 | 1001.2 |
| 20260507175604 | 12 | 226 | 12.9 | 22.5 | 0.00 | 0.00 | 0.00 | 73 | 1001.3 |
| 20260507175504 | 12 | 227 | 12.9 | 22.5 | 0.00 | 0.00 | 0.00 | 72 | 1001.4 |
| 20260507175404 | 12 | 225 | 12.9 | 22.5 | 0.00 | 0.00 | 0.00 | 72 | 1001.3 |
| 20260507175307 | 12 | 224 | 12.9 | 22.5 | 0.00 | 0.00 | 0.00 | 72 | 1001.1 |
| 20260507175204 | 12 | 225 | 12.9 | 22.5 | 0.00 | 0.00 | 0.00 | 73 | 1001.4 |
| 20260507175125 | 12 | 223 | 12.9 | 22.5 | 0.00 | 0.00 | 0.00 | 72 | 1001.4 |
| 20260507175004 | 12 | 221 | 12.9 | 24.1 | 0.00 | 0.00 | 0.00 | 73 | 1001.3 |
| 20260507174904 | 12 | 219 | 12.9 | 24.1 | 0.00 | 0.00 | 0.00 | 73 | 1001.2 |
| 20260507174804 | 12 | 217 | 12.9 | 24.1 | 0.00 | 0.00 | 0.00 | 73 | 1001.1 |
| 20260507174704 | 12 | 218 | 12.9 | 24.1 | 0.00 | 0.00 | 0.00 | 73 | 1001.2 |
| 20260507174625 | 12 | 221 | 12.9 | 24.1 | 0.00 | 0.00 | 0.00 | 74 | 1001.2 |
| 20260507174504 | 12 | 221 | 12.9 | 24.1 | 0.00 | 0.00 | 0.00 | 73 | 1001.2 |
| 20260507174404 | 12 | 224 | 12.9 | 24.1 | 0.00 | 0.00 | 0.00 | 73 | 1001.3 |
| 20260507174304 | 12 | 227 | 12.9 | 24.1 | 0.00 | 0.00 | 0.00 | 73 | 1001.3 |
| 20260507174204 | 12 | 230 | 12.9 | 24.1 | 0.00 | 0.00 | 0.00 | 74 | 1001.3 |
| 20260507174125 | 12 | 232 | 12.9 | 24.1 | 0.00 | 0.00 | 0.00 | 74 | 1001.3 |
| 20260507174004 | 12 | 231 | 12.9 | 24.1 | 0.00 | 0.00 | 0.00 | 75 | 1001.5 |
| 20260507173904 | 12 | 234 | 11.3 | 24.1 | 0.00 | 0.00 | 0.00 | 76 | 1001.1 |
| 20260507173804 | 12 | 236 | 11.3 | 24.1 | 0.00 | 0.00 | 0.00 | 74 | 1001.2 |
| 20260507173704 | 12 | 233 | 11.3 | 24.1 | 0.00 | 0.00 | 0.00 | 74 | 1001.4 |
| 20260507173604 | 12 | 227 | 11.3 | 24.1 | 0.00 | 0.00 | 0.00 | 75 | 1001.3 |
| 20260507173504 | 12 | 228 | 9.7 | 24.1 | 0.00 | 0.00 | 0.00 | 75 | 1001.2 |
| 20260507173404 | 12 | 226 | 9.7 | 24.1 | 0.00 | 0.00 | 0.00 | 75 | 1001.4 |
| 20260507173325 | 12 | 224 | 9.7 | 24.1 | 0.00 | 0.00 | 0.00 | 76 | 1001.4 |
| 20260507173204 | 12 | 221 | 11.3 | 24.1 | 0.00 | 0.00 | 0.00 | 76 | 1001.2 |
| 20260507173104 | 12 | 218 | 11.3 | 24.1 | 0.00 | 0.00 | 0.00 | 75 | 1001.4 |
| 20260507173005 | 12 | 220 | 11.3 | 22.5 | 0.00 | 0.00 | 0.00 | 75 | 1001.4 |
| 20260507172904 | 12 | 223 | 11.3 | 22.5 | 0.00 | 0.00 | 0.00 | 76 | 1001.3 |
| 20260507172804 | 12 | 220 | 11.3 | 22.5 | 0.00 | 0.00 | 0.00 | 76 | 1001.6 |
| 20260507172704 | 12 | 219 | 11.3 | 22.5 | 0.00 | 0.00 | 0.00 | 76 | 1001.5 |
| 20260507172604 | 12 | 220 | 11.3 | 22.5 | 0.00 | 0.00 | 0.00 | 76 | 1001.2 |
| 20260507172504 | 12 | 219 | 11.3 | 22.5 | 0.00 | 0.00 | 0.00 | 75 | 1001.4 |
| 20260507172404 | 12 | 219 | 11.3 | 22.5 | 0.00 | 0.00 | 0.00 | 75 | 1001.4 |
| 20260507172307 | 12 | 222 | 11.3 | 22.5 | 0.00 | 0.00 | 0.00 | 76 | 1001.4 |
| 20260507172225 | 12 | 224 | 11.3 | 22.5 | 0.00 | 0.00 | 0.00 | 75 | 1001.4 |
| 20260507172104 | 12 | 225 | 11.3 | 24.1 | 0.00 | 0.00 | 0.00 | 75 | 1001.5 |
| 20260507172004 | 12 | 226 | 11.3 | 24.1 | 0.00 | 0.00 | 0.00 | 74 | 1001.5 |
| 20260507171905 | 12 | 225 | 11.3 | 24.1 | 0.00 | 0.00 | 0.00 | 75 | 1001.3 |
| 20260507171804 | 12 | 226 | 11.3 | 24.1 | 0.00 | 0.00 | 0.00 | 75 | 1001.2 |
| 20260507171704 | 12 | 232 | 12.9 | 24.1 | 0.00 | 0.00 | 0.00 | 76 | 1001.3 |
| 20260507171604 | 12 | 235 | 12.9 | 24.1 | 0.00 | 0.00 | 0.00 | 75 | 1001.6 |
| 20260507171504 | 12 | 238 | 12.9 | 24.1 | 0.00 | 0.00 | 0.00 | 74 | 1001.3 |
| 20260507171404 | 12 | 238 | 12.9 | 24.1 | 0.00 | 0.00 | 0.00 | 75 | 1001.6 |
| 20260507171304 | 12 | 238 | 12.9 | 24.1 | 0.00 | 0.00 | 0.00 | 75 | 1001.4 |
| 20260507171225 | 12 | 235 | 12.9 | 24.1 | 0.00 | 0.00 | 0.00 | 75 | 1001.4 |
| 20260507171104 | 12 | 238 | 12.9 | 24.1 | 0.00 | 0.00 | 0.00 | 74 | 1001.5 |
| 20260507171004 | 12 | 237 | 12.9 | 20.9 | 0.00 | 0.00 | 0.00 | 76 | 1001.3 |
| 20260507170904 | 12 | 237 | 12.9 | 25.7 | 0.00 | 0.00 | 0.00 | 74 | 1001.5 |
| 20260507170804 | 12 | 239 | 12.9 | 25.7 | 0.00 | 0.00 | 0.00 | 75 | 1001.6 |
| 20260507170704 | 12 | 236 | 12.9 | 25.7 | 0.00 | 0.00 | 0.00 | 76 | 1001.5 |
| 20260507170604 | 12 | 235 | 12.9 | 25.7 | 0.00 | 0.00 | 0.00 | 76 | 1001.5 |
| 20260507170504 | 12 | 234 | 12.9 | 25.7 | 0.00 | 0.00 | 0.00 | 76 | 1001.5 |
| 20260507170425 | 12 | 234 | 12.9 | 25.7 | 0.00 | 0.00 | 0.00 | 75 | 1001.5 |
| 20260507170304 | 12 | 233 | 12.9 | 25.7 | 0.00 | 0.00 | 0.00 | 77 | 1001.5 |
| 20260507170225 | 12 | 235 | 14.5 | 25.7 | 0.00 | 0.00 | 0.00 | 76 | 1001.5 |
| 20260507170104 | 12 | 236 | 14.5 | 25.7 | 0.00 | 0.00 | 0.00 | 76 | 1001.5 |
| 20260507170005 | 12 | 237 | 14.5 | 25.7 | 0.00 | 0.00 | 0.00 | 76 | 1001.6 |
| 20260507165904 | 12 | 239 | 14.5 | 25.7 | 0.00 | 0.00 | 0.00 | 76 | 1001.6 |
| 20260507165804 | 12 | 241 | 14.5 | 24.1 | 0.00 | 0.00 | 0.00 | 75 | 1001.4 |
| 20260507165704 | 12 | 242 | 12.9 | 24.1 | 0.00 | 0.00 | 0.00 | 75 | 1001.5 |
| 20260507165604 | 12 | 243 | 12.9 | 24.1 | 0.00 | 0.00 | 0.00 | 76 | 1001.8 |
| 20260507165504 | 12 | 244 | 12.9 | 24.1 | 0.00 | 0.00 | 0.00 | 75 | 1001.6 |
| 20260507165404 | 12 | 242 | 12.9 | 24.1 | 0.00 | 0.00 | 0.00 | 75 | 1001.7 |
| 20260507165306 | 12 | 242 | 12.9 | 24.1 | 0.00 | 0.00 | 0.00 | 76 | 1001.4 |
| 20260507165225 | 12 | 242 | 12.9 | 24.1 | 0.00 | 0.00 | 0.00 | 76 | 1001.4 |
| 20260507165104 | 12 | 238 | 12.9 | 29.0 | 0.00 | 0.00 | 0.00 | 76 | 1001.6 |
| 20260507165004 | 12 | 240 | 12.9 | 29.0 | 0.00 | 0.00 | 0.00 | 76 | 1001.6 |
| 20260507164904 | 12 | 240 | 12.9 | 29.0 | 0.00 | 0.00 | 0.00 | 76 | 1001.5 |
| 20260507164825 | 12 | 240 | 12.9 | 29.0 | 0.00 | 0.00 | 0.00 | 78 | 1001.5 |
| 20260507164704 | 12 | 243 | 12.9 | 29.0 | 0.00 | 0.00 | 0.00 | 77 | 1001.6 |
| 20260507164604 | 12 | 243 | 12.9 | 29.0 | 0.00 | 0.00 | 0.00 | 76 | 1001.6 |
| 20260507164504 | 12 | 246 | 12.9 | 29.0 | 0.00 | 0.00 | 0.00 | 75 | 1001.6 |
| 20260507164404 | 12 | 247 | 12.9 | 29.0 | 0.00 | 0.00 | 0.00 | 76 | 1001.6 |
| 20260507164325 | 12 | 250 | 12.9 | 29.0 | 0.00 | 0.00 | 0.00 | 76 | 1001.6 |
| 20260507164204 | 12 | 251 | 12.9 | 29.0 | 0.00 | 0.00 | 0.00 | 76 | 1001.8 |
| 20260507164104 | 12 | 255 | 14.5 | 29.0 | 0.00 | 0.00 | 0.00 | 75 | 1001.5 |
| 20260507164025 | 12 | 257 | 12.9 | 24.1 | 0.00 | 0.00 | 0.00 | 76 | 1001.5 |
| 20260507163904 | 12 | 254 | 12.9 | 24.1 | 0.00 | 0.00 | 0.00 | 78 | 1001.5 |
| 20260507163804 | 12 | 251 | 14.5 | 24.1 | 0.00 | 0.00 | 0.00 | 76 | 1001.6 |
| 20260507163704 | 12 | 252 | 14.5 | 24.1 | 0.00 | 0.00 | 0.00 | 77 | 1001.7 |
| 20260507163604 | 12 | 250 | 14.5 | 24.1 | 0.00 | 0.00 | 0.00 | 77 | 1001.6 |
| 20260507163504 | 12 | 248 | 14.5 | 24.1 | 0.00 | 0.00 | 0.00 | 76 | 1001.6 |
| 20260507163404 | 12 | 247 | 14.5 | 24.1 | 0.00 | 0.00 | 0.00 | 77 | 1001.6 |
| 20260507163325 | 12 | 246 | 12.9 | 24.1 | 0.00 | 0.00 | 0.00 | 77 | 1001.6 |
| 20260507163204 | 12 | 244 | 12.9 | 25.7 | 0.00 | 0.00 | 0.00 | 75 | 1001.5 |
| 20260507163104 | 12 | 242 | 12.9 | 25.7 | 0.00 | 0.00 | 0.00 | 76 | 1001.5 |
| 20260507163004 | 12 | 242 | 12.9 | 25.7 | 0.00 | 0.00 | 0.00 | 75 | 1001.6 |
| 20260507162925 | 12 | 242 | 12.9 | 25.7 | 0.00 | 0.00 | 0.00 | 76 | 1001.6 |
| 20260507162804 | 12 | 243 | 12.9 | 25.7 | 0.00 | 0.00 | 0.00 | 77 | 1001.7 |
| 20260507162704 | 12 | 240 | 12.9 | 25.7 | 0.00 | 0.00 | 0.00 | 76 | 1001.5 |
| 20260507162604 | 12 | 241 | 12.9 | 25.7 | 0.00 | 0.00 | 0.00 | 75 | 1001.7 |
| 20260507162504 | 12 | 242 | 12.9 | 25.7 | 0.00 | 0.00 | 0.00 | 76 | 1001.6 |
| 20260507162404 | 12 | 244 | 12.9 | 25.7 | 0.00 | 0.00 | 0.00 | 77 | 1001.4 |
| 20260507162307 | 12 | 243 | 12.9 | 25.7 | 0.00 | 0.00 | 0.00 | 76 | 1001.7 |
| 20260507162204 | 12 | 244 | 12.9 | 25.7 | 0.00 | 0.00 | 0.00 | 76 | 1001.7 |
| 20260507162125 | 12 | 244 | 12.9 | 25.7 | 0.00 | 0.00 | 0.00 | 76 | 1001.7 |
| 20260507162025 | 12 | 245 | 12.9 | 22.5 | 0.00 | 0.00 | 0.00 | 77 | 1001.6 |
| 20260507161904 | 12 | 247 | 12.9 | 22.5 | 0.00 | 0.00 | 0.00 | 76 | 1001.7 |
| 20260507161804 | 12 | 249 | 12.9 | 22.5 | 0.00 | 0.00 | 0.00 | 78 | 1001.6 |
| 20260507161704 | 12 | 250 | 12.9 | 22.5 | 0.00 | 0.00 | 0.00 | 77 | 1001.5 |
| 20260507161625 | 12 | 250 | 12.9 | 22.5 | 0.00 | 0.00 | 0.00 | 77 | 1001.5 |
| 20260507161504 | 12 | 251 | 12.9 | 22.5 | 0.00 | 0.00 | 0.00 | 77 | 1001.6 |
| 20260507161425 | 12 | 250 | 12.9 | 22.5 | 0.00 | 0.00 | 0.00 | 77 | 1001.6 |
| 20260507161304 | 12 | 252 | 11.3 | 22.5 | 0.00 | 0.00 | 0.00 | 77 | 1001.5 |
| 20260507161225 | 12 | 253 | 11.3 | 22.5 | 0.00 | 0.00 | 0.00 | 77 | 1001.5 |
| 20260507161104 | 12 | 253 | 11.3 | 22.5 | 0.00 | 0.00 | 0.00 | 77 | 1001.7 |
| 20260507161004 | 12 | 252 | 11.3 | 22.5 | 0.00 | 0.00 | 0.00 | 77 | 1001.7 |
| 20260507160925 | 12 | 251 | 11.3 | 22.5 | 0.00 | 0.00 | 0.00 | 78 | 1001.7 |
| 20260507160804 | 12 | 250 | 11.3 | 22.5 | 0.00 | 0.00 | 0.00 | 76 | 1001.6 |
| 20260507160704 | 12 | 249 | 11.3 | 22.5 | 0.00 | 0.00 | 0.00 | 77 | 1001.7 |
| 20260507160604 | 12 | 247 | 11.3 | 22.5 | 0.00 | 0.00 | 0.00 | 77 | 1001.7 |
| 20260507160504 | 12 | 245 | 11.3 | 22.5 | 0.00 | 0.00 | 0.00 | 77 | 1001.7 |
| 20260507160404 | 12 | 244 | 11.3 | 22.5 | 0.00 | 0.00 | 0.00 | 77 | 1001.7 |
| 20260507160304 | 12 | 244 | 11.3 | 22.5 | 0.00 | 0.00 | 0.00 | 77 | 1001.6 |
| 20260507160204 | 12 | 244 | 11.3 | 22.5 | 0.00 | 0.00 | 0.00 | 77 | 1001.8 |
| 20260507160104 | 12 | 244 | 12.9 | 22.5 | 0.00 | 0.00 | 0.00 | 76 | 1001.7 |
| 20260507160004 | 12 | 247 | 12.9 | 20.9 | 0.00 | 0.00 | 0.00 | 77 | 1002.0 |
| 20260507155925 | 12 | 247 | 12.9 | 20.9 | 0.00 | 0.00 | 0.00 | 77 | 1002.0 |
| 20260507155804 | 12 | 246 | 12.9 | 24.1 | 0.00 | 0.00 | 0.00 | 76 | 1001.6 |
| 20260507155725 | 12 | 247 | 12.9 | 24.1 | 0.00 | 0.00 | 0.00 | 76 | 1001.6 |
| 20260507155604 | 12 | 246 | 12.9 | 24.1 | 0.00 | 0.00 | 0.00 | 76 | 1001.6 |
| 20260507155525 | 12 | 250 | 12.9 | 24.1 | 0.00 | 0.00 | 0.00 | 77 | 1001.6 |
| 20260507155425 | 12 | 250 | 12.9 | 24.1 | 0.00 | 0.00 | 0.00 | 76 | 1001.8 |
| 20260507155325 | 12 | 249 | 12.9 | 24.1 | 0.00 | 0.00 | 0.00 | 77 | 1001.7 |
| 20260507155204 | 12 | 246 | 12.9 | 24.1 | 0.00 | 0.00 | 0.00 | 76 | 1001.7 |
| 20260507155104 | 12 | 245 | 12.9 | 24.1 | 0.00 | 0.00 | 0.00 | 77 | 1001.6 |
| 20260507155004 | 12 | 243 | 12.9 | 24.1 | 0.00 | 0.00 | 0.00 | 77 | 1001.7 |
| 20260507154904 | 12 | 242 | 12.9 | 24.1 | 0.00 | 0.00 | 0.00 | 76 | 1001.6 |
| 20260507154804 | 12 | 241 | 12.9 | 24.1 | 0.00 | 0.00 | 0.00 | 76 | 1001.6 |
| 20260507154704 | 12 | 240 | 11.3 | 22.5 | 0.00 | 0.00 | 0.00 | 77 | 1001.6 |
| 20260507154604 | 12 | 242 | 11.3 | 22.5 | 0.00 | 0.00 | 0.00 | 77 | 1001.5 |
| 20260507154504 | 12 | 241 | 11.3 | 22.5 | 0.00 | 0.00 | 0.00 | 77 | 1001.6 |
| 20260507154404 | 12 | 242 | 11.3 | 22.5 | 0.00 | 0.00 | 0.00 | 76 | 1001.9 |
| 20260507154304 | 12 | 244 | 11.3 | 22.5 | 0.00 | 0.00 | 0.00 | 77 | 1001.6 |
| 20260507154204 | 12 | 243 | 12.9 | 22.5 | 0.00 | 0.00 | 0.00 | 76 | 1001.9 |
| 20260507154104 | 12 | 241 | 12.9 | 22.5 | 0.00 | 0.00 | 0.00 | 76 | 1001.6 |
| 20260507154005 | 12 | 237 | 12.9 | 22.5 | 0.00 | 0.00 | 0.00 | 76 | 1001.7 |
| 20260507153904 | 12 | 233 | 12.9 | 22.5 | 0.00 | 0.00 | 0.00 | 76 | 1001.8 |
| 20260507153804 | 12 | 233 | 12.9 | 22.5 | 0.00 | 0.00 | 0.00 | 76 | 1001.6 |
| 20260507153705 | 12 | 231 | 12.9 | 24.1 | 0.00 | 0.00 | 0.00 | 76 | 1001.7 |
| 20260507153625 | 12 | 230 | 12.9 | 24.1 | 0.00 | 0.00 | 0.00 | 76 | 1001.7 |
| 20260507153504 | 12 | 232 | 12.9 | 24.1 | 0.00 | 0.00 | 0.00 | 76 | 1001.8 |
| 20260507153404 | 12 | 230 | 12.9 | 24.1 | 0.00 | 0.00 | 0.00 | 76 | 1001.8 |
| 20260507153304 | 12 | 229 | 12.9 | 24.1 | 0.00 | 0.00 | 0.00 | 76 | 1001.7 |
| 20260507153204 | 12 | 224 | 12.9 | 24.1 | 0.00 | 0.00 | 0.00 | 76 | 1001.7 |
| 20260507153104 | 12 | 226 | 12.9 | 24.1 | 0.00 | 0.00 | 0.00 | 77 | 1001.9 |
| 20260507153004 | 12 | 228 | 12.9 | 24.1 | 0.00 | 0.00 | 0.00 | 77 | 1001.8 |
| 20260507152904 | 12 | 235 | 11.3 | 24.1 | 0.00 | 0.00 | 0.00 | 77 | 1001.7 |
| 20260507152804 | 12 | 231 | 11.3 | 24.1 | 0.00 | 0.00 | 0.00 | 77 | 1002.0 |
| 20260507152725 | 12 | 231 | 11.3 | 24.1 | 0.00 | 0.00 | 0.00 | 76 | 1002.0 |
| 20260507152604 | 12 | 236 | 11.3 | 24.1 | 0.00 | 0.00 | 0.00 | 76 | 1001.8 |
| 20260507152504 | 12 | 238 | 12.9 | 25.7 | 0.00 | 0.00 | 0.00 | 76 | 1001.9 |
| 20260507152404 | 12 | 236 | 12.9 | 25.7 | 0.00 | 0.00 | 0.00 | 77 | 1001.8 |
| 20260507152306 | 12 | 238 | 12.9 | 25.7 | 0.00 | 0.00 | 0.00 | 76 | 1001.9 |
| 20260507152204 | 12 | 244 | 12.9 | 25.7 | 0.00 | 0.00 | 0.00 | 77 | 1001.8 |
| 20260507152106 | 12 | 243 | 14.5 | 25.7 | 0.00 | 0.00 | 0.00 | 77 | 1001.7 |
| 20260507152004 | 12 | 244 | 14.5 | 27.4 | 0.00 | 0.00 | 0.00 | 76 | 1002.0 |
| 20260507151904 | 12 | 241 | 14.5 | 27.4 | 0.00 | 0.00 | 0.00 | 75 | 1001.9 |
| 20260507151804 | 12 | 243 | 16.1 | 27.4 | 0.00 | 0.00 | 0.00 | 78 | 1001.6 |
| 20260507151704 | 12 | 244 | 14.5 | 27.4 | 0.00 | 0.00 | 0.00 | 76 | 1001.7 |
| 20260507151604 | 12 | 241 | 14.5 | 27.4 | 0.00 | 0.00 | 0.00 | 76 | 1001.7 |
| 20260507151504 | 12 | 236 | 14.5 | 27.4 | 0.00 | 0.00 | 0.00 | 75 | 1001.7 |
| 20260507151404 | 12 | 234 | 14.5 | 27.4 | 0.00 | 0.00 | 0.00 | 75 | 1001.7 |
| 20260507151304 | 12 | 232 | 14.5 | 27.4 | 0.00 | 0.00 | 0.00 | 77 | 1001.9 |
| 20260507151204 | 12 | 229 | 12.9 | 27.4 | 0.00 | 0.00 | 0.00 | 76 | 1001.7 |
| 20260507151104 | 12 | 227 | 12.9 | 27.4 | 0.00 | 0.00 | 0.00 | 76 | 1001.9 |
| 20260507151004 | 12 | 226 | 12.9 | 27.4 | 0.00 | 0.00 | 0.00 | 75 | 1001.9 |
| 20260507150904 | 12 | 227 | 12.9 | 25.7 | 0.00 | 0.00 | 0.00 | 76 | 1001.9 |
| 20260507150804 | 12 | 227 | 12.9 | 25.7 | 0.00 | 0.00 | 0.00 | 78 | 1001.6 |
| 20260507150704 | 12 | 227 | 12.9 | 25.7 | 0.00 | 0.00 | 0.00 | 77 | 1001.8 |
| 20260507150604 | 12 | 225 | 12.9 | 25.7 | 0.00 | 0.00 | 0.00 | 76 | 1001.6 |
| 20260507150504 | 12 | 223 | 12.9 | 25.7 | 0.00 | 0.00 | 0.00 | 76 | 1001.9 |
| 20260507150404 | 12 | 225 | 11.3 | 22.5 | 0.00 | 0.00 | 0.00 | 76 | 1002.0 |
| 20260507150325 | 12 | 226 | 11.3 | 22.5 | 0.00 | 0.00 | 0.00 | 78 | 1002.0 |
| 20260507150204 | 12 | 226 | 11.3 | 25.7 | 0.00 | 0.00 | 0.00 | 79 | 1001.9 |
| 20260507150104 | 12 | 223 | 11.3 | 25.7 | 0.00 | 0.00 | 0.00 | 78 | 1002.1 |
| 20260507150005 | 12 | 226 | 12.9 | 25.7 | 0.00 | 0.00 | 0.00 | 77 | 1001.8 |
| 20260507145904 | 12 | 226 | 11.3 | 25.7 | 0.00 | 0.00 | 0.00 | 78 | 1001.6 |
| 20260507145804 | 12 | 226 | 11.3 | 25.7 | 0.00 | 0.00 | 0.00 | 78 | 1001.8 |
| 20260507145725 | 12 | 225 | 11.3 | 25.7 | 0.00 | 0.00 | 0.00 | 77 | 1001.8 |
| 20260507145604 | 12 | 228 | 11.3 | 25.7 | 0.00 | 0.00 | 0.00 | 77 | 1001.9 |
| 20260507145504 | 12 | 232 | 11.3 | 25.7 | 0.00 | 0.00 | 0.00 | 78 | 1001.8 |
| 20260507145404 | 11 | 232 | 11.3 | 25.7 | 0.00 | 0.00 | 0.00 | 79 | 1001.9 |
| 20260507145306 | 11 | 233 | 11.3 | 25.7 | 0.00 | 0.00 | 0.00 | 79 | 1001.9 |
| 20260507145204 | 11 | 232 | 12.9 | 25.7 | 0.00 | 0.00 | 0.00 | 77 | 1001.8 |
| 20260507145125 | 11 | 234 | 11.3 | 25.7 | 0.00 | 0.00 | 0.00 | 77 | 1001.8 |
| 20260507145004 | 11 | 235 | 11.3 | 22.5 | 0.00 | 0.00 | 0.00 | 77 | 1002.0 |
| 20260507144904 | 11 | 234 | 11.3 | 22.5 | 0.00 | 0.00 | 0.00 | 79 | 1001.9 |
| 20260507144825 | 11 | 233 | 11.3 | 22.5 | 0.00 | 0.00 | 0.00 | 80 | 1001.9 |
| 20260507144704 | 11 | 234 | 11.3 | 22.5 | 0.00 | 0.00 | 0.00 | 79 | 1001.9 |
| 20260507144604 | 11 | 233 | 11.3 | 22.5 | 0.00 | 0.00 | 0.00 | 79 | 1001.9 |
| 20260507144504 | 11 | 235 | 11.3 | 22.5 | 0.00 | 0.00 | 0.00 | 78 | 1001.9 |
| 20260507144404 | 11 | 233 | 11.3 | 20.9 | 0.00 | 0.00 | 0.00 | 80 | 1002.0 |
| 20260507144304 | 11 | 230 | 11.3 | 17.7 | 0.00 | 0.00 | 0.00 | 79 | 1002.0 |
| 20260507144225 | 11 | 230 | 9.7 | 17.7 | 0.00 | 0.00 | 0.00 | 81 | 1002.0 |
| 20260507144104 | 11 | 232 | 9.7 | 17.7 | 0.00 | 0.00 | 0.00 | 80 | 1001.8 |
| 20260507144004 | 11 | 231 | 9.7 | 17.7 | 0.00 | 0.00 | 0.00 | 81 | 1002.2 |
| 20260507143904 | 11 | 233 | 9.7 | 17.7 | 0.00 | 0.00 | 0.00 | 81 | 1001.8 |
| 20260507143804 | 11 | 235 | 9.7 | 17.7 | 0.00 | 0.00 | 0.00 | 81 | 1001.9 |
| 20260507143725 | 11 | 234 | 9.7 | 17.7 | 0.00 | 0.00 | 0.00 | 82 | 1001.9 |
| 20260507143604 | 11 | 233 | 9.7 | 17.7 | 0.00 | 0.00 | 0.00 | 82 | 1001.9 |
| 20260507143525 | 11 | 230 | 9.7 | 17.7 | 0.00 | 0.00 | 0.00 | 82 | 1001.9 |
| 20260507143404 | 11 | 233 | 9.7 | 17.7 | 0.00 | 0.00 | 0.00 | 82 | 1002.0 |
| 20260507143304 | 11 | 236 | 9.7 | 17.7 | 0.00 | 0.00 | 0.00 | 82 | 1002.1 |
| 20260507143204 | 11 | 236 | 9.7 | 17.7 | 0.00 | 0.00 | 0.00 | 82 | 1002.1 |
| 20260507143104 | 10 | 238 | 9.7 | 17.7 | 0.00 | 0.00 | 0.00 | 82 | 1002.1 |
| 20260507143004 | 10 | 236 | 9.7 | 17.7 | 0.00 | 0.00 | 0.00 | 82 | 1001.9 |
| 20260507142904 | 10 | 235 | 9.7 | 17.7 | 0.00 | 0.00 | 0.00 | 82 | 1001.9 |
| 20260507142804 | 10 | 236 | 9.7 | 20.9 | 0.00 | 0.00 | 0.00 | 82 | 1002.0 |
| 20260507142704 | 10 | 238 | 9.7 | 20.9 | 0.00 | 0.00 | 0.00 | 83 | 1001.9 |
| 20260507142604 | 10 | 241 | 9.7 | 20.9 | 0.00 | 0.00 | 0.00 | 83 | 1002.1 |
| 20260507142504 | 10 | 241 | 9.7 | 20.9 | 0.00 | 0.00 | 0.00 | 83 | 1002.1 |
| 20260507142404 | 10 | 241 | 9.7 | 20.9 | 0.00 | 0.00 | 0.00 | 83 | 1002.1 |
| 20260507142325 | 10 | 240 | 9.7 | 20.9 | 0.00 | 0.00 | 0.00 | 83 | 1002.1 |
| 20260507142204 | 10 | 242 | 9.7 | 20.9 | 0.00 | 0.00 | 0.00 | 83 | 1001.9 |
| 20260507142125 | 10 | 239 | 9.7 | 20.9 | 0.00 | 0.00 | 0.00 | 82 | 1001.9 |
| 20260507142004 | 10 | 233 | 9.7 | 22.5 | 0.00 | 0.00 | 0.00 | 82 | 1002.1 |
| 20260507141925 | 10 | 234 | 9.7 | 22.5 | 0.00 | 0.00 | 0.00 | 82 | 1002.1 |
| 20260507141804 | 10 | 229 | 9.7 | 22.5 | 0.00 | 0.00 | 0.00 | 81 | 1002.2 |
| 20260507141725 | 11 | 229 | 9.7 | 22.5 | 0.00 | 0.00 | 0.00 | 79 | 1002.2 |
| 20260507141625 | 11 | 230 | 9.7 | 22.5 | 0.00 | 0.00 | 0.00 | 79 | 1002.3 |
| 20260507141504 | 11 | 229 | 9.7 | 22.5 | 0.00 | 0.00 | 0.00 | 80 | 1002.4 |
| 20260507141425 | 11 | 229 | 11.3 | 22.5 | 0.00 | 0.00 | 0.00 | 79 | 1002.4 |
| 20260507141325 | 10 | 231 | 11.3 | 22.5 | 0.00 | 0.00 | 0.00 | 78 | 1002.2 |
| 20260507141204 | 10 | 231 | 11.3 | 22.5 | 0.00 | 0.00 | 0.00 | 77 | 1002.4 |
| 20260507141104 | 10 | 232 | 11.3 | 22.5 | 0.00 | 0.00 | 0.00 | 77 | 1002.4 |
| 20260507141004 | 10 | 236 | 11.3 | 22.5 | 0.00 | 0.00 | 0.00 | 78 | 1002.2 |
| 20260507140904 | 10 | 236 | 11.3 | 20.9 | 0.00 | 0.00 | 0.00 | 79 | 1002.2 |
| 20260507140804 | 10 | 238 | 11.3 | 20.9 | 0.00 | 0.00 | 0.00 | 78 | 1002.3 |
| 20260507140725 | 10 | 238 | 11.3 | 20.9 | 0.00 | 0.00 | 0.00 | 78 | 1002.3 |
| 20260507140604 | 11 | 235 | 11.3 | 20.9 | 0.00 | 0.00 | 0.00 | 79 | 1002.4 |
| 20260507140504 | 11 | 233 | 11.3 | 20.9 | 0.00 | 0.00 | 0.00 | 78 | 1002.5 |
| 20260507140404 | 11 | 234 | 11.3 | 20.9 | 0.00 | 0.00 | 0.00 | 79 | 1002.4 |
| 20260507140304 | 11 | 231 | 11.3 | 20.9 | 0.00 | 0.00 | 0.00 | 79 | 1002.4 |
| 20260507140204 | 11 | 229 | 11.3 | 20.9 | 0.00 | 0.00 | 0.00 | 79 | 1002.3 |
| 20260507140125 | 11 | 230 | 11.3 | 20.9 | 0.00 | 0.00 | 0.00 | 80 | 1002.3 |
| 20260507140005 | 11 | 228 | 9.7 | 17.7 | 0.00 | 0.00 | 0.00 | 80 | 1002.3 |
| 20260507135904 | 11 | 229 | 11.3 | 17.7 | 0.00 | 0.00 | 0.00 | 80 | 1002.3 |
| 20260507135804 | 10 | 230 | 11.3 | 17.7 | 0.00 | 0.00 | 0.00 | 80 | 1002.4 |
| 20260507135704 | 10 | 233 | 11.3 | 17.7 | 0.00 | 0.00 | 0.00 | 80 | 1002.4 |
| 20260507135625 | 10 | 232 | 11.3 | 17.7 | 0.00 | 0.00 | 0.00 | 80 | 1002.4 |
| 20260507135504 | 10 | 233 | 11.3 | 17.7 | 0.00 | 0.00 | 0.00 | 79 | 1002.3 |
| 20260507135404 | 10 | 231 | 11.3 | 17.7 | 0.00 | 0.00 | 0.00 | 79 | 1002.1 |
| 20260507135306 | 10 | 234 | 11.3 | 17.7 | 0.00 | 0.00 | 0.00 | 79 | 1002.5 |
| 20260507135204 | 10 | 235 | 9.7 | 17.7 | 0.00 | 0.00 | 0.00 | 79 | 1002.3 |
| 20260507135104 | 10 | 233 | 9.7 | 17.7 | 0.00 | 0.00 | 0.00 | 80 | 1002.3 |
| 20260507135004 | 10 | 232 | 9.7 | 17.7 | 0.00 | 0.00 | 0.00 | 80 | 1002.4 |
| 20260507134904 | 10 | 234 | 9.7 | 17.7 | 0.00 | 0.00 | 0.00 | 80 | 1002.6 |
| 20260507134804 | 10 | 236 | 9.7 | 17.7 | 0.00 | 0.00 | 0.00 | 81 | 1002.3 |
| 20260507134704 | 10 | 237 | 9.7 | 17.7 | 0.00 | 0.00 | 0.00 | 81 | 1002.6 |
| 20260507134604 | 10 | 243 | 9.7 | 24.1 | 0.00 | 0.00 | 0.00 | 81 | 1002.3 |
| 20260507134504 | 10 | 245 | 11.3 | 24.1 | 0.00 | 0.00 | 0.00 | 81 | 1002.5 |
| 20260507134404 | 10 | 249 | 11.3 | 24.1 | 0.00 | 0.00 | 0.00 | 81 | 1002.4 |
| 20260507134304 | 10 | 247 | 11.3 | 24.1 | 0.00 | 0.00 | 0.00 | 80 | 1002.5 |
| 20260507134204 | 10 | 248 | 11.3 | 24.1 | 0.00 | 0.00 | 0.00 | 81 | 1002.3 |
| 20260507134104 | 10 | 248 | 11.3 | 24.1 | 0.00 | 0.00 | 0.00 | 80 | 1002.4 |
| 20260507134004 | 10 | 253 | 11.3 | 24.1 | 0.00 | 0.00 | 0.00 | 80 | 1002.5 |
| 20260507133904 | 10 | 254 | 11.3 | 24.1 | 0.00 | 0.00 | 0.00 | 79 | 1002.6 |
| 20260507133804 | 10 | 253 | 11.3 | 24.1 | 0.00 | 0.00 | 0.00 | 80 | 1002.5 |
| 20260507133704 | 10 | 250 | 11.3 | 24.1 | 0.00 | 0.00 | 0.00 | 80 | 1002.3 |
| 20260507133604 | 10 | 248 | 11.3 | 24.1 | 0.00 | 0.00 | 0.00 | 80 | 1002.5 |
| 20260507133504 | 11 | 246 | 11.3 | 24.1 | 0.00 | 0.00 | 0.00 | 79 | 1002.6 |
| 20260507133404 | 11 | 246 | 11.3 | 20.9 | 0.00 | 0.00 | 0.00 | 80 | 1002.6 |
| 20260507133304 | 11 | 246 | 11.3 | 20.9 | 0.00 | 0.00 | 0.00 | 79 | 1002.4 |
| 20260507133204 | 11 | 243 | 11.3 | 20.9 | 0.00 | 0.00 | 0.00 | 79 | 1002.7 |
| 20260507133104 | 11 | 243 | 11.3 | 20.9 | 0.00 | 0.00 | 0.00 | 78 | 1002.6 |
| 20260507133004 | 11 | 236 | 11.3 | 20.9 | 0.00 | 0.00 | 0.00 | 78 | 1002.4 |
| 20260507132904 | 11 | 235 | 11.3 | 20.9 | 0.00 | 0.00 | 0.00 | 77 | 1002.4 |
| 20260507132804 | 11 | 233 | 11.3 | 20.9 | 0.00 | 0.00 | 0.00 | 78 | 1002.6 |
| 20260507132704 | 11 | 233 | 11.3 | 20.9 | 0.00 | 0.00 | 0.00 | 78 | 1002.6 |
| 20260507132604 | 11 | 236 | 11.3 | 20.9 | 0.00 | 0.00 | 0.00 | 78 | 1002.6 |
| 20260507132504 | 11 | 236 | 11.3 | 20.9 | 0.00 | 0.00 | 0.00 | 79 | 1002.6 |
| 20260507132404 | 11 | 231 | 11.3 | 20.9 | 0.00 | 0.00 | 0.00 | 79 | 1002.6 |
| 20260507132307 | 11 | 227 | 11.3 | 20.9 | 0.00 | 0.00 | 0.00 | 78 | 1002.4 |
| 20260507132204 | 11 | 230 | 11.3 | 20.9 | 0.00 | 0.00 | 0.00 | 79 | 1002.4 |
| 20260507132104 | 11 | 228 | 11.3 | 20.9 | 0.00 | 0.00 | 0.00 | 79 | 1002.7 |
| 20260507132004 | 11 | 231 | 11.3 | 20.9 | 0.00 | 0.00 | 0.00 | 78 | 1002.6 |
| 20260507131906 | 11 | 232 | 11.3 | 20.9 | 0.00 | 0.00 | 0.00 | 78 | 1002.3 |
| 20260507131804 | 11 | 234 | 11.3 | 20.9 | 0.00 | 0.00 | 0.00 | 79 | 1002.3 |
| 20260507131725 | 11 | 233 | 11.3 | 20.9 | 0.00 | 0.00 | 0.00 | 78 | 1002.3 |
| 20260507131604 | 10 | 226 | 11.3 | 20.9 | 0.00 | 0.00 | 0.00 | 79 | 1002.6 |
| 20260507131504 | 10 | 224 | 11.3 | 20.9 | 0.00 | 0.00 | 0.00 | 78 | 1002.4 |
| 20260507131404 | 10 | 224 | 11.3 | 20.9 | 0.00 | 0.00 | 0.00 | 78 | 1002.6 |
| 20260507131304 | 11 | 224 | 11.3 | 22.5 | 0.00 | 0.00 | 0.00 | 77 | 1002.5 |
| 20260507131204 | 11 | 225 | 11.3 | 22.5 | 0.00 | 0.00 | 0.00 | 78 | 1002.5 |
| 20260507131104 | 11 | 228 | 11.3 | 22.5 | 0.00 | 0.00 | 0.00 | 78 | 1002.6 |
| 20260507131004 | 10 | 228 | 11.3 | 22.5 | 0.00 | 0.00 | 0.00 | 79 | 1002.3 |
| 20260507130904 | 10 | 227 | 11.3 | 22.5 | 0.00 | 0.00 | 0.00 | 78 | 1002.5 |
| 20260507130804 | 10 | 227 | 11.3 | 22.5 | 0.00 | 0.00 | 0.00 | 77 | 1002.6 |
| 20260507130704 | 10 | 228 | 11.3 | 22.5 | 0.00 | 0.00 | 0.00 | 78 | 1002.6 |
| 20260507130604 | 10 | 233 | 11.3 | 22.5 | 0.00 | 0.00 | 0.00 | 78 | 1002.7 |
| 20260507130504 | 11 | 237 | 11.3 | 22.5 | 0.00 | 0.00 | 0.00 | 78 | 1002.4 |
| 20260507130446 | 11 | 236 | 11.3 | 22.5 | 0.00 | 0.00 | 0.00 | 77 | 1002.4 |
| 20260507130304 | 11 | 242 | 11.3 | 22.5 | 0.00 | 0.00 | 0.00 | 78 | 1002.6 |
| 20260507130204 | 11 | 244 | 11.3 | 22.5 | 0.00 | 0.00 | 0.00 | 77 | 1002.4 |
| 20260507130104 | 11 | 246 | 11.3 | 20.9 | 0.00 | 0.00 | 0.00 | 77 | 1002.7 |
| 20260507130004 | 11 | 244 | 11.3 | 17.7 | 0.00 | 0.00 | 0.00 | 77 | 1002.5 |
| 20260507125904 | 11 | 243 | 11.3 | 17.7 | 0.00 | 0.00 | 0.00 | 77 | 1002.6 |
| 20260507125804 | 11 | 243 | 11.3 | 22.5 | 0.00 | 0.00 | 0.00 | 78 | 1002.6 |
| 20260507125725 | 11 | 242 | 12.9 | 22.5 | 0.00 | 0.00 | 0.00 | 77 | 1002.6 |
| 20260507125604 | 11 | 238 | 12.9 | 25.7 | 0.00 | 0.00 | 0.00 | 75 | 1002.6 |
| 20260507125504 | 11 | 234 | 12.9 | 25.7 | 0.00 | 0.00 | 0.00 | 76 | 1002.4 |
| 20260507125404 | 11 | 232 | 12.9 | 25.7 | 0.00 | 0.00 | 0.00 | 76 | 1002.6 |
| 20260507125325 | 11 | 229 | 12.9 | 25.7 | 0.00 | 0.00 | 0.00 | 75 | 1002.6 |
| 20260507125204 | 11 | 229 | 14.5 | 25.7 | 0.00 | 0.00 | 0.00 | 75 | 1002.7 |
| 20260507125125 | 11 | 229 | 12.9 | 25.7 | 0.00 | 0.00 | 0.00 | 75 | 1002.7 |
| 20260507125004 | 11 | 226 | 12.9 | 25.7 | 0.00 | 0.00 | 0.00 | 75 | 1002.8 |
| 20260507124904 | 11 | 227 | 14.5 | 25.7 | 0.00 | 0.00 | 0.00 | 74 | 1002.6 |
| 20260507124825 | 11 | 227 | 14.5 | 25.7 | 0.00 | 0.00 | 0.00 | 75 | 1002.6 |
| 20260507124725 | 11 | 226 | 12.9 | 25.7 | 0.00 | 0.00 | 0.00 | 74 | 1002.7 |
| 20260507124604 | 11 | 228 | 12.9 | 25.7 | 0.00 | 0.00 | 0.00 | 74 | 1002.6 |
| 20260507124504 | 11 | 234 | 11.3 | 20.9 | 0.00 | 0.00 | 0.00 | 74 | 1002.4 |
| 20260507124404 | 11 | 240 | 11.3 | 20.9 | 0.00 | 0.00 | 0.00 | 74 | 1002.6 |
| 20260507124304 | 11 | 245 | 11.3 | 22.5 | 0.00 | 0.00 | 0.00 | 73 | 1002.5 |
| 20260507124204 | 11 | 244 | 11.3 | 24.1 | 0.00 | 0.00 | 0.00 | 74 | 1002.8 |
| 20260507124104 | 11 | 244 | 12.9 | 24.1 | 0.00 | 0.00 | 0.00 | 74 | 1002.5 |
| 20260507124004 | 11 | 245 | 12.9 | 24.1 | 0.00 | 0.00 | 0.00 | 73 | 1002.5 |
| 20260507123904 | 11 | 244 | 12.9 | 24.1 | 0.00 | 0.00 | 0.00 | 72 | 1002.6 |
| 20260507123804 | 11 | 245 | 12.9 | 24.1 | 0.00 | 0.00 | 0.00 | 73 | 1002.6 |
| 20260507123725 | 11 | 247 | 12.9 | 24.1 | 0.00 | 0.00 | 0.00 | 73 | 1002.6 |
| 20260507123604 | 11 | 248 | 14.5 | 24.1 | 0.00 | 0.00 | 0.00 | 74 | 1002.5 |
| 20260507123504 | 11 | 246 | 14.5 | 24.1 | 0.00 | 0.00 | 0.00 | 73 | 1002.4 |
| 20260507123404 | 11 | 242 | 14.5 | 24.1 | 0.00 | 0.00 | 0.00 | 72 | 1002.5 |
| 20260507123304 | 11 | 241 | 14.5 | 24.1 | 0.00 | 0.00 | 0.00 | 70 | 1002.5 |
| 20260507123204 | 11 | 241 | 14.5 | 24.1 | 0.00 | 0.00 | 0.00 | 71 | 1002.6 |
| 20260507123104 | 11 | 241 | 14.5 | 24.1 | 0.00 | 0.00 | 0.00 | 72 | 1002.5 |
| 20260507123025 | 11 | 240 | 14.5 | 24.1 | 0.00 | 0.00 | 0.00 | 71 | 1002.5 |
| 20260507122904 | 11 | 243 | 14.5 | 24.1 | 0.00 | 0.00 | 0.00 | 70 | 1002.4 |
| 20260507122804 | 11 | 241 | 14.5 | 24.1 | 0.00 | 0.00 | 0.00 | 71 | 1002.6 |
| 20260507122705 | 11 | 239 | 14.5 | 24.1 | 0.00 | 0.00 | 0.00 | 70 | 1002.5 |
| 20260507122604 | 11 | 236 | 14.5 | 24.1 | 0.00 | 0.00 | 0.00 | 71 | 1002.6 |
| 20260507122525 | 11 | 236 | 14.5 | 24.1 | 0.00 | 0.00 | 0.00 | 71 | 1002.6 |
| 20260507122404 | 12 | 236 | 12.9 | 24.1 | 0.00 | 0.00 | 0.00 | 72 | 1002.7 |
| 20260507122307 | 12 | 236 | 12.9 | 24.1 | 0.00 | 0.00 | 0.00 | 71 | 1002.6 |
| 20260507122204 | 12 | 239 | 12.9 | 24.1 | 0.00 | 0.00 | 0.00 | 70 | 1002.4 |
| 20260507122104 | 12 | 242 | 11.3 | 24.1 | 0.00 | 0.00 | 0.00 | 71 | 1002.6 |
| 20260507122004 | 12 | 242 | 11.3 | 24.1 | 0.00 | 0.00 | 0.00 | 71 | 1002.5 |
| 20260507121904 | 12 | 241 | 11.3 | 24.1 | 0.00 | 0.00 | 0.00 | 70 | 1002.3 |
| 20260507121804 | 12 | 240 | 11.3 | 24.1 | 0.00 | 0.00 | 0.00 | 69 | 1002.3 |
| 20260507121704 | 12 | 238 | 11.3 | 24.1 | 0.00 | 0.00 | 0.00 | 70 | 1002.4 |
| 20260507121625 | 12 | 235 | 11.3 | 24.1 | 0.00 | 0.00 | 0.00 | 70 | 1002.4 |
| 20260507121525 | 12 | 236 | 11.3 | 24.1 | 0.00 | 0.00 | 0.00 | 70 | 1002.5 |
| 20260507121404 | 12 | 237 | 12.9 | 24.1 | 0.00 | 0.00 | 0.00 | 70 | 1002.4 |
| 20260507121304 | 12 | 239 | 12.9 | 24.1 | 0.00 | 0.00 | 0.00 | 72 | 1002.5 |
| 20260507121204 | 12 | 236 | 12.9 | 25.7 | 0.00 | 0.00 | 0.00 | 72 | 1002.2 |
| 20260507121125 | 12 | 236 | 12.9 | 25.7 | 0.00 | 0.00 | 0.00 | 72 | 1002.2 |
| 20260507121004 | 12 | 239 | 12.9 | 25.7 | 0.00 | 0.00 | 0.00 | 70 | 1002.3 |
| 20260507120925 | 12 | 235 | 12.9 | 25.7 | 0.00 | 0.00 | 0.00 | 71 | 1002.3 |
| 20260507120825 | 12 | 232 | 12.9 | 25.7 | 0.00 | 0.00 | 0.00 | 70 | 1002.8 |
| 20260507120704 | 12 | 234 | 12.9 | 25.7 | 0.00 | 0.00 | 0.00 | 70 | 1002.4 |
| 20260507120604 | 12 | 233 | 12.9 | 25.7 | 0.00 | 0.00 | 0.00 | 68 | 1002.4 |
| 20260507120504 | 12 | 234 | 12.9 | 25.7 | 0.00 | 0.00 | 0.00 | 67 | 1002.5 |
| 20260507120404 | 12 | 233 | 12.9 | 25.7 | 0.00 | 0.00 | 0.00 | 69 | 1002.3 |
| 20260507120304 | 12 | 230 | 12.9 | 25.7 | 0.00 | 0.00 | 0.00 | 70 | 1002.5 |
| 20260507120204 | 12 | 228 | 12.9 | 25.7 | 0.00 | 0.00 | 0.00 | 69 | 1002.4 |
| 20260507120104 | 12 | 229 | 12.9 | 25.7 | 0.00 | 0.00 | 0.00 | 69 | 1002.4 |
| 20260507120005 | 12 | 227 | 12.9 | 24.1 | 0.00 | 0.00 | 0.00 | 70 | 1002.3 |
| 20260507115925 | 12 | 230 | 12.9 | 24.1 | 0.00 | 0.00 | 0.00 | 71 | 1002.3 |
| 20260507115804 | 12 | 236 | 12.9 | 24.1 | 0.00 | 0.00 | 0.00 | 71 | 1002.4 |
| 20260507115704 | 12 | 235 | 11.3 | 24.1 | 0.00 | 0.00 | 0.00 | 70 | 1002.5 |
| 20260507115604 | 12 | 236 | 11.3 | 22.5 | 0.00 | 0.00 | 0.00 | 72 | 1002.5 |
| 20260507115504 | 12 | 234 | 12.9 | 22.5 | 0.00 | 0.00 | 0.00 | 73 | 1002.5 |
| 20260507115404 | 12 | 233 | 12.9 | 24.1 | 0.00 | 0.00 | 0.00 | 69 | 1002.3 |
| 20260507115307 | 12 | 235 | 12.9 | 24.1 | 0.00 | 0.00 | 0.00 | 71 | 1002.5 |
| 20260507115204 | 12 | 233 | 12.9 | 24.1 | 0.00 | 0.00 | 0.00 | 69 | 1002.4 |
| 20260507115104 | 12 | 231 | 12.9 | 24.1 | 0.00 | 0.00 | 0.00 | 70 | 1002.5 |
| 20260507115004 | 12 | 229 | 12.9 | 24.1 | 0.00 | 0.00 | 0.00 | 71 | 1002.5 |
| 20260507114904 | 12 | 228 | 14.5 | 24.1 | 0.00 | 0.00 | 0.00 | 69 | 1002.5 |
| 20260507114804 | 12 | 229 | 12.9 | 24.1 | 0.00 | 0.00 | 0.00 | 71 | 1002.4 |
| 20260507114704 | 12 | 227 | 14.5 | 24.1 | 0.00 | 0.00 | 0.00 | 69 | 1002.3 |
| 20260507114604 | 12 | 227 | 12.9 | 24.1 | 0.00 | 0.00 | 0.00 | 68 | 1002.4 |
| 20260507114504 | 12 | 229 | 12.9 | 24.1 | 0.00 | 0.00 | 0.00 | 69 | 1002.5 |
| 20260507114404 | 12 | 230 | 12.9 | 25.7 | 0.00 | 0.00 | 0.00 | 68 | 1002.4 |
| 20260507114304 | 12 | 231 | 12.9 | 25.7 | 0.00 | 0.00 | 0.00 | 70 | 1002.5 |
| 20260507114204 | 12 | 235 | 12.9 | 25.7 | 0.00 | 0.00 | 0.00 | 69 | 1002.5 |
| 20260507114104 | 12 | 241 | 12.9 | 25.7 | 0.00 | 0.00 | 0.00 | 71 | 1002.4 |
| 20260507114004 | 12 | 244 | 12.9 | 25.7 | 0.00 | 0.00 | 0.00 | 70 | 1002.4 |
| 20260507113904 | 12 | 242 | 12.9 | 27.4 | 0.00 | 0.00 | 0.00 | 68 | 1002.2 |
| 20260507113825 | 12 | 244 | 12.9 | 27.4 | 0.00 | 0.00 | 0.00 | 71 | 1002.2 |
| 20260507113704 | 12 | 242 | 12.9 | 27.4 | 0.00 | 0.00 | 0.00 | 69 | 1002.6 |
| 20260507113604 | 12 | 244 | 12.9 | 27.4 | 0.00 | 0.00 | 0.00 | 73 | 1002.5 |
| 20260507113504 | 12 | 243 | 14.5 | 27.4 | 0.00 | 0.00 | 0.00 | 70 | 1002.5 |
| 20260507113404 | 12 | 244 | 14.5 | 27.4 | 0.00 | 0.00 | 0.00 | 69 | 1002.7 |
| 20260507113304 | 12 | 243 | 14.5 | 27.4 | 0.00 | 0.00 | 0.00 | 70 | 1002.4 |
| 20260507113225 | 12 | 239 | 14.5 | 27.4 | 0.00 | 0.00 | 0.00 | 71 | 1002.4 |
| 20260507113104 | 12 | 235 | 14.5 | 27.4 | 0.00 | 0.00 | 0.00 | 71 | 1002.5 |
| 20260507113005 | 12 | 234 | 16.1 | 27.4 | 0.00 | 0.00 | 0.00 | 71 | 1002.6 |
| 20260507112925 | 12 | 233 | 16.1 | 27.4 | 0.00 | 0.00 | 0.00 | 72 | 1002.6 |
| 20260507112804 | 12 | 232 | 16.1 | 27.4 | 0.00 | 0.00 | 0.00 | 73 | 1002.5 |
| 20260507112704 | 11 | 233 | 14.5 | 27.4 | 0.00 | 0.00 | 0.00 | 74 | 1002.4 |
| 20260507112604 | 11 | 235 | 14.5 | 27.4 | 0.00 | 0.00 | 0.00 | 71 | 1002.4 |
| 20260507112504 | 12 | 236 | 14.5 | 27.4 | 0.00 | 0.00 | 0.00 | 73 | 1002.6 |
| 20260507112404 | 12 | 237 | 14.5 | 27.4 | 0.00 | 0.00 | 0.00 | 73 | 1002.3 |
| 20260507112325 | 12 | 240 | 14.5 | 27.4 | 0.00 | 0.00 | 0.00 | 73 | 1002.3 |
| 20260507112225 | 12 | 242 | 14.5 | 27.4 | 0.00 | 0.00 | 0.00 | 72 | 1002.5 |
| 20260507112104 | 12 | 245 | 14.5 | 27.4 | 0.00 | 0.00 | 0.00 | 72 | 1002.2 |
| 20260507112004 | 12 | 245 | 12.9 | 25.7 | 0.00 | 0.00 | 0.00 | 74 | 1002.3 |
| 20260507111904 | 12 | 246 | 12.9 | 25.7 | 0.00 | 0.00 | 0.00 | 73 | 1002.4 |
| 20260507111825 | 11 | 247 | 12.9 | 25.7 | 0.00 | 0.00 | 0.00 | 74 | 1002.4 |
| 20260507111704 | 11 | 246 | 14.5 | 25.7 | 0.00 | 0.00 | 0.00 | 74 | 1002.5 |
| 20260507111604 | 11 | 245 | 14.5 | 25.7 | 0.00 | 0.00 | 0.00 | 74 | 1002.6 |
| 20260507111504 | 12 | 247 | 14.5 | 25.7 | 0.00 | 0.00 | 0.00 | 73 | 1002.5 |
| 20260507111404 | 12 | 247 | 14.5 | 25.7 | 0.00 | 0.00 | 0.00 | 74 | 1002.5 |
| 20260507111304 | 12 | 245 | 14.5 | 25.7 | 0.00 | 0.00 | 0.00 | 73 | 1002.4 |
| 20260507111204 | 12 | 245 | 14.5 | 25.7 | 0.00 | 0.00 | 0.00 | 73 | 1002.5 |
| 20260507111104 | 12 | 240 | 14.5 | 25.7 | 0.00 | 0.00 | 0.00 | 72 | 1002.5 |
| 20260507111004 | 12 | 240 | 14.5 | 25.7 | 0.00 | 0.00 | 0.00 | 72 | 1002.4 |
| 20260507110904 | 12 | 239 | 14.5 | 25.7 | 0.00 | 0.00 | 0.00 | 73 | 1002.5 |
| 20260507110804 | 12 | 238 | 14.5 | 25.7 | 0.00 | 0.00 | 0.00 | 73 | 1002.5 |
| 20260507110704 | 12 | 237 | 14.5 | 25.7 | 0.00 | 0.00 | 0.00 | 72 | 1002.3 |
| 20260507110625 | 12 | 236 | 14.5 | 25.7 | 0.00 | 0.00 | 0.00 | 73 | 1002.3 |
| 20260507110504 | 12 | 235 | 14.5 | 25.7 | 0.00 | 0.00 | 0.00 | 72 | 1002.5 |
| 20260507110404 | 12 | 234 | 14.5 | 25.7 | 0.00 | 0.00 | 0.00 | 72 | 1002.5 |
| 20260507110304 | 12 | 234 | 14.5 | 25.7 | 0.00 | 0.00 | 0.00 | 74 | 1002.5 |
| 20260507110204 | 12 | 237 | 14.5 | 25.7 | 0.00 | 0.00 | 0.00 | 74 | 1002.5 |
| 20260507110104 | 11 | 242 | 14.5 | 25.7 | 0.00 | 0.00 | 0.00 | 72 | 1002.5 |
| 20260507110004 | 11 | 248 | 14.5 | 25.7 | 0.00 | 0.00 | 0.00 | 72 | 1002.6 |
| 20260507105904 | 11 | 250 | 14.5 | 25.7 | 0.00 | 0.00 | 0.00 | 73 | 1002.7 |
| 20260507105804 | 12 | 253 | 16.1 | 25.7 | 0.00 | 0.00 | 0.00 | 73 | 1002.6 |
| 20260507105725 | 12 | 258 | 16.1 | 25.7 | 0.00 | 0.00 | 0.00 | 72 | 1002.6 |
| 20260507105604 | 12 | 261 | 16.1 | 25.7 | 0.00 | 0.00 | 0.00 | 73 | 1002.5 |
| 20260507105504 | 12 | 263 | 16.1 | 25.7 | 0.00 | 0.00 | 0.00 | 73 | 1002.6 |
| 20260507105404 | 11 | 259 | 14.5 | 25.7 | 0.00 | 0.00 | 0.00 | 75 | 1002.5 |
| 20260507105325 | 11 | 262 | 14.5 | 25.7 | 0.00 | 0.00 | 0.00 | 75 | 1002.5 |
| 20260507105225 | 11 | 262 | 14.5 | 25.7 | 0.00 | 0.00 | 0.00 | 74 | 1002.8 |
| 20260507105104 | 11 | 258 | 14.5 | 25.7 | 0.00 | 0.00 | 0.00 | 74 | 1002.6 |
| 20260507105004 | 11 | 252 | 14.5 | 25.7 | 0.00 | 0.00 | 0.00 | 73 | 1002.5 |
| 20260507104904 | 11 | 246 | 14.5 | 25.7 | 0.00 | 0.00 | 0.00 | 73 | 1002.5 |
| 20260507104825 | 11 | 244 | 14.5 | 25.7 | 0.00 | 0.00 | 0.00 | 74 | 1002.5 |
| 20260507104725 | 11 | 239 | 14.5 | 27.4 | 0.00 | 0.00 | 0.00 | 74 | 1002.4 |
| 20260507104625 | 11 | 237 | 14.5 | 27.4 | 0.00 | 0.00 | 0.00 | 75 | 1002.6 |
| 20260507104525 | 11 | 234 | 14.5 | 27.4 | 0.00 | 0.00 | 0.00 | 76 | 1002.6 |
| 20260507104404 | 11 | 236 | 14.5 | 27.4 | 0.00 | 0.00 | 0.00 | 77 | 1002.7 |
| 20260507104304 | 11 | 236 | 14.5 | 27.4 | 0.00 | 0.00 | 0.00 | 77 | 1002.8 |
| 20260507104204 | 11 | 235 | 16.1 | 27.4 | 0.00 | 0.00 | 0.00 | 77 | 1002.6 |
| 20260507104104 | 10 | 238 | 16.1 | 27.4 | 0.00 | 0.00 | 0.00 | 77 | 1002.7 |
| 20260507104004 | 10 | 241 | 16.1 | 27.4 | 0.00 | 0.00 | 0.00 | 78 | 1002.7 |
| 20260507103904 | 10 | 240 | 17.7 | 29.0 | 0.00 | 0.00 | 0.00 | 77 | 1002.6 |
| 20260507103825 | 10 | 242 | 17.7 | 29.0 | 0.00 | 0.00 | 0.00 | 76 | 1002.6 |
| 20260507103704 | 11 | 243 | 16.1 | 29.0 | 0.00 | 0.00 | 0.00 | 76 | 1002.8 |
| 20260507103604 | 11 | 243 | 16.1 | 29.0 | 0.00 | 0.00 | 0.00 | 76 | 1002.7 |
| 20260507103504 | 11 | 244 | 14.5 | 29.0 | 0.00 | 0.00 | 0.00 | 77 | 1002.6 |
| 20260507103425 | 11 | 243 | 14.5 | 29.0 | 0.00 | 0.00 | 0.00 | 76 | 1002.6 |
| 20260507103304 | 11 | 242 | 14.5 | 29.0 | 0.00 | 0.00 | 0.00 | 76 | 1002.5 |
| 20260507103204 | 11 | 244 | 14.5 | 29.0 | 0.00 | 0.00 | 0.00 | 75 | 1002.6 |
| 20260507103104 | 11 | 243 | 12.9 | 29.0 | 0.00 | 0.00 | 0.00 | 75 | 1002.5 |
| 20260507103004 | 11 | 244 | 12.9 | 29.0 | 0.00 | 0.00 | 0.00 | 74 | 1002.8 |
| 20260507102904 | 11 | 245 | 12.9 | 29.0 | 0.00 | 0.00 | 0.00 | 74 | 1002.7 |
| 20260507102804 | 11 | 242 | 11.3 | 25.7 | 0.00 | 0.00 | 0.00 | 76 | 1002.5 |
| 20260507102704 | 11 | 241 | 12.9 | 25.7 | 0.00 | 0.00 | 0.00 | 77 | 1002.7 |
| 20260507102604 | 11 | 239 | 12.9 | 25.7 | 0.00 | 0.00 | 0.00 | 77 | 1002.8 |
| 20260507102504 | 11 | 237 | 14.5 | 25.7 | 0.00 | 0.00 | 0.00 | 76 | 1002.8 |
| 20260507102404 | 11 | 237 | 14.5 | 25.7 | 0.00 | 0.00 | 0.00 | 75 | 1002.6 |
| 20260507102306 | 11 | 239 | 14.5 | 25.7 | 0.00 | 0.00 | 0.00 | 75 | 1002.8 |
| 20260507102204 | 11 | 238 | 14.5 | 25.7 | 0.00 | 0.00 | 0.00 | 75 | 1002.6 |
| 20260507102125 | 11 | 240 | 14.5 | 25.7 | 0.00 | 0.00 | 0.00 | 76 | 1002.6 |
| 20260507102025 | 11 | 237 | 12.9 | 25.7 | 0.00 | 0.00 | 0.00 | 75 | 1002.8 |
| 20260507101925 | 11 | 239 | 14.5 | 25.7 | 0.00 | 0.00 | 0.00 | 75 | 1002.5 |
| 20260507101804 | 11 | 240 | 14.5 | 25.7 | 0.00 | 0.00 | 0.00 | 74 | 1002.6 |
| 20260507101704 | 11 | 241 | 12.9 | 25.7 | 0.00 | 0.00 | 0.00 | 75 | 1002.6 |
| 20260507101604 | 11 | 244 | 12.9 | 22.5 | 0.00 | 0.00 | 0.00 | 75 | 1002.6 |
| 20260507101504 | 11 | 243 | 11.3 | 22.5 | 0.00 | 0.00 | 0.00 | 74 | 1002.9 |
| 20260507101425 | 11 | 239 | 11.3 | 22.5 | 0.00 | 0.00 | 0.00 | 75 | 1002.9 |
| 20260507101304 | 11 | 237 | 11.3 | 22.5 | 0.00 | 0.00 | 0.00 | 76 | 1002.7 |
| 20260507101204 | 11 | 233 | 11.3 | 22.5 | 0.00 | 0.00 | 0.00 | 75 | 1002.5 |
| 20260507101104 | 11 | 229 | 11.3 | 22.5 | 0.00 | 0.00 | 0.00 | 75 | 1002.7 |
| 20260507101004 | 11 | 231 | 11.3 | 22.5 | 0.00 | 0.00 | 0.00 | 73 | 1002.7 |
| 20260507100904 | 11 | 228 | 11.3 | 22.5 | 0.00 | 0.00 | 0.00 | 73 | 1002.7 |
| 20260507100804 | 11 | 228 | 9.7 | 16.1 | 0.00 | 0.00 | 0.00 | 74 | 1002.6 |
| 20260507100725 | 11 | 229 | 9.7 | 16.1 | 0.00 | 0.00 | 0.00 | 74 | 1002.6 |
| 20260507100604 | 11 | 225 | 9.7 | 16.1 | 0.00 | 0.00 | 0.00 | 74 | 1002.8 |
| 20260507100504 | 11 | 228 | 9.7 | 16.1 | 0.00 | 0.00 | 0.00 | 73 | 1002.6 |
| 20260507100404 | 11 | 235 | 9.7 | 16.1 | 0.00 | 0.00 | 0.00 | 76 | 1002.7 |
| 20260507100304 | 11 | 232 | 9.7 | 16.1 | 0.00 | 0.00 | 0.00 | 75 | 1002.7 |
| 20260507100204 | 10 | 227 | 9.7 | 17.7 | 0.00 | 0.00 | 0.00 | 75 | 1002.5 |
| 20260507100104 | 10 | 228 | 9.7 | 17.7 | 0.00 | 0.00 | 0.00 | 76 | 1002.7 |
| 20260507100004 | 10 | 230 | 9.7 | 17.7 | 0.00 | 0.00 | 0.00 | 75 | 1002.9 |
| 20260507095904 | 10 | 230 | 9.7 | 17.7 | 0.00 | 0.00 | 0.00 | 74 | 1002.6 |
| 20260507095804 | 10 | 231 | 9.7 | 17.7 | 0.00 | 0.00 | 0.00 | 75 | 1003.0 |
| 20260507095704 | 10 | 232 | 9.7 | 17.7 | 0.00 | 0.00 | 0.00 | 76 | 1002.6 |
| 20260507095604 | 10 | 230 | 9.7 | 17.7 | 0.00 | 0.00 | 0.00 | 76 | 1002.7 |
| 20260507095504 | 10 | 230 | 9.7 | 17.7 | 0.00 | 0.00 | 0.00 | 76 | 1002.8 |
| 20260507095404 | 10 | 228 | 9.7 | 17.7 | 0.00 | 0.00 | 0.00 | 76 | 1002.9 |
| 20260507095306 | 10 | 227 | 9.7 | 17.7 | 0.00 | 0.00 | 0.00 | 75 | 1002.6 |
| 20260507095225 | 10 | 228 | 9.7 | 17.7 | 0.00 | 0.00 | 0.00 | 75 | 1002.6 |
| 20260507095104 | 10 | 229 | 9.7 | 17.7 | 0.00 | 0.00 | 0.00 | 74 | 1002.7 |
| 20260507095004 | 10 | 225 | 9.7 | 17.7 | 0.00 | 0.00 | 0.00 | 77 | 1002.7 |
| 20260507094925 | 10 | 225 | 9.7 | 17.7 | 0.00 | 0.00 | 0.00 | 76 | 1002.7 |
| 20260507094804 | 10 | 219 | 9.7 | 17.7 | 0.00 | 0.00 | 0.00 | 76 | 1002.4 |
| 20260507094704 | 10 | 217 | 9.7 | 17.7 | 0.00 | 0.00 | 0.00 | 75 | 1002.6 |
| 20260507094604 | 10 | 216 | 11.3 | 17.7 | 0.00 | 0.00 | 0.00 | 76 | 1002.5 |
| 20260507094504 | 10 | 211 | 11.3 | 17.7 | 0.00 | 0.00 | 0.00 | 75 | 1002.6 |
| 20260507094404 | 10 | 211 | 11.3 | 17.7 | 0.00 | 0.00 | 0.00 | 74 | 1002.6 |
| 20260507094304 | 10 | 211 | 9.7 | 17.7 | 0.00 | 0.00 | 0.00 | 75 | 1002.6 |
| 20260507094204 | 10 | 215 | 9.7 | 17.7 | 0.00 | 0.00 | 0.00 | 74 | 1002.6 |
| 20260507094104 | 10 | 216 | 9.7 | 17.7 | 0.00 | 0.00 | 0.00 | 74 | 1002.7 |
| 20260507094004 | 10 | 219 | 9.7 | 17.7 | 0.00 | 0.00 | 0.00 | 74 | 1002.7 |
| 20260507093925 | 10 | 219 | 9.7 | 17.7 | 0.00 | 0.00 | 0.00 | 74 | 1002.7 |
| 20260507093804 | 10 | 225 | 9.7 | 17.7 | 0.00 | 0.00 | 0.00 | 75 | 1002.6 |
| 20260507093725 | 10 | 228 | 8.0 | 17.7 | 0.00 | 0.00 | 0.00 | 75 | 1002.6 |
| 20260507093604 | 10 | 233 | 8.0 | 17.7 | 0.00 | 0.00 | 0.00 | 74 | 1002.7 |
| 20260507093504 | 10 | 238 | 9.7 | 17.7 | 0.00 | 0.00 | 0.00 | 75 | 1002.4 |
| 20260507093404 | 10 | 241 | 9.7 | 17.7 | 0.00 | 0.00 | 0.00 | 75 | 1002.5 |
| 20260507093304 | 10 | 242 | 9.7 | 17.7 | 0.00 | 0.00 | 0.00 | 76 | 1002.7 |
| 20260507093204 | 10 | 238 | 9.7 | 16.1 | 0.00 | 0.00 | 0.00 | 75 | 1002.5 |
| 20260507093125 | 10 | 238 | 9.7 | 16.1 | 0.00 | 0.00 | 0.00 | 76 | 1002.5 |
| 20260507093004 | 10 | 237 | 9.7 | 16.1 | 0.00 | 0.00 | 0.00 | 76 | 1002.5 |
| 20260507092904 | 10 | 235 | 9.7 | 16.1 | 0.00 | 0.00 | 0.00 | 75 | 1002.6 |
| 20260507092804 | 10 | 235 | 9.7 | 16.1 | 0.00 | 0.00 | 0.00 | 75 | 1002.6 |
| 20260507092704 | 10 | 235 | 9.7 | 16.1 | 0.00 | 0.00 | 0.00 | 75 | 1002.8 |
| 20260507092625 | 10 | 233 | 9.7 | 16.1 | 0.00 | 0.00 | 0.00 | 74 | 1002.8 |
| 20260507092504 | 10 | 232 | 8.0 | 16.1 | 0.00 | 0.00 | 0.00 | 75 | 1002.7 |
| 20260507092425 | 10 | 232 | 8.0 | 16.1 | 0.00 | 0.00 | 0.00 | 74 | 1002.7 |
| 20260507092306 | 10 | 232 | 8.0 | 16.1 | 0.00 | 0.00 | 0.00 | 74 | 1002.7 |
| 20260507092204 | 10 | 236 | 8.0 | 16.1 | 0.00 | 0.00 | 0.00 | 75 | 1002.6 |
| 20260507092104 | 10 | 233 | 9.7 | 16.1 | 0.00 | 0.00 | 0.00 | 75 | 1002.6 |
| 20260507092004 | 10 | 233 | 9.7 | 16.1 | 0.00 | 0.00 | 0.00 | 75 | 1002.7 |
| 20260507091904 | 10 | 234 | 9.7 | 16.1 | 0.00 | 0.00 | 0.00 | 75 | 1002.8 |
| 20260507091804 | 10 | 230 | 9.7 | 17.7 | 0.00 | 0.00 | 0.00 | 75 | 1002.5 |
| 20260507091703 | 10 | 229 | 9.7 | 17.7 | 0.00 | 0.00 | 0.00 | 75 | 1002.6 |
| 20260507091604 | 10 | 229 | 9.7 | 17.7 | 0.00 | 0.00 | 0.00 | 75 | 1002.6 |
| 20260507091503 | 10 | 228 | 9.7 | 17.7 | 0.00 | 0.00 | 0.00 | 75 | 1002.4 |
| 20260507091404 | 10 | 226 | 9.7 | 17.7 | 0.00 | 0.00 | 0.00 | 74 | 1002.6 |
| 20260507091304 | 10 | 226 | 9.7 | 17.7 | 0.00 | 0.00 | 0.00 | 74 | 1002.7 |
| 20260507091204 | 10 | 226 | 9.7 | 17.7 | 0.00 | 0.00 | 0.00 | 74 | 1002.6 |
| 20260507091125 | 10 | 227 | 9.7 | 17.7 | 0.00 | 0.00 | 0.00 | 74 | 1002.6 |
| 20260507091004 | 10 | 228 | 9.7 | 17.7 | 0.00 | 0.00 | 0.00 | 75 | 1002.4 |
| 20260507090904 | 10 | 228 | 9.7 | 17.7 | 0.00 | 0.00 | 0.00 | 75 | 1002.5 |
| 20260507090825 | 10 | 229 | 9.7 | 17.7 | 0.00 | 0.00 | 0.00 | 74 | 1002.5 |
| 20260507090704 | 10 | 232 | 9.7 | 17.7 | 0.00 | 0.00 | 0.00 | 74 | 1002.6 |
| 20260507090604 | 10 | 235 | 9.7 | 16.1 | 0.00 | 0.00 | 0.00 | 74 | 1002.6 |
| 20260507090504 | 10 | 236 | 9.7 | 16.1 | 0.00 | 0.00 | 0.00 | 75 | 1002.6 |
| 20260507090404 | 10 | 236 | 9.7 | 17.7 | 0.00 | 0.00 | 0.00 | 75 | 1002.6 |
| 20260507090304 | 10 | 234 | 9.7 | 17.7 | 0.00 | 0.00 | 0.00 | 74 | 1002.7 |
| 20260507090225 | 10 | 234 | 9.7 | 17.7 | 0.00 | 0.00 | 0.00 | 75 | 1002.7 |
| 20260507090105 | 10 | 237 | 9.7 | 17.7 | 0.00 | 0.00 | 0.00 | 74 | 1002.5 |
| 20260507090005 | 10 | 235 | 9.7 | 17.7 | 0.00 | 0.00 | 0.00 | 76 | 1002.4 |
| 20260507085904 | 10 | 234 | 9.7 | 17.7 | 0.00 | 0.00 | 0.00 | 75 | 1002.4 |
| 20260507085804 | 10 | 232 | 9.7 | 17.7 | 0.00 | 0.00 | 0.00 | 76 | 1002.5 |
| 20260507085704 | 9 | 234 | 9.7 | 17.7 | 0.00 | 0.00 | 0.00 | 75 | 1002.4 |
| 20260507085604 | 9 | 235 | 9.7 | 17.7 | 0.00 | 0.00 | 0.00 | 74 | 1002.6 |
| 20260507085504 | 9 | 235 | 8.0 | 17.7 | 0.00 | 0.00 | 0.00 | 75 | 1002.5 |
| 20260507085404 | 9 | 236 | 8.0 | 17.7 | 0.00 | 0.00 | 0.00 | 74 | 1002.7 |
| 20260507085306 | 10 | 236 | 8.0 | 16.1 | 0.00 | 0.00 | 0.00 | 76 | 1002.5 |
| 20260507085204 | 10 | 238 | 6.4 | 16.1 | 0.00 | 0.00 | 0.00 | 76 | 1002.7 |
| 20260507085104 | 10 | 237 | 6.4 | 16.1 | 0.00 | 0.00 | 0.00 | 77 | 1002.7 |
| 20260507085004 | 9 | 240 | 6.4 | 16.1 | 0.00 | 0.00 | 0.00 | 76 | 1002.7 |
| 20260507084925 | 9 | 241 | 6.4 | 16.1 | 0.00 | 0.00 | 0.00 | 74 | 1002.7 |
| 20260507084804 | 10 | 242 | 6.4 | 14.5 | 0.00 | 0.00 | 0.00 | 76 | 1002.5 |
| 20260507084704 | 10 | 236 | 4.8 | 11.3 | 0.00 | 0.00 | 0.00 | 78 | 1002.5 |
| 20260507084604 | 10 | 240 | 6.4 | 14.5 | 0.00 | 0.00 | 0.00 | 78 | 1002.6 |
| 20260507084504 | 10 | 240 | 6.4 | 14.5 | 0.00 | 0.00 | 0.00 | 78 | 1002.6 |
| 20260507084425 | 10 | 240 | 6.4 | 14.5 | 0.00 | 0.00 | 0.00 | 77 | 1002.6 |
| 20260507084303 | 10 | 236 | 6.4 | 14.5 | 0.00 | 0.00 | 0.00 | 78 | 1002.7 |
| 20260507084204 | 9 | 235 | 6.4 | 14.5 | 0.00 | 0.00 | 0.00 | 78 | 1002.7 |
| 20260507084103 | 9 | 230 | 8.0 | 14.5 | 0.00 | 0.00 | 0.00 | 78 | 1002.6 |
| 20260507084004 | 9 | 229 | 8.0 | 14.5 | 0.00 | 0.00 | 0.00 | 77 | 1002.5 |
| 20260507083904 | 9 | 227 | 8.0 | 14.5 | 0.00 | 0.00 | 0.00 | 77 | 1002.5 |
| 20260507083804 | 9 | 226 | 8.0 | 14.5 | 0.00 | 0.00 | 0.00 | 77 | 1002.5 |
| 20260507083725 | 9 | 227 | 8.0 | 14.5 | 0.00 | 0.00 | 0.00 | 77 | 1002.5 |
| 20260507083604 | 9 | 222 | 8.0 | 14.5 | 0.00 | 0.00 | 0.00 | 77 | 1002.5 |
| 20260507083504 | 9 | 221 | 8.0 | 16.1 | 0.00 | 0.00 | 0.00 | 77 | 1002.4 |
| 20260507083404 | 9 | 221 | 8.0 | 16.1 | 0.00 | 0.00 | 0.00 | 76 | 1002.6 |
| 20260507083304 | 9 | 222 | 8.0 | 16.1 | 0.00 | 0.00 | 0.00 | 76 | 1002.5 |
| 20260507083204 | 9 | 222 | 8.0 | 16.1 | 0.00 | 0.00 | 0.00 | 77 | 1002.5 |
| 20260507083104 | 9 | 222 | 8.0 | 16.1 | 0.00 | 0.00 | 0.00 | 77 | 1002.3 |
| 20260507083004 | 9 | 218 | 8.0 | 16.1 | 0.00 | 0.00 | 0.00 | 77 | 1002.6 |
| 20260507082903 | 9 | 218 | 8.0 | 16.1 | 0.00 | 0.00 | 0.00 | 77 | 1002.5 |
| 20260507082804 | 9 | 219 | 8.0 | 16.1 | 0.00 | 0.00 | 0.00 | 77 | 1002.5 |
| 20260507082704 | 9 | 219 | 8.0 | 16.1 | 0.00 | 0.00 | 0.00 | 76 | 1002.5 |
| 20260507082604 | 9 | 217 | 8.0 | 16.1 | 0.00 | 0.00 | 0.00 | 76 | 1002.5 |
| 20260507082504 | 9 | 215 | 8.0 | 16.1 | 0.00 | 0.00 | 0.00 | 77 | 1002.5 |
| 20260507082404 | 9 | 211 | 8.0 | 14.5 | 0.00 | 0.00 | 0.00 | 77 | 1002.3 |
| 20260507082306 | 9 | 211 | 8.0 | 14.5 | 0.00 | 0.00 | 0.00 | 77 | 1002.2 |
| 20260507082203 | 9 | 209 | 8.0 | 14.5 | 0.00 | 0.00 | 0.00 | 77 | 1002.2 |
| 20260507082104 | 9 | 209 | 6.4 | 14.5 | 0.00 | 0.00 | 0.00 | 77 | 1002.2 |
| 20260507082004 | 9 | 212 | 6.4 | 14.5 | 0.00 | 0.00 | 0.00 | 77 | 1002.4 |
| 20260507081904 | 9 | 211 | 6.4 | 12.9 | 0.00 | 0.00 | 0.00 | 78 | 1002.3 |
| 20260507081804 | 9 | 208 | 6.4 | 12.9 | 0.00 | 0.00 | 0.00 | 77 | 1002.4 |
| 20260507081703 | 9 | 208 | 6.4 | 12.9 | 0.00 | 0.00 | 0.00 | 77 | 1002.3 |
| 20260507081604 | 9 | 209 | 6.4 | 12.9 | 0.00 | 0.00 | 0.00 | 76 | 1002.4 |
| 20260507081504 | 9 | 209 | 6.4 | 11.3 | 0.00 | 0.00 | 0.00 | 77 | 1002.5 |
| 20260507081404 | 9 | 211 | 6.4 | 12.9 | 0.00 | 0.00 | 0.00 | 77 | 1002.5 |
| 20260507081303 | 9 | 211 | 6.4 | 14.5 | 0.00 | 0.00 | 0.00 | 77 | 1002.4 |
| 20260507081204 | 9 | 206 | 6.4 | 14.5 | 0.00 | 0.00 | 0.00 | 78 | 1002.2 |
| 20260507081103 | 9 | 201 | 6.4 | 14.5 | 0.00 | 0.00 | 0.00 | 76 | 1002.4 |
| 20260507081004 | 9 | 200 | 6.4 | 14.5 | 0.00 | 0.00 | 0.00 | 76 | 1002.3 |
| 20260507080904 | 9 | 200 | 6.4 | 14.5 | 0.00 | 0.00 | 0.00 | 76 | 1002.3 |
| 20260507080804 | 9 | 201 | 6.4 | 14.5 | 0.00 | 0.00 | 0.00 | 76 | 1002.2 |
| 20260507080704 | 9 | 200 | 6.4 | 14.5 | 0.00 | 0.00 | 0.00 | 76 | 1002.2 |
| 20260507080604 | 9 | 201 | 6.4 | 14.5 | 0.00 | 0.00 | 0.00 | 75 | 1002.1 |
| 20260507080504 | 9 | 201 | 6.4 | 14.5 | 0.00 | 0.00 | 0.00 | 76 | 1002.4 |
| 20260507080404 | 10 | 198 | 6.4 | 14.5 | 0.00 | 0.00 | 0.00 | 74 | 1002.5 |
| 20260507080304 | 10 | 195 | 6.4 | 14.5 | 0.00 | 0.00 | 0.00 | 74 | 1002.5 |
| 20260507080203 | 10 | 196 | 6.4 | 11.3 | 0.00 | 0.00 | 0.00 | 75 | 1002.4 |
| 20260507080104 | 10 | 203 | 4.8 | 11.3 | 0.00 | 0.00 | 0.00 | 75 | 1002.3 |
| 20260507080004 | 10 | 204 | 4.8 | 11.3 | 0.00 | 0.00 | 0.00 | 75 | 1002.4 |
| 20260507075904 | 10 | 204 | 4.8 | 11.3 | 0.00 | 0.00 | 0.00 | 75 | 1002.2 |
| 20260507075804 | 10 | 206 | 4.8 | 11.3 | 0.00 | 0.00 | 0.00 | 75 | 1002.4 |
| 20260507075704 | 10 | 208 | 4.8 | 11.3 | 0.00 | 0.00 | 0.00 | 75 | 1002.3 |
| 20260507075604 | 10 | 208 | 4.8 | 11.3 | 0.00 | 0.00 | 0.00 | 75 | 1002.3 |
| 20260507075503 | 10 | 206 | 4.8 | 11.3 | 0.00 | 0.00 | 0.00 | 76 | 1002.3 |
| 20260507075404 | 10 | 208 | 4.8 | 9.7 | 0.00 | 0.00 | 0.00 | 74 | 1002.3 |
| 20260507075306 | 10 | 208 | 4.8 | 9.7 | 0.00 | 0.00 | 0.00 | 76 | 1002.4 |
| 20260507075204 | 10 | 210 | 4.8 | 9.7 | 0.00 | 0.00 | 0.00 | 77 | 1002.3 |
| 20260507075104 | 10 | 211 | 4.8 | 9.7 | 0.00 | 0.00 | 0.00 | 77 | 1002.3 |
| 20260507075004 | 10 | 208 | 4.8 | 9.7 | 0.00 | 0.00 | 0.00 | 77 | 1002.1 |
| 20260507074925 | 10 | 208 | 4.8 | 9.7 | 0.00 | 0.00 | 0.00 | 76 | 1002.1 |
| 20260507074803 | 10 | 206 | 4.8 | 11.3 | 0.00 | 0.00 | 0.00 | 76 | 1002.2 |
| 20260507074704 | 10 | 208 | 4.8 | 11.3 | 0.00 | 0.00 | 0.00 | 76 | 1002.4 |
| 20260507074603 | 10 | 208 | 4.8 | 12.9 | 0.00 | 0.00 | 0.00 | 76 | 1002.2 |
| 20260507074504 | 10 | 208 | 6.4 | 12.9 | 0.00 | 0.00 | 0.00 | 77 | 1002.0 |
| 20260507074404 | 10 | 207 | 6.4 | 12.9 | 0.00 | 0.00 | 0.00 | 76 | 1002.2 |
| 20260507074304 | 10 | 205 | 6.4 | 12.9 | 0.00 | 0.00 | 0.00 | 76 | 1002.4 |
| 20260507074203 | 10 | 202 | 6.4 | 12.9 | 0.00 | 0.00 | 0.00 | 76 | 1002.3 |
| 20260507074104 | 10 | 197 | 6.4 | 12.9 | 0.00 | 0.00 | 0.00 | 76 | 1002.2 |
| 20260507074004 | 10 | 200 | 6.4 | 12.9 | 0.00 | 0.00 | 0.00 | 76 | 1002.4 |
| 20260507073904 | 10 | 200 | 6.4 | 12.9 | 0.00 | 0.00 | 0.00 | 76 | 1002.1 |
| 20260507073825 | 10 | 200 | 6.4 | 12.9 | 0.00 | 0.00 | 0.00 | 75 | 1002.1 |
| 20260507073704 | 10 | 196 | 6.4 | 12.9 | 0.00 | 0.00 | 0.00 | 75 | 1002.1 |
| 20260507073604 | 10 | 188 | 4.8 | 12.9 | 0.00 | 0.00 | 0.00 | 75 | 1002.2 |
| 20260507073525 | 10 | 190 | 6.4 | 12.9 | 0.00 | 0.00 | 0.00 | 74 | 1002.2 |
| 20260507073404 | 10 | 190 | 4.8 | 11.3 | 0.00 | 0.00 | 0.00 | 76 | 1002.1 |
| 20260507073303 | 10 | 193 | 4.8 | 11.3 | 0.00 | 0.00 | 0.00 | 75 | 1002.2 |
| 20260507073204 | 10 | 196 | 4.8 | 11.3 | 0.00 | 0.00 | 0.00 | 76 | 1002.0 |
| 20260507073103 | 10 | 201 | 6.4 | 12.9 | 0.00 | 0.00 | 0.00 | 77 | 1002.1 |
| 20260507073004 | 10 | 205 | 6.4 | 14.5 | 0.00 | 0.00 | 0.00 | 77 | 1002.1 |
| 20260507072903 | 10 | 205 | 6.4 | 14.5 | 0.00 | 0.00 | 0.00 | 77 | 1002.1 |
| 20260507072804 | 10 | 205 | 6.4 | 14.5 | 0.00 | 0.00 | 0.00 | 76 | 1002.2 |
| 20260507072704 | 10 | 208 | 6.4 | 14.5 | 0.00 | 0.00 | 0.00 | 77 | 1002.2 |
| 20260507072604 | 10 | 214 | 8.0 | 14.5 | 0.00 | 0.00 | 0.00 | 76 | 1002.2 |
| 20260507072504 | 10 | 216 | 8.0 | 14.5 | 0.00 | 0.00 | 0.00 | 76 | 1002.1 |
| 20260507072425 | 10 | 214 | 8.0 | 14.5 | 0.00 | 0.00 | 0.00 | 76 | 1002.1 |
| 20260507072306 | 10 | 214 | 8.0 | 14.5 | 0.00 | 0.00 | 0.00 | 77 | 1002.1 |
| 20260507072204 | 9 | 215 | 8.0 | 14.5 | 0.00 | 0.00 | 0.00 | 77 | 1002.0 |
| 20260507072103 | 9 | 216 | 8.0 | 14.5 | 0.00 | 0.00 | 0.00 | 76 | 1002.1 |
| 20260507072025 | 9 | 215 | 8.0 | 14.5 | 0.00 | 0.00 | 0.00 | 76 | 1002.1 |
| 20260507071904 | 9 | 216 | 8.0 | 14.5 | 0.00 | 0.00 | 0.00 | 75 | 1002.2 |
| 20260507071803 | 9 | 215 | 8.0 | 14.5 | 0.00 | 0.00 | 0.00 | 77 | 1002.1 |
| 20260507071704 | 9 | 215 | 8.0 | 14.5 | 0.00 | 0.00 | 0.00 | 77 | 1002.3 |
| 20260507071604 | 9 | 214 | 8.0 | 14.5 | 0.00 | 0.00 | 0.00 | 76 | 1002.3 |
| 20260507071524 | 9 | 209 | 8.0 | 14.5 | 0.00 | 0.00 | 0.00 | 75 | 1002.3 |
| 20260507071404 | 9 | 206 | 8.0 | 16.1 | 0.00 | 0.00 | 0.00 | 77 | 1001.9 |
| 20260507071324 | 9 | 206 | 8.0 | 16.1 | 0.00 | 0.00 | 0.00 | 77 | 1001.9 |
| 20260507071204 | 9 | 205 | 9.7 | 16.1 | 0.00 | 0.00 | 0.00 | 77 | 1002.1 |
| 20260507071125 | 9 | 204 | 9.7 | 16.1 | 0.00 | 0.00 | 0.00 | 77 | 1002.1 |
| 20260507071003 | 9 | 197 | 9.7 | 16.1 | 0.00 | 0.00 | 0.00 | 77 | 1002.2 |
| 20260507070904 | 10 | 195 | 9.7 | 16.1 | 0.00 | 0.00 | 0.00 | 77 | 1002.2 |
| 20260507070803 | 10 | 193 | 8.0 | 16.1 | 0.00 | 0.00 | 0.00 | 76 | 1002.1 |
| 20260507070704 | 10 | 191 | 8.0 | 16.1 | 0.00 | 0.00 | 0.00 | 75 | 1002.2 |
| 20260507070603 | 10 | 185 | 8.0 | 16.1 | 0.00 | 0.00 | 0.00 | 76 | 1002.2 |
| 20260507070504 | 10 | 183 | 8.0 | 16.1 | 0.00 | 0.00 | 0.00 | 76 | 1002.2 |
| 20260507070403 | 10 | 185 | 8.0 | 16.1 | 0.00 | 0.00 | 0.00 | 76 | 1002.1 |
| 20260507070304 | 10 | 183 | 8.0 | 12.9 | 0.00 | 0.00 | 0.00 | 75 | 1002.0 |
| 20260507070203 | 10 | 179 | 8.0 | 12.9 | 0.00 | 0.00 | 0.00 | 76 | 1002.4 |
| 20260507070104 | 10 | 175 | 8.0 | 12.9 | 0.00 | 0.00 | 0.00 | 75 | 1002.2 |
| 20260507070008 | 10 | 182 | 8.0 | 12.9 | 0.00 | 0.00 | 0.00 | 75 | 1002.2 |
| 20260507065925 | 10 | 184 | 8.0 | 14.5 | 0.00 | 0.00 | 0.00 | 77 | 1002.2 |
| 20260507065804 | 10 | 183 | 8.0 | 14.5 | 0.00 | 0.00 | 0.00 | 75 | 1002.0 |
| 20260507065724 | 10 | 179 | 8.0 | 14.5 | 0.00 | 0.00 | 0.00 | 76 | 1002.0 |
| 20260507065604 | 10 | 181 | 8.0 | 14.5 | 0.00 | 0.00 | 0.00 | 77 | 1002.2 |
| 20260507065503 | 10 | 185 | 8.0 | 14.5 | 0.00 | 0.00 | 0.00 | 77 | 1002.1 |
| 20260507065404 | 10 | 185 | 8.0 | 14.5 | 0.00 | 0.00 | 0.00 | 76 | 1002.1 |
| 20260507065306 | 10 | 183 | 8.0 | 14.5 | 0.00 | 0.00 | 0.00 | 76 | 1002.1 |
| 20260507065204 | 10 | 187 | 8.0 | 14.5 | 0.00 | 0.00 | 0.00 | 78 | 1002.1 |
| 20260507065104 | 10 | 190 | 8.0 | 14.5 | 0.00 | 0.00 | 0.00 | 77 | 1002.3 |
| 20260507065025 | 10 | 188 | 8.0 | 14.5 | 0.00 | 0.00 | 0.00 | 77 | 1002.3 |
| 20260507064904 | 9 | 185 | 8.0 | 14.5 | 0.00 | 0.00 | 0.00 | 77 | 1002.3 |
| 20260507064825 | 9 | 185 | 8.0 | 14.5 | 0.00 | 0.00 | 0.00 | 77 | 1002.3 |
| 20260507064704 | 9 | 191 | 8.0 | 12.9 | 0.00 | 0.00 | 0.00 | 77 | 1002.4 |
| 20260507064604 | 9 | 189 | 6.4 | 12.9 | 0.00 | 0.00 | 0.00 | 78 | 1002.2 |
| 20260507064504 | 9 | 189 | 6.4 | 12.9 | 0.00 | 0.00 | 0.00 | 77 | 1002.1 |
| 20260507064404 | 9 | 189 | 6.4 | 12.9 | 0.00 | 0.00 | 0.00 | 79 | 1002.1 |
| 20260507064325 | 9 | 190 | 6.4 | 12.9 | 0.00 | 0.00 | 0.00 | 79 | 1002.1 |
| 20260507064203 | 9 | 186 | 6.4 | 12.9 | 0.00 | 0.00 | 0.00 | 78 | 1002.1 |
| 20260507064104 | 9 | 182 | 6.4 | 12.9 | 0.00 | 0.00 | 0.00 | 77 | 1002.4 |
| 20260507064003 | 9 | 178 | 6.4 | 12.9 | 0.00 | 0.00 | 0.00 | 77 | 1002.2 |
| 20260507063904 | 9 | 177 | 4.8 | 11.3 | 0.00 | 0.00 | 0.00 | 78 | 1002.2 |
| 20260507063803 | 9 | 181 | 4.8 | 11.3 | 0.00 | 0.00 | 0.00 | 78 | 1002.2 |
| 20260507063704 | 9 | 184 | 4.8 | 12.9 | 0.00 | 0.00 | 0.00 | 78 | 1002.1 |
| 20260507063603 | 9 | 187 | 6.4 | 12.9 | 0.00 | 0.00 | 0.00 | 79 | 1002.2 |
| 20260507063503 | 9 | 188 | 6.4 | 12.9 | 0.00 | 0.00 | 0.00 | 78 | 1002.2 |
| 20260507063425 | 9 | 186 | 6.4 | 12.9 | 0.00 | 0.00 | 0.00 | 79 | 1002.2 |
| 20260507063324 | 9 | 190 | 6.4 | 12.9 | 0.00 | 0.00 | 0.00 | 79 | 1002.1 |
| 20260507063204 | 9 | 192 | 6.4 | 12.9 | 0.00 | 0.00 | 0.00 | 78 | 1002.3 |
| 20260507063103 | 9 | 191 | 6.4 | 12.9 | 0.00 | 0.00 | 0.00 | 78 | 1002.3 |
| 20260507063004 | 8 | 188 | 6.4 | 12.9 | 0.00 | 0.00 | 0.00 | 79 | 1002.1 |
| 20260507062904 | 8 | 189 | 6.4 | 12.9 | 0.00 | 0.00 | 0.00 | 80 | 1002.4 |
| 20260507062804 | 8 | 184 | 6.4 | 12.9 | 0.00 | 0.00 | 0.00 | 78 | 1002.1 |
| 20260507062703 | 9 | 177 | 6.4 | 12.9 | 0.00 | 0.00 | 0.00 | 79 | 1002.4 |
| 20260507062604 | 9 | 173 | 6.4 | 12.9 | 0.00 | 0.00 | 0.00 | 79 | 1002.3 |
| 20260507062503 | 9 | 170 | 6.4 | 11.3 | 0.00 | 0.00 | 0.00 | 80 | 1002.2 |
| 20260507062404 | 9 | 169 | 6.4 | 11.3 | 0.00 | 0.00 | 0.00 | 79 | 1002.3 |
| 20260507062306 | 9 | 162 | 4.8 | 11.3 | 0.00 | 0.00 | 0.00 | 79 | 1002.2 |
| 20260507062204 | 9 | 161 | 4.8 | 11.3 | 0.00 | 0.00 | 0.00 | 78 | 1002.4 |
| 20260507062125 | 9 | 164 | 4.8 | 11.3 | 0.00 | 0.00 | 0.00 | 78 | 1002.4 |
| 20260507062003 | 9 | 165 | 4.8 | 11.3 | 0.00 | 0.00 | 0.00 | 80 | 1002.3 |
| 20260507061904 | 8 | 161 | 4.8 | 11.3 | 0.00 | 0.00 | 0.00 | 79 | 1002.3 |
| 20260507061803 | 8 | 159 | 4.8 | 11.3 | 0.00 | 0.00 | 0.00 | 81 | 1002.3 |
| 20260507061725 | 8 | 161 | 4.8 | 14.5 | 0.00 | 0.00 | 0.00 | 80 | 1002.3 |
| 20260507061603 | 8 | 168 | 4.8 | 14.5 | 0.00 | 0.00 | 0.00 | 80 | 1002.3 |
| 20260507061504 | 8 | 171 | 4.8 | 14.5 | 0.00 | 0.00 | 0.00 | 79 | 1002.4 |
| 20260507061404 | 8 | 175 | 4.8 | 14.5 | 0.00 | 0.00 | 0.00 | 81 | 1002.4 |
| 20260507061304 | 8 | 178 | 4.8 | 14.5 | 0.00 | 0.00 | 0.00 | 80 | 1002.4 |
| 20260507061204 | 8 | 177 | 4.8 | 14.5 | 0.00 | 0.00 | 0.00 | 80 | 1002.3 |
| 20260507061104 | 8 | 177 | 4.8 | 14.5 | 0.00 | 0.00 | 0.00 | 80 | 1002.3 |
| 20260507061004 | 8 | 180 | 4.8 | 14.5 | 0.00 | 0.00 | 0.00 | 81 | 1002.3 |
| 20260507060925 | 8 | 181 | 4.8 | 14.5 | 0.00 | 0.00 | 0.00 | 80 | 1002.3 |
| 20260507060804 | 8 | 184 | 4.8 | 14.5 | 0.00 | 0.00 | 0.00 | 80 | 1002.2 |
| 20260507060703 | 8 | 190 | 4.8 | 14.5 | 0.00 | 0.00 | 0.00 | 80 | 1002.6 |
| 20260507060604 | 8 | 181 | 6.4 | 14.5 | 0.00 | 0.00 | 0.00 | 80 | 1002.4 |
| 20260507060504 | 8 | 175 | 4.8 | 11.3 | 0.00 | 0.00 | 0.00 | 80 | 1002.5 |
| 20260507060404 | 8 | 171 | 4.8 | 11.3 | 0.00 | 0.00 | 0.00 | 80 | 1002.4 |
| 20260507060304 | 8 | 169 | 4.8 | 11.3 | 0.00 | 0.00 | 0.00 | 80 | 1002.4 |
| 20260507060204 | 8 | 166 | 4.8 | 11.3 | 0.00 | 0.00 | 0.00 | 81 | 1002.5 |
| 20260507060104 | 8 | 167 | 4.8 | 11.3 | 0.00 | 0.00 | 0.00 | 80 | 1002.4 |
| 20260507060004 | 8 | 167 | 4.8 | 11.3 | 0.00 | 0.00 | 0.00 | 80 | 1002.6 |
| 20260507055903 | 8 | 168 | 4.8 | 12.9 | 0.00 | 0.00 | 0.00 | 80 | 1002.3 |
| 20260507055804 | 8 | 167 | 4.8 | 12.9 | 0.00 | 0.00 | 0.00 | 80 | 1002.4 |
| 20260507055703 | 8 | 164 | 4.8 | 12.9 | 0.00 | 0.00 | 0.00 | 80 | 1002.4 |
| 20260507055604 | 8 | 168 | 4.8 | 12.9 | 0.00 | 0.00 | 0.00 | 81 | 1002.3 |
| 20260507055503 | 8 | 167 | 4.8 | 12.9 | 0.00 | 0.00 | 0.00 | 81 | 1002.4 |
| 20260507055404 | 8 | 175 | 4.8 | 16.1 | 0.00 | 0.00 | 0.00 | 81 | 1002.2 |
| 20260507055306 | 8 | 174 | 6.4 | 16.1 | 0.00 | 0.00 | 0.00 | 81 | 1002.3 |
| 20260507055203 | 8 | 175 | 6.4 | 16.1 | 0.00 | 0.00 | 0.00 | 81 | 1002.4 |
| 20260507055104 | 8 | 174 | 6.4 | 16.1 | 0.00 | 0.00 | 0.00 | 81 | 1002.4 |
| 20260507055004 | 8 | 174 | 6.4 | 16.1 | 0.00 | 0.00 | 0.00 | 81 | 1002.5 |
| 20260507054904 | 8 | 174 | 6.4 | 16.1 | 0.00 | 0.00 | 0.00 | 81 | 1002.3 |
| 20260507054804 | 7 | 175 | 6.4 | 16.1 | 0.00 | 0.00 | 0.00 | 81 | 1002.2 |
| 20260507054704 | 7 | 175 | 6.4 | 16.1 | 0.00 | 0.00 | 0.00 | 82 | 1002.4 |
| 20260507054624 | 7 | 173 | 4.8 | 16.1 | 0.00 | 0.00 | 0.00 | 81 | 1002.4 |
| 20260507054503 | 7 | 176 | 4.8 | 16.1 | 0.00 | 0.00 | 0.00 | 82 | 1002.2 |
| 20260507054403 | 7 | 172 | 4.8 | 16.1 | 0.00 | 0.00 | 0.00 | 81 | 1002.2 |
| 20260507054303 | 7 | 170 | 4.8 | 12.9 | 0.00 | 0.00 | 0.00 | 81 | 1002.3 |
| 20260507054204 | 7 | 172 | 4.8 | 12.9 | 0.00 | 0.00 | 0.00 | 82 | 1002.2 |
| 20260507054103 | 7 | 176 | 3.2 | 12.9 | 0.00 | 0.00 | 0.00 | 81 | 1002.3 |
| 20260507054025 | 7 | 172 | 3.2 | 12.9 | 0.00 | 0.00 | 0.00 | 81 | 1002.3 |
| 20260507053903 | 7 | 175 | 3.2 | 6.4 | 0.00 | 0.00 | 0.00 | 82 | 1002.2 |
| 20260507053804 | 7 | 177 | 3.2 | 6.4 | 0.00 | 0.00 | 0.00 | 82 | 1002.2 |
| 20260507053703 | 7 | 173 | 3.2 | 6.4 | 0.00 | 0.00 | 0.00 | 83 | 1002.2 |
| 20260507053604 | 7 | 176 | 3.2 | 9.7 | 0.00 | 0.00 | 0.00 | 82 | 1002.5 |
| 20260507053503 | 7 | 176 | 3.2 | 9.7 | 0.00 | 0.00 | 0.00 | 82 | 1002.3 |
| 20260507053404 | 7 | 175 | 3.2 | 9.7 | 0.00 | 0.00 | 0.00 | 82 | 1002.0 |
| 20260507053303 | 7 | 179 | 3.2 | 9.7 | 0.00 | 0.00 | 0.00 | 82 | 1002.4 |
| 20260507053204 | 7 | 174 | 3.2 | 9.7 | 0.00 | 0.00 | 0.00 | 83 | 1002.4 |
| 20260507053104 | 7 | 172 | 3.2 | 9.7 | 0.00 | 0.00 | 0.00 | 83 | 1002.2 |
| 20260507053004 | 7 | 171 | 3.2 | 9.7 | 0.00 | 0.00 | 0.00 | 83 | 1002.4 |
| 20260507052903 | 7 | 170 | 3.2 | 9.7 | 0.00 | 0.00 | 0.00 | 83 | 1002.1 |
| 20260507052803 | 7 | 170 | 3.2 | 9.7 | 0.00 | 0.00 | 0.00 | 83 | 1002.3 |
| 20260507052704 | 7 | 171 | 3.2 | 9.7 | 0.00 | 0.00 | 0.00 | 83 | 1002.4 |
| 20260507052624 | 7 | 169 | 3.2 | 9.7 | 0.00 | 0.00 | 0.00 | 82 | 1002.4 |
| 20260507052525 | 7 | 170 | 4.8 | 9.7 | 0.00 | 0.00 | 0.00 | 82 | 1002.3 |
| 20260507052403 | 7 | 171 | 4.8 | 6.4 | 0.00 | 0.00 | 0.00 | 82 | 1002.3 |
| 20260507052325 | 7 | 169 | 4.8 | 6.4 | 0.00 | 0.00 | 0.00 | 82 | 1002.3 |
| 20260507052224 | 7 | 168 | 4.8 | 6.4 | 0.00 | 0.00 | 0.00 | 83 | 1002.3 |
| 20260507052103 | 7 | 172 | 4.8 | 6.4 | 0.00 | 0.00 | 0.00 | 82 | 1002.3 |
| 20260507052004 | 7 | 173 | 3.2 | 6.4 | 0.00 | 0.00 | 0.00 | 83 | 1002.3 |
| 20260507051903 | 7 | 174 | 3.2 | 6.4 | 0.00 | 0.00 | 0.00 | 84 | 1002.3 |
| 20260507051825 | 7 | 176 | 3.2 | 6.4 | 0.00 | 0.00 | 0.00 | 83 | 1002.3 |
| 20260507051703 | 7 | 176 | 3.2 | 6.4 | 0.00 | 0.00 | 0.00 | 83 | 1002.4 |
| 20260507051603 | 7 | 172 | 3.2 | 6.4 | 0.00 | 0.00 | 0.00 | 84 | 1002.4 |
| 20260507051503 | 7 | 171 | 3.2 | 6.4 | 0.00 | 0.00 | 0.00 | 84 | 1002.2 |
| 20260507051403 | 6 | 174 | 3.2 | 6.4 | 0.00 | 0.00 | 0.00 | 84 | 1002.4 |
| 20260507051303 | 6 | 174 | 3.2 | 6.4 | 0.00 | 0.00 | 0.00 | 84 | 1002.2 |
| 20260507051203 | 6 | 170 | 3.2 | 6.4 | 0.00 | 0.00 | 0.00 | 84 | 1002.3 |
| 20260507051104 | 6 | 169 | 3.2 | 6.4 | 0.00 | 0.00 | 0.00 | 84 | 1002.2 |
| 20260507051003 | 6 | 170 | 3.2 | 6.4 | 0.00 | 0.00 | 0.00 | 84 | 1002.2 |
| 20260507050904 | 6 | 172 | 3.2 | 6.4 | 0.00 | 0.00 | 0.00 | 84 | 1002.2 |
| 20260507050804 | 6 | 174 | 3.2 | 9.7 | 0.00 | 0.00 | 0.00 | 84 | 1002.3 |
| 20260507050704 | 6 | 173 | 3.2 | 9.7 | 0.00 | 0.00 | 0.00 | 84 | 1002.2 |
| 20260507050603 | 6 | 174 | 3.2 | 9.7 | 0.00 | 0.00 | 0.00 | 84 | 1002.2 |
| 20260507050504 | 6 | 171 | 3.2 | 9.7 | 0.00 | 0.00 | 0.00 | 84 | 1002.3 |
| 20260507050404 | 6 | 172 | 3.2 | 9.7 | 0.00 | 0.00 | 0.00 | 84 | 1002.3 |
| 20260507050303 | 6 | 173 | 3.2 | 9.7 | 0.00 | 0.00 | 0.00 | 85 | 1001.9 |
| 20260507050204 | 6 | 176 | 3.2 | 9.7 | 0.00 | 0.00 | 0.00 | 84 | 1002.4 |
| 20260507050103 | 6 | 179 | 4.8 | 11.3 | 0.00 | 0.00 | 0.00 | 84 | 1002.4 |
| 20260507050004 | 6 | 182 | 4.8 | 11.3 | 0.00 | 0.00 | 0.00 | 84 | 1002.2 |
| 20260507045903 | 6 | 179 | 4.8 | 11.3 | 0.00 | 0.00 | 0.00 | 84 | 1002.3 |
| 20260507045804 | 6 | 180 | 4.8 | 11.3 | 0.00 | 0.00 | 0.00 | 84 | 1002.5 |
| 20260507045703 | 6 | 181 | 4.8 | 11.3 | 0.00 | 0.00 | 0.00 | 84 | 1002.3 |
| 20260507045624 | 6 | 183 | 4.8 | 11.3 | 0.00 | 0.00 | 0.00 | 84 | 1002.3 |
| 20260507045503 | 6 | 187 | 4.8 | 11.3 | 0.00 | 0.00 | 0.00 | 84 | 1002.2 |
| 20260507045404 | 6 | 192 | 4.8 | 11.3 | 0.00 | 0.00 | 0.00 | 85 | 1002.3 |
| 20260507045306 | 6 | 191 | 4.8 | 11.3 | 0.00 | 0.00 | 0.00 | 85 | 1002.2 |
| 20260507045204 | 6 | 192 | 4.8 | 11.3 | 0.00 | 0.00 | 0.00 | 85 | 1002.2 |
| 20260507045104 | 6 | 191 | 4.8 | 11.3 | 0.00 | 0.00 | 0.00 | 85 | 1002.0 |
| 20260507045004 | 6 | 188 | 3.2 | 11.3 | 0.00 | 0.00 | 0.00 | 85 | 1002.2 |
| 20260507044903 | 6 | 187 | 3.2 | 9.7 | 0.00 | 0.00 | 0.00 | 85 | 1002.1 |
| 20260507044803 | 6 | 186 | 3.2 | 9.7 | 0.00 | 0.00 | 0.00 | 85 | 1002.2 |
| 20260507044703 | 6 | 183 | 3.2 | 9.7 | 0.00 | 0.00 | 0.00 | 85 | 1002.1 |
| 20260507044603 | 6 | 181 | 3.2 | 9.7 | 0.00 | 0.00 | 0.00 | 85 | 1002.2 |
| 20260507044504 | 6 | 179 | 3.2 | 9.7 | 0.00 | 0.00 | 0.00 | 85 | 1002.2 |
| 20260507044403 | 6 | 177 | 3.2 | 9.7 | 0.00 | 0.00 | 0.00 | 85 | 1002.4 |
| 20260507044304 | 6 | 176 | 4.8 | 9.7 | 0.00 | 0.00 | 0.00 | 85 | 1002.3 |
| 20260507044203 | 6 | 178 | 4.8 | 9.7 | 0.00 | 0.00 | 0.00 | 85 | 1002.3 |
| 20260507044103 | 6 | 177 | 4.8 | 9.7 | 0.00 | 0.00 | 0.00 | 85 | 1002.1 |
| 20260507044003 | 6 | 181 | 4.8 | 9.7 | 0.00 | 0.00 | 0.00 | 85 | 1002.2 |
| 20260507043904 | 6 | 181 | 4.8 | 9.7 | 0.00 | 0.00 | 0.00 | 85 | 1002.1 |
| 20260507043824 | 6 | 180 | 4.8 | 9.7 | 0.00 | 0.00 | 0.00 | 84 | 1002.1 |
| 20260507043704 | 6 | 182 | 4.8 | 9.7 | 0.00 | 0.00 | 0.00 | 85 | 1002.2 |
| 20260507043603 | 6 | 182 | 4.8 | 9.7 | 0.00 | 0.00 | 0.00 | 84 | 1002.1 |
| 20260507043504 | 6 | 183 | 4.8 | 9.7 | 0.00 | 0.00 | 0.00 | 84 | 1002.1 |
| 20260507043403 | 6 | 180 | 4.8 | 9.7 | 0.00 | 0.00 | 0.00 | 84 | 1002.1 |
| 20260507043304 | 6 | 179 | 4.8 | 9.7 | 0.00 | 0.00 | 0.00 | 84 | 1002.1 |
| 20260507043203 | 6 | 176 | 4.8 | 11.3 | 0.00 | 0.00 | 0.00 | 85 | 1002.0 |
| 20260507043104 | 6 | 176 | 4.8 | 11.3 | 0.00 | 0.00 | 0.00 | 85 | 1002.1 |
| 20260507043003 | 6 | 171 | 4.8 | 11.3 | 0.00 | 0.00 | 0.00 | 85 | 1002.0 |
| 20260507042904 | 6 | 173 | 4.8 | 11.3 | 0.00 | 0.00 | 0.00 | 84 | 1002.1 |
| 20260507042824 | 6 | 173 | 4.8 | 11.3 | 0.00 | 0.00 | 0.00 | 84 | 1002.1 |
| 20260507042703 | 6 | 171 | 3.2 | 11.3 | 0.00 | 0.00 | 0.00 | 85 | 1002.2 |
| 20260507042604 | 6 | 172 | 4.8 | 11.3 | 0.00 | 0.00 | 0.00 | 84 | 1002.0 |
| 20260507042503 | 6 | 172 | 4.8 | 11.3 | 0.00 | 0.00 | 0.00 | 84 | 1002.4 |
| 20260507042403 | 6 | 175 | 4.8 | 11.3 | 0.00 | 0.00 | 0.00 | 84 | 1002.1 |
| 20260507042306 | 6 | 175 | 3.2 | 11.3 | 0.00 | 0.00 | 0.00 | 85 | 1002.2 |
| 20260507042203 | 6 | 175 | 4.8 | 11.3 | 0.00 | 0.00 | 0.00 | 85 | 1002.1 |
| 20260507042124 | 6 | 176 | 3.2 | 6.4 | 0.00 | 0.00 | 0.00 | 85 | 1002.1 |
| 20260507042025 | 6 | 177 | 3.2 | 6.4 | 0.00 | 0.00 | 0.00 | 85 | 1002.2 |
| 20260507041904 | 6 | 181 | 3.2 | 6.4 | 0.00 | 0.00 | 0.00 | 85 | 1002.1 |
| 20260507041803 | 6 | 185 | 3.2 | 6.4 | 0.00 | 0.00 | 0.00 | 85 | 1002.3 |
| 20260507041704 | 6 | 187 | 3.2 | 6.4 | 0.00 | 0.00 | 0.00 | 85 | 1002.1 |
| 20260507041603 | 6 | 191 | 3.2 | 6.4 | 0.00 | 0.00 | 0.00 | 85 | 1002.1 |
| 20260507041503 | 6 | 193 | 3.2 | 6.4 | 0.00 | 0.00 | 0.00 | 85 | 1002.1 |
| 20260507041403 | 6 | 196 | 3.2 | 6.4 | 0.00 | 0.00 | 0.00 | 85 | 1002.2 |
| 20260507041303 | 5 | 199 | 3.2 | 6.4 | 0.00 | 0.00 | 0.00 | 85 | 1001.9 |
| 20260507041203 | 5 | 202 | 3.2 | 6.4 | 0.00 | 0.00 | 0.00 | 85 | 1002.3 |
| 20260507041103 | 6 | 204 | 3.2 | 6.4 | 0.00 | 0.00 | 0.00 | 86 | 1002.1 |
| 20260507041003 | 6 | 204 | 3.2 | 6.4 | 0.00 | 0.00 | 0.00 | 85 | 1002.1 |
| 20260507040925 | 6 | 203 | 3.2 | 6.4 | 0.00 | 0.00 | 0.00 | 85 | 1002.1 |
| 20260507040803 | 6 | 203 | 3.2 | 6.4 | 0.00 | 0.00 | 0.00 | 85 | 1002.2 |
| 20260507040704 | 6 | 205 | 4.8 | 6.4 | 0.00 | 0.00 | 0.00 | 85 | 1002.1 |
| 20260507040603 | 6 | 203 | 4.8 | 6.4 | 0.00 | 0.00 | 0.00 | 85 | 1002.1 |
| 20260507040504 | 6 | 203 | 4.8 | 6.4 | 0.00 | 0.00 | 0.00 | 85 | 1002.1 |
| 20260507040403 | 5 | 203 | 4.8 | 6.4 | 0.00 | 0.00 | 0.00 | 86 | 1002.3 |
| 20260507040303 | 5 | 204 | 4.8 | 6.4 | 0.00 | 0.00 | 0.00 | 85 | 1002.1 |
| 20260507040203 | 5 | 205 | 4.8 | 6.4 | 0.00 | 0.00 | 0.00 | 86 | 1002.2 |
| 20260507040004 | 5 | 205 | 4.8 | 6.4 | 0.00 | 0.00 | 0.00 | 85 | 1002.1 |
| 20260507035924 | 5 | 204 | 4.8 | 6.4 | 0.00 | 0.00 | 0.00 | 86 | 1002.1 |
| 20260507035804 | 5 | 202 | 4.8 | 6.4 | 0.00 | 0.00 | 0.00 | 86 | 1002.2 |
| 20260507035724 | 5 | 202 | 3.2 | 6.4 | 0.00 | 0.00 | 0.00 | 86 | 1002.2 |
| 20260507035604 | 5 | 199 | 3.2 | 6.4 | 0.00 | 0.00 | 0.00 | 86 | 1002.2 |
| 20260507035504 | 5 | 197 | 3.2 | 6.4 | 0.00 | 0.00 | 0.00 | 86 | 1002.2 |
| 20260507035403 | 5 | 195 | 3.2 | 6.4 | 0.00 | 0.00 | 0.00 | 86 | 1002.1 |
| 20260507035306 | 5 | 193 | 3.2 | 6.4 | 0.00 | 0.00 | 0.00 | 86 | 1002.3 |
| 20260507035225 | 5 | 191 | 3.2 | 6.4 | 0.00 | 0.00 | 0.00 | 86 | 1002.3 |
| 20260507035104 | 5 | 185 | 1.6 | 4.8 | 0.00 | 0.00 | 0.00 | 86 | 1002.3 |
| 20260507035004 | 5 | 185 | 1.6 | 4.8 | 0.00 | 0.00 | 0.00 | 86 | 1002.2 |
| 20260507034904 | 5 | 188 | 1.6 | 4.8 | 0.00 | 0.00 | 0.00 | 86 | 1002.3 |
| 20260507034803 | 5 | 188 | 1.6 | 4.8 | 0.00 | 0.00 | 0.00 | 85 | 1002.0 |
| 20260507034704 | 5 | 187 | 1.6 | 4.8 | 0.00 | 0.00 | 0.00 | 85 | 1002.1 |
| 20260507034603 | 5 | 189 | 1.6 | 4.8 | 0.00 | 0.00 | 0.00 | 85 | 1002.4 |
| 20260507034504 | 5 | 191 | 1.6 | 4.8 | 0.00 | 0.00 | 0.00 | 85 | 1002.1 |
| 20260507034424 | 5 | 192 | 3.2 | 4.8 | 0.00 | 0.00 | 0.00 | 85 | 1002.1 |
| 20260507034304 | 5 | 192 | 1.6 | 4.8 | 0.00 | 0.00 | 0.00 | 85 | 1002.1 |
| 20260507034204 | 5 | 191 | 1.6 | 4.8 | 0.00 | 0.00 | 0.00 | 85 | 1002.1 |
| 20260507034104 | 5 | 190 | 1.6 | 4.8 | 0.00 | 0.00 | 0.00 | 85 | 1002.2 |
| 20260507034004 | 5 | 189 | 1.6 | 4.8 | 0.00 | 0.00 | 0.00 | 85 | 1002.1 |
| 20260507033903 | 5 | 186 | 1.6 | 4.8 | 0.00 | 0.00 | 0.00 | 85 | 1002.3 |
| 20260507033804 | 5 | 182 | 1.6 | 4.8 | 0.00 | 0.00 | 0.00 | 85 | 1002.2 |
| 20260507033703 | 5 | 179 | 1.6 | 4.8 | 0.00 | 0.00 | 0.00 | 85 | 1002.2 |
| 20260507033603 | 5 | 175 | 1.6 | 4.8 | 0.00 | 0.00 | 0.00 | 85 | 1002.0 |
| 20260507033503 | 5 | 170 | 3.2 | 4.8 | 0.00 | 0.00 | 0.00 | 85 | 1002.3 |
| 20260507033404 | 5 | 168 | 1.6 | 4.8 | 0.00 | 0.00 | 0.00 | 85 | 1002.2 |
| 20260507033303 | 5 | 168 | 3.2 | 4.8 | 0.00 | 0.00 | 0.00 | 85 | 1002.3 |
| 20260507033204 | 5 | 168 | 3.2 | 4.8 | 0.00 | 0.00 | 0.00 | 85 | 1002.3 |
| 20260507033104 | 5 | 167 | 3.2 | 4.8 | 0.00 | 0.00 | 0.00 | 85 | 1002.1 |
| 20260507033003 | 5 | 167 | 3.2 | 4.8 | 0.00 | 0.00 | 0.00 | 85 | 1002.2 |
| 20260507032903 | 5 | 166 | 1.6 | 4.8 | 0.00 | 0.00 | 0.00 | 85 | 1002.2 |
| 20260507032803 | 5 | 166 | 1.6 | 4.8 | 0.00 | 0.00 | 0.00 | 85 | 1002.1 |
| 20260507032703 | 5 | 165 | 1.6 | 4.8 | 0.00 | 0.00 | 0.00 | 85 | 1002.2 |
| 20260507032624 | 5 | 165 | 1.6 | 11.3 | 0.00 | 0.00 | 0.00 | 85 | 1002.2 |
| 20260507032504 | 5 | 164 | 1.6 | 11.3 | 0.00 | 0.00 | 0.00 | 86 | 1002.2 |
| 20260507032403 | 5 | 162 | 1.6 | 11.3 | 0.00 | 0.00 | 0.00 | 85 | 1002.1 |
| 20260507032305 | 5 | 160 | 3.2 | 11.3 | 0.00 | 0.00 | 0.00 | 85 | 1002.5 |
| 20260507032203 | 5 | 159 | 3.2 | 11.3 | 0.00 | 0.00 | 0.00 | 85 | 1002.2 |
| 20260507032103 | 5 | 158 | 3.2 | 11.3 | 0.00 | 0.00 | 0.00 | 85 | 1002.4 |
| 20260507032004 | 5 | 156 | 3.2 | 11.3 | 0.00 | 0.00 | 0.00 | 85 | 1002.1 |
| 20260507031903 | 5 | 155 | 3.2 | 11.3 | 0.00 | 0.00 | 0.00 | 85 | 1002.2 |
| 20260507031803 | 5 | 155 | 3.2 | 11.3 | 0.00 | 0.00 | 0.00 | 85 | 1002.3 |
| 20260507031703 | 5 | 155 | 3.2 | 11.3 | 0.00 | 0.00 | 0.00 | 85 | 1002.2 |
| 20260507031604 | 5 | 154 | 3.2 | 11.3 | 0.00 | 0.00 | 0.00 | 85 | 1002.4 |
| 20260507031503 | 6 | 154 | 3.2 | 6.4 | 0.00 | 0.00 | 0.00 | 85 | 1002.2 |
| 20260507031404 | 6 | 154 | 3.2 | 6.4 | 0.00 | 0.00 | 0.00 | 85 | 1002.2 |
| 20260507031304 | 6 | 155 | 3.2 | 6.4 | 0.00 | 0.00 | 0.00 | 85 | 1002.3 |
| 20260507031203 | 6 | 155 | 3.2 | 6.4 | 0.00 | 0.00 | 0.00 | 85 | 1002.2 |
| 20260507031103 | 6 | 157 | 1.6 | 4.8 | 0.00 | 0.00 | 0.00 | 85 | 1002.3 |
| 20260507031003 | 5 | 158 | 1.6 | 4.8 | 0.00 | 0.00 | 0.00 | 85 | 1002.3 |
| 20260507030904 | 5 | 158 | 1.6 | 4.8 | 0.00 | 0.00 | 0.00 | 85 | 1002.2 |
| 20260507030824 | 5 | 158 | 1.6 | 4.8 | 0.00 | 0.00 | 0.00 | 85 | 1002.2 |
| 20260507030704 | 6 | 154 | 1.6 | 6.4 | 0.00 | 0.00 | 0.00 | 85 | 1002.1 |
| 20260507030625 | 6 | 154 | 1.6 | 6.4 | 0.00 | 0.00 | 0.00 | 84 | 1002.1 |
| 20260507030503 | 6 | 151 | 3.2 | 6.4 | 0.00 | 0.00 | 0.00 | 84 | 1002.2 |
| 20260507030404 | 6 | 150 | 3.2 | 6.4 | 0.00 | 0.00 | 0.00 | 84 | 1002.2 |
| 20260507030303 | 6 | 148 | 3.2 | 6.4 | 0.00 | 0.00 | 0.00 | 84 | 1002.4 |
| 20260507030203 | 6 | 147 | 3.2 | 6.4 | 0.00 | 0.00 | 0.00 | 84 | 1002.5 |
| 20260507030004 | 6 | 145 | 3.2 | 6.4 | 0.00 | 0.00 | 0.00 | 84 | 1002.4 |
| 20260507025903 | 6 | 144 | 3.2 | 6.4 | 0.00 | 0.00 | 0.00 | 84 | 1002.2 |
| 20260507025804 | 6 | 143 | 3.2 | 6.4 | 0.00 | 0.00 | 0.00 | 84 | 1002.2 |
| 20260507025703 | 6 | 143 | 3.2 | 6.4 | 0.00 | 0.00 | 0.00 | 84 | 1002.2 |
| 20260507025604 | 6 | 141 | 3.2 | 6.4 | 0.00 | 0.00 | 0.00 | 84 | 1002.3 |
| 20260507025503 | 6 | 140 | 3.2 | 6.4 | 0.00 | 0.00 | 0.00 | 84 | 1002.2 |
| 20260507025404 | 6 | 139 | 3.2 | 6.4 | 0.00 | 0.00 | 0.00 | 84 | 1002.3 |
| 20260507025306 | 6 | 140 | 3.2 | 6.4 | 0.00 | 0.00 | 0.00 | 84 | 1002.4 |
| 20260507025204 | 6 | 140 | 3.2 | 6.4 | 0.00 | 0.00 | 0.00 | 84 | 1002.3 |
| 20260507025103 | 6 | 137 | 3.2 | 6.4 | 0.00 | 0.00 | 0.00 | 83 | 1002.3 |
| 20260507025004 | 6 | 137 | 3.2 | 6.4 | 0.00 | 0.00 | 0.00 | 84 | 1002.1 |
| 20260507024903 | 6 | 139 | 3.2 | 6.4 | 0.00 | 0.00 | 0.00 | 83 | 1002.3 |
| 20260507024824 | 6 | 139 | 3.2 | 6.4 | 0.00 | 0.00 | 0.00 | 84 | 1002.3 |
| 20260507024703 | 6 | 145 | 3.2 | 6.4 | 0.00 | 0.00 | 0.00 | 84 | 1002.2 |
| 20260507024624 | 6 | 146 | 3.2 | 6.4 | 0.00 | 0.00 | 0.00 | 84 | 1002.2 |
| 20260507024524 | 6 | 151 | 3.2 | 6.4 | 0.00 | 0.00 | 0.00 | 83 | 1002.2 |
| 20260507024403 | 6 | 154 | 3.2 | 6.4 | 0.00 | 0.00 | 0.00 | 83 | 1002.3 |
| 20260507024304 | 6 | 158 | 3.2 | 6.4 | 0.00 | 0.00 | 0.00 | 83 | 1002.3 |
| 20260507024203 | 6 | 159 | 3.2 | 6.4 | 0.00 | 0.00 | 0.00 | 83 | 1002.3 |
| 20260507024103 | 6 | 159 | 3.2 | 6.4 | 0.00 | 0.00 | 0.00 | 83 | 1002.3 |
| 20260507024003 | 6 | 162 | 3.2 | 6.4 | 0.00 | 0.00 | 0.00 | 83 | 1002.4 |
| 20260507023924 | 6 | 162 | 3.2 | 6.4 | 0.00 | 0.00 | 0.00 | 83 | 1002.4 |
| 20260507023824 | 6 | 159 | 3.2 | 6.4 | 0.00 | 0.00 | 0.00 | 83 | 1002.3 |
| 20260507023703 | 6 | 148 | 3.2 | 6.4 | 0.00 | 0.00 | 0.00 | 83 | 1002.3 |
| 20260507023603 | 6 | 147 | 3.2 | 4.8 | 0.00 | 0.00 | 0.00 | 83 | 1002.3 |
| 20260507023503 | 6 | 142 | 3.2 | 4.8 | 0.00 | 0.00 | 0.00 | 83 | 1002.2 |
| 20260507023403 | 6 | 141 | 3.2 | 4.8 | 0.00 | 0.00 | 0.00 | 83 | 1002.3 |
| 20260507023304 | 6 | 139 | 3.2 | 4.8 | 0.00 | 0.00 | 0.00 | 83 | 1002.2 |
| 20260507023203 | 6 | 140 | 3.2 | 6.4 | 0.00 | 0.00 | 0.00 | 83 | 1002.3 |
| 20260507023103 | 6 | 139 | 3.2 | 6.4 | 0.00 | 0.00 | 0.00 | 83 | 1002.5 |
| 20260507023003 | 6 | 140 | 3.2 | 6.4 | 0.00 | 0.00 | 0.00 | 83 | 1002.2 |
| 20260507022903 | 6 | 141 | 3.2 | 6.4 | 0.00 | 0.00 | 0.00 | 83 | 1002.4 |
| 20260507022803 | 6 | 143 | 3.2 | 6.4 | 0.00 | 0.00 | 0.00 | 83 | 1002.4 |
| 20260507022703 | 6 | 146 | 3.2 | 9.7 | 0.00 | 0.00 | 0.00 | 83 | 1002.3 |
| 20260507022603 | 6 | 148 | 3.2 | 9.7 | 0.00 | 0.00 | 0.00 | 83 | 1002.4 |
| 20260507022504 | 6 | 152 | 3.2 | 9.7 | 0.00 | 0.00 | 0.00 | 83 | 1002.5 |
| 20260507022403 | 6 | 149 | 4.8 | 9.7 | 0.00 | 0.00 | 0.00 | 82 | 1002.5 |
| 20260507022306 | 6 | 147 | 4.8 | 9.7 | 0.00 | 0.00 | 0.00 | 82 | 1002.4 |
| 20260507022204 | 6 | 148 | 4.8 | 9.7 | 0.00 | 0.00 | 0.00 | 82 | 1002.5 |
| 20260507022103 | 6 | 148 | 4.8 | 9.7 | 0.00 | 0.00 | 0.00 | 82 | 1002.3 |
| 20260507022003 | 6 | 147 | 4.8 | 11.3 | 0.00 | 0.00 | 0.00 | 82 | 1002.3 |
| 20260507021904 | 6 | 147 | 4.8 | 11.3 | 0.00 | 0.00 | 0.00 | 82 | 1002.3 |
| 20260507021803 | 6 | 147 | 4.8 | 11.3 | 0.00 | 0.00 | 0.00 | 82 | 1002.4 |
| 20260507021703 | 6 | 148 | 4.8 | 11.3 | 0.00 | 0.00 | 0.00 | 82 | 1002.1 |
| 20260507021603 | 6 | 144 | 4.8 | 11.3 | 0.00 | 0.00 | 0.00 | 82 | 1002.3 |
| 20260507021504 | 6 | 141 | 4.8 | 11.3 | 0.00 | 0.00 | 0.00 | 82 | 1002.2 |
| 20260507021424 | 6 | 141 | 4.8 | 11.3 | 0.00 | 0.00 | 0.00 | 82 | 1002.2 |
| 20260507021303 | 6 | 142 | 4.8 | 11.3 | 0.00 | 0.00 | 0.00 | 81 | 1002.3 |
| 20260507021203 | 6 | 139 | 4.8 | 11.3 | 0.00 | 0.00 | 0.00 | 81 | 1002.4 |
| 20260507021103 | 6 | 140 | 4.8 | 11.3 | 0.00 | 0.00 | 0.00 | 81 | 1002.2 |
| 20260507021024 | 6 | 139 | 4.8 | 11.3 | 0.00 | 0.00 | 0.00 | 81 | 1002.2 |
| 20260507020903 | 6 | 136 | 4.8 | 6.4 | 0.00 | 0.00 | 0.00 | 82 | 1002.3 |
| 20260507020803 | 6 | 136 | 4.8 | 6.4 | 0.00 | 0.00 | 0.00 | 82 | 1002.4 |
| 20260507020703 | 6 | 133 | 4.8 | 6.4 | 0.00 | 0.00 | 0.00 | 82 | 1002.4 |
| 20260507020603 | 6 | 135 | 4.8 | 6.4 | 0.00 | 0.00 | 0.00 | 82 | 1002.4 |
| 20260507020503 | 6 | 134 | 4.8 | 6.4 | 0.00 | 0.00 | 0.00 | 82 | 1002.3 |
| 20260507020403 | 6 | 132 | 4.8 | 6.4 | 0.00 | 0.00 | 0.00 | 81 | 1002.5 |
| 20260507020303 | 6 | 131 | 4.8 | 6.4 | 0.00 | 0.00 | 0.00 | 81 | 1002.2 |
| 20260507020203 | 6 | 130 | 4.8 | 6.4 | 0.00 | 0.00 | 0.00 | 81 | 1002.6 |
| 20260507020125 | 6 | 130 | 4.8 | 6.4 | 0.00 | 0.00 | 0.00 | 81 | 1002.6 |
| 20260507020004 | 6 | 129 | 4.8 | 6.4 | 0.00 | 0.00 | 0.00 | 81 | 1002.4 |
| 20260507015903 | 6 | 130 | 4.8 | 6.4 | 0.00 | 0.00 | 0.00 | 81 | 1002.5 |
| 20260507015803 | 6 | 129 | 4.8 | 6.4 | 0.00 | 0.00 | 0.00 | 81 | 1002.4 |
| 20260507015703 | 6 | 129 | 4.8 | 6.4 | 0.00 | 0.00 | 0.00 | 82 | 1002.3 |
| 20260507015624 | 6 | 128 | 4.8 | 6.4 | 0.00 | 0.00 | 0.00 | 81 | 1002.3 |
| 20260507015503 | 6 | 128 | 4.8 | 6.4 | 0.00 | 0.00 | 0.00 | 81 | 1002.6 |
| 20260507015403 | 6 | 129 | 4.8 | 6.4 | 0.00 | 0.00 | 0.00 | 81 | 1002.4 |
| 20260507015306 | 6 | 130 | 4.8 | 6.4 | 0.00 | 0.00 | 0.00 | 81 | 1002.1 |
| 20260507015203 | 6 | 129 | 4.8 | 6.4 | 0.00 | 0.00 | 0.00 | 81 | 1002.4 |
| 20260507015104 | 6 | 130 | 4.8 | 6.4 | 0.00 | 0.00 | 0.00 | 81 | 1002.4 |
| 20260507015024 | 6 | 131 | 4.8 | 6.4 | 0.00 | 0.00 | 0.00 | 81 | 1002.4 |
| 20260507014903 | 6 | 128 | 4.8 | 6.4 | 0.00 | 0.00 | 0.00 | 81 | 1002.3 |
| 20260507014803 | 6 | 129 | 4.8 | 6.4 | 0.00 | 0.00 | 0.00 | 81 | 1002.6 |
| 20260507014704 | 6 | 129 | 4.8 | 6.4 | 0.00 | 0.00 | 0.00 | 81 | 1002.3 |
| 20260507014624 | 6 | 130 | 4.8 | 6.4 | 0.00 | 0.00 | 0.00 | 81 | 1002.3 |
| 20260507014503 | 6 | 131 | 4.8 | 6.4 | 0.00 | 0.00 | 0.00 | 81 | 1002.4 |
| 20260507014403 | 6 | 130 | 4.8 | 9.7 | 0.00 | 0.00 | 0.00 | 80 | 1002.6 |
| 20260507014304 | 6 | 130 | 4.8 | 9.7 | 0.00 | 0.00 | 0.00 | 81 | 1002.5 |
| 20260507014203 | 6 | 132 | 4.8 | 9.7 | 0.00 | 0.00 | 0.00 | 81 | 1002.4 |
| 20260507014104 | 6 | 131 | 4.8 | 9.7 | 0.00 | 0.00 | 0.00 | 81 | 1002.6 |
| 20260507014003 | 6 | 132 | 4.8 | 9.7 | 0.00 | 0.00 | 0.00 | 81 | 1002.5 |
| 20260507013904 | 6 | 133 | 4.8 | 9.7 | 0.00 | 0.00 | 0.00 | 81 | 1002.2 |
| 20260507013803 | 6 | 134 | 4.8 | 9.7 | 0.00 | 0.00 | 0.00 | 80 | 1002.4 |
| 20260507013703 | 7 | 136 | 4.8 | 9.7 | 0.00 | 0.00 | 0.00 | 80 | 1002.6 |
| 20260507013603 | 7 | 138 | 4.8 | 9.7 | 0.00 | 0.00 | 0.00 | 79 | 1002.4 |
| 20260507013524 | 7 | 138 | 4.8 | 9.7 | 0.00 | 0.00 | 0.00 | 80 | 1002.4 |
| 20260507013403 | 6 | 137 | 4.8 | 9.7 | 0.00 | 0.00 | 0.00 | 79 | 1002.4 |
| 20260507013303 | 6 | 138 | 4.8 | 9.7 | 0.00 | 0.00 | 0.00 | 79 | 1002.6 |
| 20260507013204 | 6 | 136 | 4.8 | 6.4 | 0.00 | 0.00 | 0.00 | 80 | 1002.6 |
| 20260507013124 | 6 | 138 | 4.8 | 9.7 | 0.00 | 0.00 | 0.00 | 80 | 1002.6 |
| 20260507013003 | 6 | 138 | 4.8 | 12.9 | 0.00 | 0.00 | 0.00 | 80 | 1002.4 |
| 20260507012903 | 6 | 138 | 4.8 | 12.9 | 0.00 | 0.00 | 0.00 | 79 | 1002.4 |
| 20260507012803 | 6 | 138 | 4.8 | 12.9 | 0.00 | 0.00 | 0.00 | 79 | 1002.6 |
| 20260507012704 | 6 | 134 | 4.8 | 12.9 | 0.00 | 0.00 | 0.00 | 80 | 1002.7 |
| 20260507012603 | 6 | 132 | 4.8 | 12.9 | 0.00 | 0.00 | 0.00 | 81 | 1002.7 |
| 20260507012503 | 6 | 132 | 4.8 | 12.9 | 0.00 | 0.00 | 0.00 | 81 | 1002.5 |
| 20260507012403 | 6 | 132 | 4.8 | 12.9 | 0.00 | 0.00 | 0.00 | 80 | 1002.6 |
| 20260507012306 | 7 | 132 | 4.8 | 12.9 | 0.00 | 0.00 | 0.00 | 79 | 1002.4 |
| 20260507012203 | 7 | 133 | 4.8 | 12.9 | 0.00 | 0.00 | 0.00 | 79 | 1002.3 |
| 20260507012104 | 6 | 131 | 4.8 | 12.9 | 0.00 | 0.00 | 0.00 | 79 | 1002.5 |
| 20260507012003 | 6 | 129 | 4.8 | 12.9 | 0.00 | 0.00 | 0.00 | 79 | 1002.5 |
| 20260507011903 | 6 | 127 | 4.8 | 9.7 | 0.00 | 0.00 | 0.00 | 81 | 1002.5 |
| 20260507011803 | 6 | 125 | 4.8 | 9.7 | 0.00 | 0.00 | 0.00 | 81 | 1002.5 |
| 20260507011703 | 6 | 126 | 4.8 | 9.7 | 0.00 | 0.00 | 0.00 | 81 | 1002.6 |
| 20260507011603 | 6 | 127 | 4.8 | 9.7 | 0.00 | 0.00 | 0.00 | 81 | 1002.5 |
| 20260507011504 | 6 | 126 | 3.2 | 9.7 | 0.00 | 0.00 | 0.00 | 82 | 1002.6 |
| 20260507011403 | 6 | 124 | 4.8 | 9.7 | 0.00 | 0.00 | 0.00 | 82 | 1002.6 |
| 20260507011303 | 6 | 126 | 4.8 | 9.7 | 0.00 | 0.00 | 0.00 | 81 | 1002.5 |
| 20260507011203 | 6 | 127 | 4.8 | 9.7 | 0.00 | 0.00 | 0.00 | 81 | 1002.4 |
| 20260507010903 | 6 | 132 | 4.8 | 9.7 | 0.00 | 0.00 | 0.00 | 80 | 1002.4 |
| 20260507010803 | 6 | 134 | 4.8 | 9.7 | 0.00 | 0.00 | 0.00 | 81 | 1002.7 |
| 20260507010704 | 6 | 137 | 3.2 | 9.7 | 0.00 | 0.00 | 0.00 | 80 | 1002.3 |
| 20260507010603 | 6 | 139 | 4.8 | 9.7 | 0.00 | 0.00 | 0.00 | 79 | 1002.5 |
| 20260507010503 | 6 | 140 | 4.8 | 9.7 | 0.00 | 0.00 | 0.00 | 79 | 1002.5 |
| 20260507010403 | 6 | 144 | 3.2 | 9.7 | 0.00 | 0.00 | 0.00 | 78 | 1002.5 |
| 20260507010303 | 6 | 144 | 3.2 | 6.4 | 0.00 | 0.00 | 0.00 | 79 | 1002.6 |
| 20260507010203 | 6 | 144 | 3.2 | 6.4 | 0.00 | 0.00 | 0.00 | 78 | 1002.4 |
| 20260507010003 | 6 | 148 | 3.2 | 6.4 | 0.00 | 0.00 | 0.00 | 78 | 1002.6 |
| 20260507005903 | 6 | 150 | 3.2 | 6.4 | 0.00 | 0.00 | 0.00 | 79 | 1002.8 |
| 20260507005803 | 6 | 153 | 3.2 | 6.4 | 0.00 | 0.00 | 0.00 | 79 | 1002.5 |
| 20260507005703 | 6 | 154 | 3.2 | 6.4 | 0.00 | 0.00 | 0.00 | 79 | 1002.4 |
| 20260507005603 | 6 | 155 | 3.2 | 6.4 | 0.00 | 0.00 | 0.00 | 79 | 1002.5 |
| 20260507005503 | 6 | 157 | 3.2 | 6.4 | 0.00 | 0.00 | 0.00 | 79 | 1002.6 |
| 20260507005403 | 6 | 160 | 3.2 | 6.4 | 0.00 | 0.00 | 0.00 | 79 | 1002.7 |
| 20260507005305 | 6 | 158 | 3.2 | 6.4 | 0.00 | 0.00 | 0.00 | 79 | 1002.7 |
| 20260507005203 | 6 | 158 | 3.2 | 6.4 | 0.00 | 0.00 | 0.00 | 80 | 1002.6 |
| 20260507005103 | 6 | 155 | 3.2 | 6.4 | 0.00 | 0.00 | 0.00 | 79 | 1002.6 |
| 20260507005003 | 6 | 151 | 3.2 | 6.4 | 0.00 | 0.00 | 0.00 | 79 | 1002.6 |
| 20260507004903 | 6 | 151 | 3.2 | 6.4 | 0.00 | 0.00 | 0.00 | 79 | 1002.7 |
| 20260507004824 | 6 | 149 | 3.2 | 6.4 | 0.00 | 0.00 | 0.00 | 79 | 1002.7 |
| 20260507004703 | 6 | 143 | 3.2 | 6.4 | 0.00 | 0.00 | 0.00 | 79 | 1002.5 |
| 20260507004603 | 6 | 140 | 3.2 | 6.4 | 0.00 | 0.00 | 0.00 | 79 | 1002.5 |
| 20260507004503 | 6 | 136 | 4.8 | 6.4 | 0.00 | 0.00 | 0.00 | 79 | 1002.6 |
| 20260507004403 | 6 | 132 | 4.8 | 6.4 | 0.00 | 0.00 | 0.00 | 79 | 1002.6 |
| 20260507004303 | 6 | 132 | 4.8 | 6.4 | 0.00 | 0.00 | 0.00 | 79 | 1002.3 |
| 20260507004224 | 6 | 131 | 4.8 | 6.4 | 0.00 | 0.00 | 0.00 | 79 | 1002.3 |
| 20260507004124 | 6 | 130 | 3.2 | 6.4 | 0.00 | 0.00 | 0.00 | 80 | 1002.5 |
| 20260507004024 | 6 | 132 | 3.2 | 6.4 | 0.00 | 0.00 | 0.00 | 80 | 1002.5 |
| 20260507003903 | 6 | 132 | 3.2 | 6.4 | 0.00 | 0.00 | 0.00 | 82 | 1002.5 |
| 20260507003803 | 6 | 131 | 3.2 | 6.4 | 0.00 | 0.00 | 0.00 | 82 | 1002.4 |
| 20260507003703 | 6 | 132 | 3.2 | 6.4 | 0.00 | 0.00 | 0.00 | 82 | 1002.5 |
| 20260507003603 | 6 | 134 | 3.2 | 6.4 | 0.00 | 0.00 | 0.00 | 82 | 1002.5 |
| 20260507003503 | 6 | 137 | 3.2 | 4.8 | 0.00 | 0.00 | 0.00 | 82 | 1002.7 |
| 20260507003403 | 6 | 142 | 3.2 | 6.4 | 0.00 | 0.00 | 0.00 | 81 | 1002.5 |
| 20260507003303 | 6 | 142 | 3.2 | 6.4 | 0.00 | 0.00 | 0.00 | 81 | 1002.6 |
| 20260507003224 | 6 | 143 | 3.2 | 6.4 | 0.00 | 0.00 | 0.00 | 80 | 1002.6 |
| 20260507003124 | 6 | 145 | 3.2 | 6.4 | 0.00 | 0.00 | 0.00 | 79 | 1002.5 |
| 20260507003003 | 6 | 145 | 3.2 | 6.4 | 0.00 | 0.00 | 0.00 | 79 | 1002.7 |
| 20260507002903 | 6 | 147 | 3.2 | 6.4 | 0.00 | 0.00 | 0.00 | 79 | 1002.6 |
| 20260507002803 | 6 | 147 | 3.2 | 6.4 | 0.00 | 0.00 | 0.00 | 79 | 1002.4 |
| 20260507002724 | 6 | 146 | 3.2 | 6.4 | 0.00 | 0.00 | 0.00 | 79 | 1002.4 |
| 20260507002603 | 6 | 146 | 3.2 | 6.4 | 0.00 | 0.00 | 0.00 | 79 | 1002.8 |
| 20260507002503 | 6 | 144 | 3.2 | 6.4 | 0.00 | 0.00 | 0.00 | 79 | 1002.6 |
| 20260507002403 | 6 | 144 | 3.2 | 6.4 | 0.00 | 0.00 | 0.00 | 79 | 1002.7 |
| 20260507002306 | 6 | 145 | 3.2 | 6.4 | 0.00 | 0.00 | 0.00 | 79 | 1002.5 |
| 20260507002224 | 6 | 143 | 3.2 | 6.4 | 0.00 | 0.00 | 0.00 | 79 | 1002.5 |
| 20260507002103 | 6 | 141 | 3.2 | 6.4 | 0.00 | 0.00 | 0.00 | 79 | 1002.5 |
| 20260507002004 | 6 | 141 | 3.2 | 6.4 | 0.00 | 0.00 | 0.00 | 79 | 1002.8 |
| 20260507001903 | 6 | 139 | 4.8 | 6.4 | 0.00 | 0.00 | 0.00 | 79 | 1002.8 |
| 20260507001825 | 6 | 140 | 4.8 | 6.4 | 0.00 | 0.00 | 0.00 | 79 | 1002.8 |
| 20260507001724 | 6 | 142 | 4.8 | 6.4 | 0.00 | 0.00 | 0.00 | 79 | 1002.6 |
| 20260507001603 | 6 | 141 | 4.8 | 6.4 | 0.00 | 0.00 | 0.00 | 79 | 1002.4 |
| 20260507001503 | 6 | 141 | 4.8 | 6.4 | 0.00 | 0.00 | 0.00 | 79 | 1002.6 |
| 20260507001403 | 6 | 139 | 4.8 | 6.4 | 0.00 | 0.00 | 0.00 | 79 | 1002.4 |
| 20260507001303 | 6 | 138 | 4.8 | 6.4 | 0.00 | 0.00 | 0.00 | 79 | 1002.5 |
| 20260507001203 | 6 | 137 | 4.8 | 6.4 | 0.00 | 0.00 | 0.00 | 79 | 1002.6 |
| 20260507001103 | 6 | 137 | 4.8 | 6.4 | 0.00 | 0.00 | 0.00 | 79 | 1002.5 |
| 20260507001003 | 6 | 135 | 3.2 | 6.4 | 0.00 | 0.00 | 0.00 | 80 | 1002.7 |
| 20260507000903 | 6 | 134 | 3.2 | 6.4 | 0.00 | 0.00 | 0.00 | 81 | 1002.7 |
| 20260507000824 | 6 | 133 | 3.2 | 6.4 | 0.00 | 0.00 | 0.00 | 82 | 1002.7 |
| 20260507000703 | 6 | 130 | 3.2 | 6.4 | 0.00 | 0.00 | 0.00 | 81 | 1002.6 |
| 20260507000624 | 6 | 129 | 3.2 | 6.4 | 0.00 | 0.00 | 0.00 | 81 | 1002.6 |
| 20260507000525 | 6 | 128 | 3.2 | 6.4 | 0.00 | 0.00 | 0.00 | 81 | 1002.5 |
| 20260507000405 | 6 | 127 | 3.2 | 6.4 | 0.00 | 0.00 | 0.00 | 81 | 1002.5 |
| 20260507000324 | 6 | 127 | 3.2 | 6.4 | 0.00 | 0.00 | 0.00 | 80 | 1002.5 |
| 20260507000205 | 6 | 125 | 3.2 | 4.8 | 0.00 | 0.00 | 0.00 | 81 | 1002.7 |
| 20260507000124 | 6 | 126 | 3.2 | 4.8 | 0.00 | 0.00 | 0.00 | 81 | 1002.7 |
| 20260507000004 | 6 | 126 | 3.2 | 4.8 | 0.00 | 0.00 | 0.00 | 82 | 1002.8 |
| 20260506235924 | 6 | 127 | 3.2 | 4.8 | 0.00 | 0.00 | 0.00 | 82 | 1002.8 |
| 20260506235803 | 6 | 128 | 3.2 | 4.8 | 0.00 | 0.00 | 0.00 | 82 | 1002.7 |
| 20260506235703 | 6 | 127 | 3.2 | 4.8 | 0.00 | 0.00 | 0.00 | 81 | 1002.6 |
| 20260506235603 | 6 | 126 | 3.2 | 4.8 | 0.00 | 0.00 | 0.00 | 81 | 1002.5 |
| 20260506235503 | 6 | 126 | 3.2 | 4.8 | 0.00 | 0.00 | 0.00 | 81 | 1002.6 |
| 20260506235403 | 6 | 128 | 3.2 | 4.8 | 0.00 | 0.00 | 0.00 | 81 | 1002.4 |
| 20260506235306 | 6 | 127 | 3.2 | 4.8 | 0.00 | 0.00 | 0.00 | 82 | 1002.7 |
| 20260506235203 | 6 | 126 | 3.2 | 6.4 | 0.00 | 0.00 | 0.00 | 82 | 1002.7 |
| 20260506235104 | 6 | 123 | 3.2 | 6.4 | 0.00 | 0.00 | 0.00 | 82 | 1002.7 |
| 20260506235004 | 6 | 121 | 3.2 | 6.4 | 0.00 | 0.00 | 0.00 | 82 | 1002.7 |
| 20260506234903 | 6 | 117 | 3.2 | 6.4 | 0.00 | 0.00 | 0.00 | 82 | 1002.7 |
| 20260506234803 | 6 | 116 | 3.2 | 6.4 | 0.00 | 0.00 | 0.00 | 82 | 1002.6 |
| 20260506234703 | 6 | 114 | 3.2 | 9.7 | 0.00 | 0.00 | 0.00 | 82 | 1002.6 |
| 20260506234603 | 6 | 112 | 3.2 | 9.7 | 0.00 | 0.00 | 0.00 | 82 | 1002.5 |
| 20260506234524 | 6 | 112 | 4.8 | 9.7 | 0.00 | 0.00 | 0.00 | 82 | 1002.5 |
| 20260506234403 | 6 | 110 | 4.8 | 9.7 | 0.00 | 0.00 | 0.00 | 81 | 1002.6 |
| 20260506234303 | 6 | 109 | 4.8 | 9.7 | 0.00 | 0.00 | 0.00 | 81 | 1002.7 |
| 20260506234203 | 6 | 109 | 4.8 | 9.7 | 0.00 | 0.00 | 0.00 | 81 | 1002.5 |
| 20260506234103 | 6 | 109 | 4.8 | 9.7 | 0.00 | 0.00 | 0.00 | 81 | 1002.8 |
| 20260506234003 | 6 | 109 | 4.8 | 9.7 | 0.00 | 0.00 | 0.00 | 81 | 1002.6 |
| 20260506233904 | 6 | 110 | 4.8 | 9.7 | 0.00 | 0.00 | 0.00 | 81 | 1002.5 |
| 20260506233803 | 6 | 111 | 4.8 | 9.7 | 0.00 | 0.00 | 0.00 | 80 | 1002.9 |
| 20260506233724 | 6 | 111 | 4.8 | 9.7 | 0.00 | 0.00 | 0.00 | 80 | 1002.9 |
| 20260506233603 | 6 | 113 | 4.8 | 9.7 | 0.00 | 0.00 | 0.00 | 80 | 1002.8 |
| 20260506233503 | 6 | 114 | 4.8 | 6.4 | 0.00 | 0.00 | 0.00 | 80 | 1002.5 |
| 20260506233403 | 6 | 116 | 3.2 | 6.4 | 0.00 | 0.00 | 0.00 | 80 | 1002.5 |
| 20260506233303 | 6 | 117 | 3.2 | 6.4 | 0.00 | 0.00 | 0.00 | 80 | 1002.7 |
| 20260506233203 | 6 | 118 | 3.2 | 6.4 | 0.00 | 0.00 | 0.00 | 81 | 1002.7 |
| 20260506233103 | 6 | 120 | 3.2 | 6.4 | 0.00 | 0.00 | 0.00 | 81 | 1002.5 |
| 20260506233003 | 6 | 122 | 3.2 | 6.4 | 0.00 | 0.00 | 0.00 | 81 | 1002.5 |
| 20260506232903 | 6 | 125 | 3.2 | 6.4 | 0.00 | 0.00 | 0.00 | 81 | 1002.7 |
| 20260506232824 | 6 | 126 | 3.2 | 6.4 | 0.00 | 0.00 | 0.00 | 81 | 1002.7 |
| 20260506232724 | 6 | 129 | 3.2 | 4.8 | 0.00 | 0.00 | 0.00 | 81 | 1002.9 |
| 20260506232603 | 6 | 132 | 3.2 | 4.8 | 0.00 | 0.00 | 0.00 | 82 | 1002.7 |
| 20260506232524 | 6 | 133 | 3.2 | 4.8 | 0.00 | 0.00 | 0.00 | 82 | 1002.7 |
| 20260506232424 | 6 | 134 | 3.2 | 4.8 | 0.00 | 0.00 | 0.00 | 81 | 1002.8 |
| 20260506232306 | 6 | 134 | 3.2 | 4.8 | 0.00 | 0.00 | 0.00 | 81 | 1002.5 |
| 20260506232203 | 6 | 135 | 3.2 | 4.8 | 0.00 | 0.00 | 0.00 | 81 | 1002.8 |
| 20260506232103 | 6 | 136 | 3.2 | 4.8 | 0.00 | 0.00 | 0.00 | 81 | 1002.6 |
| 20260506232003 | 6 | 136 | 3.2 | 4.8 | 0.00 | 0.00 | 0.00 | 81 | 1002.8 |
| 20260506231924 | 6 | 136 | 3.2 | 4.8 | 0.00 | 0.00 | 0.00 | 81 | 1002.8 |
| 20260506231804 | 6 | 135 | 3.2 | 4.8 | 0.00 | 0.00 | 0.00 | 81 | 1002.7 |
| 20260506231724 | 6 | 135 | 3.2 | 4.8 | 0.00 | 0.00 | 0.00 | 82 | 1002.7 |
| 20260506231603 | 6 | 135 | 3.2 | 4.8 | 0.00 | 0.00 | 0.00 | 81 | 1002.6 |
| 20260506231524 | 6 | 135 | 3.2 | 4.8 | 0.00 | 0.00 | 0.00 | 81 | 1002.6 |
| 20260506231424 | 6 | 134 | 3.2 | 4.8 | 0.00 | 0.00 | 0.00 | 81 | 1002.8 |
| 20260506231303 | 6 | 134 | 3.2 | 4.8 | 0.00 | 0.00 | 0.00 | 81 | 1002.8 |
| 20260506231224 | 6 | 134 | 3.2 | 4.8 | 0.00 | 0.00 | 0.00 | 81 | 1002.8 |
| 20260506231103 | 6 | 134 | 3.2 | 4.8 | 0.00 | 0.00 | 0.00 | 81 | 1002.6 |
| 20260506231003 | 6 | 133 | 3.2 | 4.8 | 0.00 | 0.00 | 0.00 | 82 | 1002.6 |
| 20260506230903 | 6 | 134 | 3.2 | 4.8 | 0.00 | 0.00 | 0.00 | 82 | 1002.6 |
| 20260506230803 | 6 | 134 | 3.2 | 4.8 | 0.00 | 0.00 | 0.00 | 81 | 1002.6 |
| 20260506230724 | 6 | 134 | 3.2 | 4.8 | 0.00 | 0.00 | 0.00 | 82 | 1002.6 |
| 20260506230603 | 6 | 135 | 3.2 | 4.8 | 0.00 | 0.00 | 0.00 | 82 | 1002.4 |
| 20260506230503 | 6 | 135 | 3.2 | 4.8 | 0.00 | 0.00 | 0.00 | 82 | 1002.8 |
| 20260506230403 | 6 | 136 | 3.2 | 4.8 | 0.00 | 0.00 | 0.00 | 81 | 1002.7 |